     2              OBSERVATION DATA                        RINEX VERSION / TYPE
DAT2RIN 1.01d Dan Johnson 12SEP96 4:33:30 GMT               PGM / RUN BY / DATE
Mojave '96 team Central Washington U                        OBSERVER / AGENCY
16306 TRIMBLE 4000SSI Nav 7.09 Sig 3.03                     REC # / TYPE / VERS
66922 TRIMBLE CHOKE                                         ANT # / TYPE
RITA                                                        MARKER NAME
 -2405689.0000 -4505260.0000  3810978.0000                  APPROX POSITION XYZ
        0.0614        0.0000        0.0000                  ANTENNA: DELTA H/E/N
     1     1     0                                          WAVELENGTH FACT L1/2
     5    L1    C1    P1    L2    P2                        # / TYPES OF OBSERV
    30                                                      INTERVAL
                                                            COMMENT
PANGA GPS Data Analysis Center                              COMMENT
Department of Geology                                       COMMENT
Central Washington University                               COMMENT
Ellensburg, WA 98926                                        COMMENT
                                                            COMMENT
http://www.panga.cwu.edu                                    COMMENT
ftp://panga.cwu.edu                                         COMMENT
                                                            COMMENT
  1996     9     6     0     0   30.000000                  TIME OF FIRST OBS
  1996     9     6    20    55   30.000000                  TIME OF LAST OBS
    25                                                      # OF SATELLITES
           1   366   366     0   364   364                  PRN / # OF OBS
           2   841   842     0   840   840                  PRN / # OF OBS
           3   673   673     0   661   661                  PRN / # OF OBS
           4   792   792     0   784   784                  PRN / # OF OBS
           5   716   716     0   711   711                  PRN / # OF OBS
           6   777   777     0   772   772                  PRN / # OF OBS
           7   732   733     0   728   728                  PRN / # OF OBS
           9   725   725     0   718   718                  PRN / # OF OBS
          10   889   889     0   881   881                  PRN / # OF OBS
          14   612   612     0   612   612                  PRN / # OF OBS
          15   626   628     0   618   618                  PRN / # OF OBS
          16   893   894     0   880   880                  PRN / # OF OBS
          17   719   720     0   717   717                  PRN / # OF OBS
          18   760   761     0   755   755                  PRN / # OF OBS
          19   844   844     0   842   842                  PRN / # OF OBS
          21   482   482     0   479   479                  PRN / # OF OBS
          22   409   410     0   402   402                  PRN / # OF OBS
          23   559   560     0   557   557                  PRN / # OF OBS
          24   695   696     0   692   692                  PRN / # OF OBS
          25   370   370     0   370   370                  PRN / # OF OBS
          26   928   928     0   919   919                  PRN / # OF OBS
          27   813   813     0   810   810                  PRN / # OF OBS
          28   532     0   532   532   532                  PRN / # OF OBS
          29   754   754     0   754   754                  PRN / # OF OBS
          31   606   607     0   600   600                  PRN / # OF OBS
                                                            END OF HEADER
 96  9  6  0  0 30.0000000  0  6  1 14 15 21 25 29
  22266974.80510  22278937.43000                  17434179.87350  22278942.48040
  -1739542.22910  23235786.59400                  -1309644.14750  23235792.45340
  -3925863.29010  20795866.21900                  -2989457.64950  20795871.42240
  34616991.39510  22992375.64800                   6151326.00350  22992381.28540
  -3860462.23610  20768179.03100                  -2933854.33350  20768182.98040
  -1415477.47210  23409484.41400                  -1055594.59850  23409489.98040
 96  9  6  0  1  0.0000000  0  6  1 14 15 21 25 29
  22400746.61400  22304393.85900                  17538417.63340  22304398.94540
  -1761868.44400  23231537.79700                  -1327041.17540  23231543.64540
  -3885716.46300  20803506.00000                  -2958174.40940  20803511.05140
  34757840.80700  23019178.97700                   6261078.75540  23019184.55540
  -3822193.79200  20775461.31300                  -2904034.75740  20775465.16840
  -1425560.28400  23407566.20300                  -1063451.26740  23407572.16840
 96  9  6  0  1 30.0000000  0  6  1 14 15 21 25 29
  22534630.73400  22329870.75000                  17642742.91340  22329875.82440
  -1784170.83600  23227293.76600                  -1344419.62140  23227298.98040
  -3844962.56600  20811261.08600                  -2926418.13040  20811266.13740
  34898905.44000  23046022.26600                   6370999.22840  23046027.87940
  -3783406.27400  20782842.23400                  -2873810.70940  20782846.16040
  -1435499.26800  23405674.60200                  -1071195.89540  23405680.12140
 96  9  6  0  2  0.0000000  0  6  1 14 15 21 25 29
  22668639.91500  22355372.22700                  17747165.63540  22355377.20740
  -1806424.33200  23223058.87500                  -1361759.96740  23223064.28940
  -3803583.68400  20819135.30500                  -2894174.84740  20819140.36740
  35040189.57200  23072907.39100                   6481090.71740  23072913.18040
  -3744082.58400  20790325.35200                  -2843168.85940  20790329.26640
  -1445246.23400  23403820.49200                  -1078790.89340  23403825.47340
 96  9  6  0  2 30.0000000  0  6  1 14 15 21 25 29
  22802760.45700  22380894.35900                  17851675.13240  22380899.38740
  -1828648.23700  23218829.93000                  -1379077.27140  23218836.02340
  -3761589.41200  20827126.41400                  -2861452.03840  20827131.52340
  35181676.21700  23099831.45300                   6591340.01340  23099836.86740
  -3704236.58800  20797907.53900                  -2812120.01840  20797911.47740
  -1454788.88200  23402004.25800                  -1086226.69440  23402008.48840
 96  9  6  0  3  0.0000000  0  6  1 14 15 21 25 29
  22936984.20300  22406436.85200                  17956265.05140  22406442.40640
  -1850869.27500  23214601.57800                  -1396392.32340  23214607.12140
  -3718977.54500  20835235.28100                  -2828247.99240  20835240.34440
  35323376.70600  23126796.79700                   6701755.95140  23126802.25840
  -3663854.06000  20805592.21900                  -2780653.10440  20805596.03940
  -1464118.09000  23400228.64800                  -1093496.17140  23400233.38340
 96  9  6  0  3 30.0000000  0  6  1 14 15 21 25 29
  23071311.00700  22431997.76600                  18060935.27040  22432002.74640
  -1873071.13500  23210376.42200                  -1413692.45940  23210381.96540
  -3675734.22100  20843464.14100                  -2794551.89940  20843469.22740
  35465321.29600  23153807.65600                   6812362.08440  23153813.45740
  -3622918.75800  20813382.10900                  -2748755.45540  20813385.90640
  -1473226.45600  23398495.51600                  -1100593.55040  23398500.46140
 96  9  6  0  4  0.0000000  0  6  1 14 15 21 25 29
  23205731.04500  22457576.97700                  18165678.14040  22457582.13340
  -1895246.56400  23206156.64800                  -1430971.97840  23206162.28540
  -3631856.00900  20851814.10900                  -2760361.08540  20851819.27740
  35607515.62600  23180866.75000                   6923162.81440  23180872.32840
  -3581431.68400  20821276.71900                  -2716427.85340  20821280.53940
  -1482125.99900  23396802.00800                  -1107528.19740  23396807.39840
 96  9  6  0  4 30.0000000  0  6  1 14 15 21 25 29
  23340236.34300  22483172.53900                  18270487.44740  22483177.85940
  -1917402.16900  23201940.31300                  -1448236.04140  23201945.01240
  -3587352.65700  20860282.74200                  -2725683.15340  20860287.87540
  35749962.05900  23207972.58600                   7034160.00340  23207978.77340
  -3539393.84400  20829276.27300                  -2683671.08040  20829280.15240
  -1490839.28900  23395144.23400                  -1114317.74140  23395148.89840
 96  9  6  0  5  0.0000000  0  6  1 14 15 21 25 29
  23474831.88400  22508785.64100                  18375367.07040  22508790.57440
  -1939522.88400  23197730.88300                  -1465472.94240  23197736.23840
  -3542223.70000  20868870.40600                  -2690517.73540  20868875.53940
  35892661.38100  23235128.26600                   7145354.23540  23235133.91440
  -3496799.91600  20837381.70300                  -2650480.99840  20837385.44140
  -1499377.79800  23393518.80500                  -1120971.07540  23393523.60940
 96  9  6  0  5 30.0000000  0  6  1 14 15 21 25 29
  23609513.83700  22534414.70300                  18480314.02740  22534420.11740
  -1961579.02400  23193533.94500                  -1482659.48740  23193539.54740
  -3496470.85600  20877576.87500                  -2654866.17540  20877582.12540
  36035607.19300  23262329.83600                   7256740.54540  23262335.50840
  -3453664.10400  20845590.12500                  -2616868.66740  20845594.05140
  -1507743.08400  23391927.19500                  -1127489.45840  23391931.06340
 96  9  6  0  6  0.0000000  0  6  1 14 15 21 25 29
  23744278.95700  22560059.54700                  18585325.79040  22560064.37540
  -1983557.33300  23189351.64100                  -1499785.41540  23189357.40640
  -3450090.58200  20886402.78900                  -2618725.70240  20886407.95740
  36178793.26700  23289577.19500                   7368314.05940  23289582.65640
  -3409984.09500  20853902.07800                  -2582832.28640  20853905.96940
  -1515923.48100  23390370.51600                  -1133863.72340  23390376.04740
 96  9  6  0  6 30.0000000  0  6  1 14 15 21 25 29
  23879137.64200  22585722.27300                  18690410.47340  22585727.09040
  -2005459.97500  23185183.55500                  -1516852.37240  23185189.67240
  -3403081.16000  20895348.47700                  -2582094.98840  20895353.62140
  36322219.32500  23316871.21100                   7480074.58440  23316876.61340
  -3365763.12800  20862316.93800                  -2548374.37340  20862320.84040
  -1523907.34000  23388850.62500                  -1140084.86440  23388855.72340
 96  9  6  0  7  0.0000000  0  6  1 14 15 21 25 29
  24014083.13300  22611401.82800                  18795562.78340  22611406.51640
  -2027283.20500  23181030.43800                  -1533857.46340  23181036.09840
  -3355439.74600  20904414.25800                  -2544971.81140  20904419.39140
  36465885.55700  23344209.44500                   7592022.24540  23344213.81640
  -3321010.21200  20870833.35200                  -2513501.96540  20870837.26640
  -1531695.96500  23387368.12500                  -1146153.85540  23387373.86740
 96  9  6  0  7 30.0000000  0  6  1 14 15 21 25 29
  24149092.12900  22637093.16400                  18900764.57640  22637098.77740
  -2049053.25500  23176888.07000                  -1550821.11040  23176893.07440
  -3307180.19300  20913597.78900                  -2507366.96540  20913603.03940
  36609790.49100  23371593.38300                   7704155.92140  23371599.05540
  -3275748.70400  20879446.11700                  -2478233.24240  20879449.93840
  -1539301.32000  23385920.85900                  -1152080.04940  23385926.00440
 96  9  6  0  8  0.0000000  0  6  1 14 15 21 25 29
  24284186.11100  22662800.39800                  19006032.59740  22662805.30940
  -2070776.36600  23172753.82800                  -1567748.18240  23172759.11340
  -3258290.13600  20922901.00000                  -2469270.81940  20922906.16840
  36753953.90400  23399026.79700                   7816491.01440  23399032.73840
  -3229971.32400  20888157.28100                  -2442562.55140  20888161.09040
  -1546718.92900  23384510.18800                  -1157859.94740  23384515.00440
 96  9  6  0  8 30.0000000  0  6  1 14 15 21 25 29
  24419373.38800  22688525.71900                  19111373.31940  22688531.05140
  -2092446.41400  23168630.45300                  -1584633.90540  23168635.50440
  -3208766.80500  20932325.26600                  -2430681.21240  20932330.12940
  36898377.70100  23426509.45300                   7929028.97740  23426515.05540
  -3183675.13900  20896967.21900                  -2406487.59340  20896971.02740
  -1553953.66100  23383132.86700                  -1163497.35840  23383138.76240
 96  9  6  0  9  0.0000000  0  6  1 14 15 21 25 29
  24554657.78000  22714269.23400                  19216789.70740  22714274.29740
  -2114044.94500  23164520.27300                  -1601463.90440  23164525.72340
  -3158602.17100  20941871.29700                  -2391591.89040  20941876.35940
  37043072.71800  23454042.91400                   8041778.31140  23454049.16040
  -3136837.08900  20905880.16400                  -2369990.40340  20905883.98440
  -1561007.22600  23381791.27300                  -1168993.59140  23381795.59840
 96  9  6  0  9 30.0000000  0  6  1 14 15 21 25 29
  24690018.04600  22740027.62500                  19322265.21540  22740032.69940
  -2135600.94300  23160418.01600                  -1618260.74940  23160423.24240
  -3107818.17400  20951535.03900                  -2352019.93940  20951540.23040
  37188005.44200  23481624.00000                   8154712.86140  23481630.01240
  -3089463.17900  20914895.02300                  -2333075.66040  20914898.83240
  -1567903.57300  23380478.14800                  -1174367.30840  23380482.71940
 96  9  6  0 10  0.0000000  0  6  1 14 15 21 25 29
  24825471.95500  22765803.60900                  19427813.69640  22765808.71940
  -2157084.46500  23156330.03900                  -1635001.13240  23156335.18440
  -3056396.92600  20961320.23400                  -2311951.44240  20961325.33240
  37333176.28500  23509249.45300                   8267832.92540  23509254.62140
  -3041520.03400  20924018.54700                  -2295717.35640  20924022.33240
  -1574631.60800  23379198.75000                  -1179609.88140  23379203.21540
 96  9  6  0 10 30.0000000  0  6  1 14 15 21 25 29
  24960987.15800  22791591.53900                  19533409.94640  22791596.61340
  -2178503.66600  23152254.35900                  -1651691.40140  23152260.30140
  -3004352.30400  20971224.03900                  -2271397.19240  20971228.97340
  37478561.91600  23536914.78100                   8381120.39340  23536920.38340
  -2993006.53100  20933250.15600                  -2257914.62040  20933253.93040
  -1581209.99000  23377946.78100                  -1184735.84540  23377951.71540
 96  9  6  0 11  0.0000000  0  6  1 14 15 21 25 29
  25096569.29100  22817391.82000                  19639058.33940  22817397.42240
  -2199854.83300  23148191.14800                  -1668328.66440  23148196.89140
  -2951669.08400  20981249.18000                  -2230345.33540  20981254.45340
  37624184.04100  23564625.04700                   8494592.17640  23564630.95340
  -2943912.37100  20942592.54700                  -2219659.41940  20942596.47340
  -1587631.59500  23376724.43000                  -1189739.61840  23376729.35240
 96  9  6  0 11 30.0000000  0  6  1 14 15 21 25 29
  25232210.56300  22843203.78100                  19744752.81340  22843209.12540
  -2221151.75200  23144138.28900                  -1684923.63840  23144143.04740
  -2898351.13400  20991395.24200                  -2188798.88840  20991400.48040
  37770033.15200  23592379.25800                   8608240.78340  23592385.18840
  -2894267.25700  20952039.63300                  -2180974.90740  20952043.47740
  -1593902.82300  23375530.59400                  -1194626.24540  23375535.79740
 96  9  6  0 12  0.0000000  0  6  1 14 15 21 25 29
  25367909.29200  22869026.23400                  19850492.05940  22869031.13340
  -2242398.16000  23140095.36700                  -1701479.25940  23140100.41840
  -2844399.33200  21001661.92200                  -2146758.52840  21001667.25440
  37916117.55000  23620179.18800                   8722072.73840  23620185.24640
  -2844096.73600  20961586.85200                  -2141880.99040  20961590.62540
  -1600022.31200  23374366.51600                  -1199394.61240  23374371.78940
 96  9  6  0 12 30.0000000  0  6  1 14 15 21 25 29
  25503665.77000  22894860.09400                  19956276.30840  22894865.33240
  -2263606.83300  23136059.61700                  -1718005.47640  23136065.04340
  -2789818.02300  21012048.43000                  -2104227.64740  21012053.38740
  38062438.63300  23648022.43000                   8836089.11340  23648027.98440
  -2793417.58900  20971230.79700                  -2102390.73740  20971234.67640
  -1605983.39800  23373232.03100                  -1204039.57340  23373237.58640
 96  9  6  0 13  0.0010000  0  6  1 14 15 21 25 29
  25639490.91200  22920706.56700                  20062114.06140  22920711.41940
  -2284766.39700  23132033.21600                  -1734493.42440  23132038.88840
  -2734601.61000  21022555.70800                  -2061201.87440  21022561.09940
  38209006.07500  23675913.95000                   8950297.48940  23675919.03640
  -2742227.60900  20980971.91100                  -2062502.43440  20980975.80240
  -1611779.18100  23372128.68500                  -1208555.70740  23372134.11040
 96  9  6  0 13 30.0010000  0  6  1 14 15 21 25 29
  25775376.87800  22946564.48100                  20167999.21540  22946569.89640
  -2305867.16500  23128017.56700                  -1750935.56140  23128023.06340
  -2678757.53400  21033182.49700                  -2017687.02140  21033187.65340
  38355793.81800  23703846.62200                   9064677.49840  23703851.31040
  -2690516.40600  20990812.19200                  -2022207.98240  20990815.96640
  -1617401.81400  23371059.01300                  -1212936.93140  23371063.77140
 96  9  6  0 14  0.0010000  0  6  1 14 15 21 25 29
  25911342.11000  22972437.88000                  20273946.12040  22972443.22440
  -2326885.50300  23124018.01300                  -1767313.47140  23124023.75540
  -2622271.35200  21043931.48900                  -1973671.82440  21043936.58740
  38502825.45600  23731825.98100                   9179247.56040  23731831.89940
  -2638242.38700  21000759.56700                  -1981474.97840  21000763.44640
  -1622824.35100  23370027.15300                  -1217162.23540  23370032.00540
 96  9  6  0 14 30.0010000  0  6  1 14 15 21 25 29
  26047380.53200  22998325.81000                  20379950.08440  22998331.35340
  -2347809.13400  23120036.23900                  -1783617.57140  23120041.45440
  -2565146.20500  21054802.28600                  -1929158.73240  21054807.36040
  38650088.69900  23759849.21600                   9293998.06940  23759855.23940
  -2585385.44700  21010817.93500                  -1940287.74340  21010821.73140
  -1628054.22100  23369031.84900                  -1221237.42340  23369036.94640
 96  9  6  0 15  0.0010000  0  6  1 14 15 21 25 29
  26183486.98000  23024226.11400                  20486007.03040  23024231.21240
  -2368651.81600  23116070.05200                  -1799858.61340  23116075.48940
  -2507387.59600  21065793.31700                  -1884152.03340  21065798.49740
  38797577.00100  23787915.50500                   9408923.99840  23787921.52840
  -2531952.27800  21020985.77800                  -1898651.50040  21020989.56340
  -1633103.26000  23368070.59900                  -1225171.69540  23368076.00140
 96  9  6  0 15 30.0010000  0  6  1 14 15 21 25 29
  26319673.22000  23050141.02100                  20592126.18040  23050145.61440
  -2389437.32900  23112114.52800                  -1816055.09640  23112120.59940
  -2449001.81000  21076903.67700                  -1838656.62440  21076908.78640
  38945284.21100  23816022.82500                   9524020.50440  23816028.53240
  -2477962.79000  21031259.77100                  -1856581.76040  21031263.62640
  -1637963.58200  23367145.92700                  -1228958.92040  23367151.01340
 96  9  6  0 16  0.0010000  0  6  1 14 15 21 25 29
  26455962.47800  23076075.73100                  20698325.57040  23076081.06340
  -2410161.56300  23108170.67700                  -1832203.83640  23108176.46640
  -2389969.83200  21088137.18500                  -1792657.69440  21088142.58740
  39093234.09500  23844177.53600                   9639306.06640  23844184.07540
  -2423421.47900  21041638.67700                  -1814082.03440  21041642.38040
  -1642623.04700  23366259.40300                  -1232589.63540  23366264.72440
 96  9  6  0 16 30.0010000  0  6  1 14 15 21 25 29
  26592349.25800  23102029.71600                  20804600.97240  23102035.32940
  -2430837.06000  23104235.84100                  -1848314.58840  23104241.20840
  -2330292.83600  21099493.30200                  -1746156.14740  21099498.43540
  39241406.12400  23872372.81000                   9754764.69840  23872379.92740
  -2368353.55000  21052117.40300                  -1771171.94840  21052121.27140
  -1647096.86800  23365408.16100                  -1236075.70440  23365412.41540
 96  9  6  0 17  0.0010000  0  6  1 14 15 21 25 29
  26728834.04600  23128001.84900                  20910952.72340  23128007.08740
  -2451468.87300  23100310.27800                  -1864391.30940  23100316.09140
  -2269971.05400  21110972.01300                  -1699152.17140  21110977.14640
  39389801.88000  23900612.38800                   9870397.74440  23900617.53240
  -2312784.18400  21062692.09900                  -1727871.13740  21062696.00140
  -1651375.79600  23364593.22400                  -1239409.89240  23364598.09940
 96  9  6  0 17 30.0010000  0  6  1 14 15 21 25 29
  26865402.98900  23153990.09900                  21017370.07440  23153995.50140
  -2472034.56600  23096397.24700                  -1880416.51240  23096402.46240
  -2209008.69300  21122572.90300                  -1651649.04140  21122578.30640
  39538406.18600  23928890.52100                   9986193.26440  23928895.39640
  -2256712.41200  21073362.23100                  -1684178.84140  21073366.13440
  -1655472.61500  23363814.05200                  -1242602.17140  23363818.81040
 96  9  6  0 18  0.0010000  0  6  1 14 15 21 25 29
  27002032.89000  23179989.41900                  21123834.91240  23179995.30240
  -2492498.96800  23092502.33300                  -1896362.77540  23092507.47840
  -2147398.46900  21134296.81700                  -1603641.08940  21134302.09140
  39687221.59900  23957209.97400                  10102153.22040  23957216.27840
  -2200121.17600  21084131.02100                  -1640081.76640  21084134.98140
  -1659402.50200  23363066.64600                  -1245664.38840  23363071.84940
 96  9  6  0 18 30.0010000  0  6  1 14 15 21 25 29
  27138701.18200  23205996.91900                  21230329.65940  23206002.25140
  -2512848.47600  23088629.91100                  -1912219.51940  23088635.45440
  -2085152.25400  21146141.84100                  -1555137.55040  21146147.24340
  39836238.00300  23985566.04400                  10218269.84140  23985572.81740
  -2143000.62200  21095000.75500                  -1595572.23640  21095004.65740
  -1663172.09700  23362349.29400                  -1248601.69440  23362353.00940
 96  9  6  0 19  0.0010000  0  6  1 14 15 21 25 29
  27275404.68400  23232010.71600                  21336851.83840  23232015.97840
  -2533074.14000  23084781.00500                  -1927979.75040  23084787.06340
  -2022276.57400  21158106.93500                  -1506143.52440  21158112.17340
  39985477.44300  24013965.74700                  10334560.32340  24013971.75940
  -2085349.91700  21105971.52100                  -1550649.60840  21105975.30640
  -1666781.12200  23361662.23100                  -1251413.88840  23361666.74340
 96  9  6  0 19 30.0010000  0  6  1 14 15 21 25 29
  27412138.10100  23258030.50500                  21443397.33140  23258035.69640
  -2553175.74800  23080956.18500                  -1943643.32440  23080961.62240
  -1958769.67600  21170191.83300                  -1456657.63740  21170197.21240
  40134946.22700  24042408.20000                  10451029.34540  24042415.03240
  -2027141.34300  21117048.02100                  -1505292.26740  21117051.79440
  -1670236.99100  23361004.01300                  -1254106.75040  23361009.36840
 96  9  6  0 20  0.0010000  0  6  1 14 15 21 25 29
  27548912.87700  23284057.63800                  21549975.06440  23284062.93540
  -2573160.19800  23077153.06000                  -1959215.59940  23077158.64940
  -1894617.26000  21182399.55200                  -1406668.74940  21182404.82540
  40284674.94600  24070899.92700                  10567701.10540  24070907.52440
  -1968371.78800  21128231.70800                  -1459497.81040  21128235.48140
  -1673510.13400  23360381.34100                  -1256657.20340  23360387.20040
 96  9  6  0 20 30.0010000  0  6  1 14 15 21 25 29
  27685740.82800  23310095.53600                  21656594.22340  23310100.64640
  -2593056.38300  23073367.09900                  -1974719.10740  23073372.57140
  -1829824.40100  21194729.35600                  -1356180.81540  21194734.60640
  40434664.97600  24099442.59900                  10684576.42440  24099450.12640
  -1909049.07200  21139520.50500                  -1413272.30940  21139524.22040
  -1676591.01600  23359795.02100                  -1259057.86240  23359799.95440
 96  9  6  0 21  0.0010000  0  6  1 14 15 21 25 29
  27822623.56300  23336143.09900                  21763256.07440  23336148.75940
  -2612884.05200  23069594.07500                  -1990169.23240  23069599.32540
  -1764393.26700  21207180.41900                  -1305195.52640  21207185.65740
  40584902.00300  24128032.15300                  10801644.11140  24128036.41940
  -1849179.69800  21150913.21600                  -1366620.84140  21150917.08340
  -1679485.01500  23359244.06700                  -1261312.88040  23359249.14240
 96  9  6  0 21 30.0010000  0  6  1 14 15 21 25 29
  27959560.93200  23362201.33300                  21869960.49340  23362206.46640
  -2632648.66000  23065832.84900                  -2005570.20340  23065838.09940
  -1698325.99000  21219752.74700                  -1253714.53940  21219757.96240
  40735357.45500  24156662.83300                  10918882.11340  24156670.71240
  -1788758.72600  21162410.87200                  -1319539.56240  21162414.76340
  -1682206.82000  23358726.01300                  -1263433.74140  23358730.82940
 96  9  6  0 22  0.0010000  0  6  1 14 15 21 25 29
  28096572.86200  23388274.12200                  21976723.00940  23388279.07940
  -2652329.65100  23062087.70000                  -2020906.01640  23062092.68140
  -1631609.50200  21232448.42700                  -1201727.67840  21232453.60640
  40886038.22400  24185336.73900                  11036295.70240  24185340.94640
  -1727784.80200  21174013.70800                  -1272027.41240  21174017.50540
  -1684745.84100  23358243.41900                  -1265412.17540  23358248.01340
 96  9  6  0 22 30.0010000  0  6  1 14 15 21 25 29
  28233664.07600  23414361.06000                  22083547.31740  23414366.40340
  -2671927.26200  23058358.51300                  -2036176.87540  23058364.19640
  -1564253.56400  21245265.88800                  -1149242.54040  21245271.14940
  41036923.10600  24214049.20000                  11153868.23840  24214055.25940
  -1666253.62700  21185722.70000                  -1224081.03940  21185726.60340
  -1687123.44600  23357790.73100                  -1267264.80440  23357795.92340
 96  9  6  0 23  0.0010000  0  6  1 14 15 21 25 29
  28370818.62600  23440461.22400                  22190420.97240  23440466.87240
  -2691453.22200  23054642.67700                  -2051391.88540  23054648.07940
  -1496273.32300  21258202.07500                  -1096270.93640  21258207.23140
  41187991.44200  24242797.34100                  11271583.77640  24242801.64240
  -1604186.25200  21197533.76300                  -1175716.84140  21197537.51340
  -1689365.37400  23357364.11400                  -1269011.74640  23357369.27140
 96  9  6  0 23 30.0010000  0  6  1 14 15 21 25 29
  28508047.07900  23466574.87200                  22297352.20540  23466580.55640
  -2710883.92100  23050944.88000                  -2066532.67940  23050950.59940
  -1427652.78300  21271260.13000                  -1042800.39540  21271265.31040
  41339281.42300  24271587.32500                  11389472.01240  24271592.81040
  -1541585.35100  21209446.34100                  -1126936.91940  21209450.06740
  -1691446.13300  23356968.32500                  -1270633.08440  23356973.18840
 96  9  6  0 24  0.0010000  0  6  1 14 15 21 25 29
  28645351.37400  23492703.05200                  22404342.53240  23492708.70040
  -2730212.76000  23047266.91100                  -2081594.08640  23047272.77140
  -1358384.53900  21284441.41100                   -988825.15440  21284446.56740
  41490805.95300  24300419.68500                  11507543.03440  24300425.21640
  -1478444.63500  21221461.47400                  -1077736.36340  21221465.36440
  -1693333.83800  23356609.47400                  -1272103.98140  23356614.39640
 96  9  6  0 24 30.0010000  0  6  1 14 15 21 25 29
  28782696.25000  23518839.13800                  22511364.49740  23518844.16540
  -2749459.46100  23043604.55200                  -2096591.51640  23043610.04840
  -1288496.07300  21297740.80200                   -934366.61740  21297746.08740
  41642526.80700  24329292.23100                  11625767.01740  24329297.56340
  -1414796.19800  21233573.53600                  -1028140.18340  21233577.36840
  -1695037.01500  23356284.74700                  -1273431.11340  23356288.90740
 96  9  6  0 25  0.0010000  0  6  1 14 15 21 25 29
  28920082.97400  23544982.52800                  22618419.05940  23544988.27140
  -2768587.68300  23039964.47400                  -2111496.60640  23039969.97040
  -1217966.60300  21311162.07500                   -879408.59940  21311167.38440
  41794465.26900  24358205.33300                  11744160.62140  24358208.69640
  -1350623.71100  21245785.12200                   -978135.64340  21245788.97840
  -1696529.60100  23356001.28600                  -1274594.12840  23356005.91540
 96  9  6  0 25 30.0020000  0  6  1 14 15 21 25 29
  29057506.28400  23571133.32200                  22725502.12940  23571139.08840
  -2787582.11800  23036350.15800                  -2126297.44840  23036355.29140
  -1146799.02900  21324704.76800                   -823953.35640  21324710.02940
  41946618.70400  24387158.07200                  11862721.61440  24387164.17840
  -1285915.16600  21258098.79900                   -927713.40140  21258102.61940
  -1697806.08600  23355758.07200                  -1275588.76040  23355762.49040
 96  9  6  0 26  0.0020000  0  6  1 14 15 21 25 29
  29194955.44100  23597289.30700                  22832605.35640  23597294.19340
  -2806452.58300  23032759.30700                  -2141001.69640  23032764.17040
  -1075003.01800  21338367.20500                   -768008.42640  21338372.46740
  42098951.51000  24416147.41600                  11981422.57240  24416151.69340
  -1220663.91900  21270515.68200                   -876868.27240  21270519.47940
  -1698886.81900  23355552.03300                  -1276430.87840  23355556.96740
 96  9  6  0 26 30.0020000  0  6  1 14 15 21 25 29
  29332441.28000  23623451.84600                  22939737.14440  23623456.80340
  -2825207.49000  23029190.28300                  -2155615.89240  23029195.86140
  -1002576.51000  21352149.47100                   -711572.19940  21352154.69740
  42251482.66000  24445173.42400                  12100277.80440  24445179.09640
  -1154871.76600  21283035.47900                   -825601.65640  21283039.22940
  -1699793.99000  23355379.47900                  -1277137.72540  23355384.22540
 96  9  6  0 27  0.0020000  0  6  1 14 15 21 25 29
  29469978.42800  23649624.43900                  23046908.92340  23649629.42040
  -2843868.53600  23025639.18200                  -2170156.94940  23025644.67840
   -929518.33200  21366052.05700                   -654643.76040  21366057.28340
  42404230.14300  24474240.30700                  12219301.85940  24474246.06140
  -1088533.55000  21295659.26800                   -773909.53440  21295663.00640
  -1700551.48400  23355235.38500                  -1277727.94340  23355240.23640
 96  9  6  0 27 30.0020000  0  6  1 14 15 21 25 29
  29607588.26200  23675811.21300                  23154137.33740  23675816.49840
  -2862446.68700  23022103.36900                  -2184633.42440  23022109.06440
   -855820.19400  21380076.29100                   -597216.65040  21380081.55340
  42557207.98800  24503350.97900                  12338505.29740  24503357.30740
  -1021646.21600  21308387.58000                   -721789.53340  21308391.31840
  -1701153.67900  23355120.82200                  -1278197.16140  23355125.25240
 96  9  6  0 28  0.0020000  0  6  1 14 15 21 25 29
  29745252.15500  23702007.75200                  23261407.88840  23702012.79140
  -2880965.15100  23018579.68200                  -2199063.37640  23018585.02540
   -781496.63300  21394219.51000                   -539302.20040  21394224.68940
  42710402.97700  24532502.47100                  12457877.92440  24532508.38940
   -954230.10100  21321216.32200                   -669257.49440  21321220.07240
  -1701624.12400  23355031.10400                  -1278563.71140  23355035.73240
 96  9  6  0 28 30.0020000  0  6  1 14 15 21 25 29
  29882979.43800  23728215.68200                  23368727.82340  23728220.68640
  -2899392.75800  23015073.29100                  -2213422.53840  23015078.20140
   -706529.59600  21408485.36900                   -480886.34240  21408490.57240
  42863845.90600  24561702.03300                  12577443.83540  24561708.03340
   -886270.93400  21334148.35400                   -616302.29640  21334152.17440
  -1701933.66300  23354972.55700                  -1278804.87440  23354977.40840
 96  9  6  0 29  0.0020000  0  6  1 14 15 21 25 29
  30020748.43900  23754432.73600                  23476080.26340  23754437.78740
  -2917705.03300  23011588.37700                  -2227691.83540  23011593.61540
   -630920.57500  21422873.18900                   -421970.23440  21422878.68640
  43017525.64100  24590945.87700                  12697194.28740  24590950.11940
   -817766.15800  21347184.71300                   -562921.94940  21347188.55740
  -1702072.46300  23354946.23600                  -1278913.00340  23354950.63140
 96  9  6  0 29 30.0020000  0  6  1 14 15 21 25 29
  30158523.89600  23780650.64300                  23583437.74240  23780655.45940
  -2935895.66400  23008126.72100                  -2241866.33840  23008131.71340
   -554691.89200  21437379.01800                   -362571.27440  21437384.40840
  43171411.07300  24620229.65000                  12817104.92340  24620235.15840
   -748740.12700  21360319.69700                   -509135.43140  21360323.41240
  -1702045.72600  23354950.66600                  -1278892.14440  23354955.06140
 96  9  6  0 30  0.0020000  0  6  1 14 15 21 25 29
  30296326.34900  23806873.22100                  23690816.24540  23806878.72940
  -2953926.89300  23004695.31400                  -2255916.63540  23004700.26040
   -477818.68200  21452007.62700                   -302670.08240  21452012.99440
  43325519.76400  24649556.43200                  12937189.61040  24649560.77940
   -679169.13500  21373558.68200                   -454924.26540  21373562.50240
  -1701832.26400  23354991.59600                  -1278725.77540  23354996.23640
 96  9  6  0 30 30.0020000  0  6  1 14 15 21 25 29
  30434170.22600  23833104.59600                  23798227.04440  23833109.43640
  -2971796.72200  23001295.04900                  -2269841.15640  23001300.26440
   -400301.54900  21466758.53300                   -242267.13640  21466763.92440
  43479849.38100  24678922.88500                  13057446.34140  24678927.31440
   -609061.39800  21386899.84600                   -400294.86040  21386903.74840
  -1701431.82800  23355067.75200                  -1278413.73440  23355071.85440
 96  9  6  0 31  0.0020000  0  6  1 14 15 21 25 29
  30572065.52700  23859344.90000                  23905677.88740  23859350.56140
  -2989518.54400  22997922.74400                  -2283650.36440  22997927.93640
   -322146.09800  21481631.16600                   -181366.79940  21481636.38140
  43634378.72100  24708330.01000                  13177858.71140  24708336.16240
   -538423.38300  21400341.76800                   -345252.24940  21400345.70540
  -1700848.65200  23355178.51800                  -1277959.28340  23355183.49840
 96  9  6  0 31 30.0020000  0  6  1 14 15 21 25 29
  30710014.77300  23885595.85400                  24013170.79440  23885601.86540
  -3007124.08800  22994572.44700                  -2297368.94940  22994577.22940
   -243371.86200  21496621.30700                   -119984.28940  21496626.46340
  43789078.62800  24737768.40800                  13298404.07740  24737772.40440
   -467277.41500  21413880.13500                   -289813.83340  21413884.09640
  -1700109.93300  23355319.15800                  -1277383.62840  23355324.16240
 96  9  6  0 32  0.0020000  0  6  1 14 15 21 25 29
  30848045.36700  23911862.11100                  24120727.06540  23911867.99440
  -3024605.73500  22991245.54100                  -2310990.99140  22991250.67440
   -163960.84900  21511732.82200                    -58105.59140  21511738.13140
  43943964.03700  24767241.65000                  13419093.89940  24767248.47140
   -395602.18100  21427519.58000                   -233963.00240  21427523.43640
  -1699196.73200  23355492.82200                  -1276672.01540  23355497.97940
 96  9  6  0 32 30.0020000  0  6  1 14 15 21 25 29
  30986135.07900  23938140.04900                  24228329.42140  23938145.87340
  -3041978.52100  22987939.51000                  -2324528.21640  22987944.52540
    -83931.34200  21526961.83800                      4255.04740  21526967.24040
  44099017.62600  24796747.12700                  13539914.86140  24796755.73240
   -323413.27200  21441256.81400                   -177711.90640  21441260.58840
  -1698108.46400  23355700.30700                  -1275824.00240  23355705.19340
 96  9  6  0 33  0.0020000  0  6  1 14 15 21 25 29
  31124284.64600  23964428.63500                  24335978.40540  23964434.13140
  -3059218.56200  22984658.86900                  -2337962.00740  22984663.95540
     -3263.08300  21542312.47900                     67113.41840  21542317.84640
  44254262.43100  24826290.23600                  13660884.71940  24826296.72940
   -250695.94600  21455094.15800                   -121049.05640  21455098.01440
  -1696821.03800  23355945.09600                  -1274820.79840  23355949.98240
 96  9  6  0 33 30.0020000  0  6  1 14 15 21 25 29
  31262487.33800  23990727.78300                  24443668.77940  23990732.99840
  -3076308.62000  22981406.81400                  -2351278.91540  22981412.35740
     78046.34900  21557785.23600                    130471.40140  21557790.60440
  44409714.54000  24855869.56400                  13782016.22840  24855874.12340
   -177450.26000  21469032.40800                    -63974.49440  21469036.27540
  -1695340.47700  23356226.75200                  -1273667.08740  23356231.31140
 96  9  6  0 34  0.0020000  0  6  1 14 15 21 25 29
  31400715.33100  24017031.83800                  24551378.87940  24017037.31140
  -3093252.62600  22978182.71300                  -2364482.03240  22978188.05740
    159990.66300  21573378.60400                    194324.09940  21573384.13540
  44565384.26900  24885494.58000                  13903317.19340  24885502.40040
   -103679.67000  21483070.52500                     -6490.92240  21483074.42840
  -1693655.04700  23356547.04100                  -1272353.74740  23356551.50640
 96  9  6  0 34 30.0020000  0  6  1 14 15 21 25 29
  31538943.03000  24043335.68900                  24659088.73940  24043341.12740
  -3110055.36300  22974985.18200                  -2377575.05540  22974990.03340
    242560.03000  21589091.19700                    258663.85340  21589096.55340
  44721273.34000  24915158.22900                  14024789.11840  24915166.18940
    -29387.38200  21497207.97100                     51399.17340  21497211.85040
  -1691779.37900  23356904.55700                  -1270892.16940  23356909.30340
 96  9  6  0 35  0.0020000  0  6  1 14 15 21 25 29
  31677174.19400  24069640.47900                  24766801.31440  24069645.92840
  -3126728.80100  22971812.41600                  -2390567.33040  22971817.50240
    325750.74500  21604921.97900                    323487.77140  21604927.19340
  44877375.64900  24944864.50200                  14146427.13440  24944870.93640
     45428.47500  21511445.08800                    109697.24340  21511448.97940
  -1689738.97200  23357292.33800                  -1269302.21840  23357297.41240
 96  9  6  0 35 30.0020000  0  6  1 14 15 21 25 29
  31815420.23000  24095948.00200                  24874525.47640  24095952.99440
  -3143272.59800  22968664.21300                  -2403458.59040  22968669.34640
    409562.45800  21620870.69700                    388795.58540  21620876.11140
  45033686.02800  24974609.94700                  14268227.42440  24974616.48640
    120785.67500  21525785.11100                    168417.13540  21525788.99040
  -1687533.63200  23357712.33800                  -1267583.75640  23357716.87340
 96  9  6  0 36  0.0020000  0  6  1 14 15 21 25 29
  31953699.44400  24122260.84600                  24982275.48540  24122265.88540
  -3159691.92900  22965539.86900                  -2416252.85940  22965544.80340
    494005.40800  21636939.83000                    454595.27240  21636945.16240
  45190208.80000  25004393.54100                  14390193.09840  25004403.34240
    196700.75300  21540231.26800                    227571.74140  21540235.00640
  -1685143.68000  23358167.23600                  -1265721.43140  23358171.98240
 96  9  6  0 36 30.0020000  0  6  1 14 15 21 25 29
  32092024.83500  24148583.72100                  25090061.47340  24148589.26440
  -3176000.55400  22962435.90000                  -2428960.87140  22962440.65840
    579063.68300  21653125.92400                    520874.43440  21653131.18640
  45346915.50400  25034215.16600                  14512302.17940  25034219.81840
    273144.95800  21554778.04100                    287138.65440  21554781.82640
  -1682603.75000  23358650.45500                  -1263742.24740  23358655.07240
 96  9  6  0 37  0.0020000  0  6  1 14 15 21 25 29
  32230427.81800  24174921.16600                  25197907.93940  24174926.25240
  -3192175.54300  22959358.11900                  -2441564.74740  22959363.45140
    664754.05000  21669432.06400                    587646.13440  21669437.43240
  45503811.51900  25064070.03300                  14634558.72440  25064079.18940
    350121.20700  21569426.13500                    347120.14640  21569430.00240
  -1679899.42200  23359164.83800                  -1261634.95740  23359169.57240
 96  9  6  0 37 30.0020000  0  6  1 14 15 21 25 29
  32368909.60200  24201273.06400                  25305815.78440  24201278.25640
  -3208193.19600  22956310.08800                  -2454046.02540  22956315.09240
    751082.76400  21685859.88500                    654915.24840  21685865.38140
  45660905.43400  25093965.22100                  14756969.45540  25093971.26840
    427628.76500  21584175.35400                    407515.64540  21584179.17440
  -1677008.41700  23359715.16600                  -1259382.20340  23359719.70140
 96  9  6  0 38  0.0020000  0  6  1 14 15 21 25 29
  32507441.21500  24227634.99400                  25413762.48440  24227640.25640
  -3224068.00400  22953289.34600                  -2466415.98940  22953294.46740
    838027.94200  21702405.04100                    722664.72340  21702410.45540
  45818177.36800  25123893.58000                  14879519.02540  25123898.91240
    505630.86100  21599018.46300                    468296.49840  21599022.40040
  -1673949.54600  23360296.95500                  -1256998.63540  23360301.97140
 96  9  6  0 38 30.0030000  0  6  1 14 15 21 25 29
  32646016.33600  24254004.96800                  25521743.05640  24254010.01940
  -3239770.79000  22950301.08500                  -2478651.91540  22950306.30040
    925592.64300  21719068.06200                    790896.94440  21719073.42940
  45975630.58800  25153855.14000                  15002209.68540  25153860.85840
    584125.75300  21613955.81900                    529461.34440  21613959.73340
  -1670731.93300  23360909.35100                  -1254491.38240  23360914.30840
 96  9  6  0 39  0.0030000  0  6  1 14 15 21 25 29
  32784613.11000  24280378.95200                  25629740.53140  24280383.46440
  -3255289.59900  22947347.84300                  -2490744.48540  22947353.08140
   1013773.91500  21735848.33500                    859609.61140  21735853.81940
  46133263.18500  25183852.94400                  15125040.20240  25183857.70240
    663132.91900  21628990.33500                    591025.37140  21628994.13240
  -1667331.78100  23361556.22600                  -1251841.89340  23361560.87840
 96  9  6  0 39 30.0030000  0  6  1 14 15 21 25 29
  32923244.97400  24306759.75700                  25737765.32440  24306764.69040
  -3270622.96400  22944430.03800                  -2502692.54740  22944435.00740
   1102587.64900  21752749.17100                    928815.10540  21752754.55040
  46291101.28200  25213888.31200                  15248030.87040  25213893.05840
    742675.20200  21644126.60800                    653006.37240  21644130.52240
  -1663723.85300  23362243.09300                  -1249030.49940  23362247.66340
 96  9  6  0 40  0.0030000  0  6  1 14 15 21 25 29
  33061897.58200  24333144.06200                  25845806.29640  24333150.16740
  -3285796.05000  22941542.71800                  -2514515.72240  22941547.96840
   1192020.22400  21769767.61600                    998502.80740  21769772.93740
  46449129.69900  25243960.08500                  15371169.81140  25243967.31940
    822741.01800  21659362.67100                    715395.31340  21659366.50340
  -1659927.49200  23362965.52200                  -1246072.27240  23362970.30440
 96  9  6  0 40 30.0030000  0  6  1 14 15 21 25 29
  33200562.21800  24359531.25700                  25953856.59340  24359535.66340
  -3300824.10500  22938682.89000                  -2526225.87840  22938688.04640
   1282063.49700  21786902.42100                   1068666.37840  21786907.76540
  46607342.10600  25274066.14000                  15494452.17640  25274071.91740
    903330.59000  21674698.49100                    778192.38040  21674702.38240
  -1655951.21100  23363722.03800                  -1242973.84540  23363726.74940
 96  9  6  0 41  0.0030000  0  6  1 14 15 21 25 29
  33339226.06900  24385918.67900                  26061906.33340  24385924.33940
  -3315729.30000  22935846.51500                  -2537840.30840  22935851.81240
   1372716.68300  21804153.14700                   1139305.21140  21804158.38640
  46765745.33500  25304210.01500                  15617883.14940  25304216.72940
    984436.38100  21690132.28000                    841391.69740  21690136.08940
  -1651792.22300  23364513.21000                  -1239733.05240  23364517.45240
 96  9  6  0 41 30.0030000  0  6  1 14 15 21 25 29
  33477889.84300  24412305.02200                  26169955.99140  24412310.57740
  -3330510.97000  22933033.66300                  -2549358.48140  22933038.80840
   1463981.69900  21821520.21000                   1210420.79040  21821525.49540
  46924341.40400  25334390.03000                  15741464.49140  25334394.87040
   1066040.07000  21705661.01500                    904978.98140  21705664.69440
  -1647469.85700  23365336.09300                  -1236364.95540  23365340.83940
 96  9  6  0 42  0.0030000  0  6  1 14 15 21 25 29
  33616558.57800  24438693.15500                  26278009.53740  24438699.16740
  -3345146.63900  22930248.59300                  -2560762.88640  22930253.90140
   1555861.49300  21839004.42100                   1282015.42240  21839009.81240
  47083130.70300  25364606.30400                  15865196.40240  25364611.26140
   1148141.97700  21721284.61600                    968954.49040  21721288.44840
  -1642997.37400  23366186.91300                  -1232879.88040  23366191.70640
 96  9  6  0 42 30.0030000  0  6  1 14 15 21 25 29
  33755241.52500  24465083.19400                  26386074.12240  24465088.74940
  -3359620.46800  22927494.23300                  -2572041.18140  22927499.36640
   1648355.24400  21856605.22600                   1354088.45640  21856610.71040
  47242119.27400  25394861.02200                  15989083.48340  25394864.98340
   1230741.51000  21737002.67900                   1033317.75940  21737006.44040
  -1638370.02900  23367067.28800                  -1229274.13540  23367071.98740
 96  9  6  0 43  0.0030000  0  6  1 14 15 21 25 29
  33893953.22600  24491479.07700                  26494161.14540  24491484.89040
  -3373925.16300  22924772.27200                  -2583187.68940  22924777.49940
   1741460.48500  21874322.61600                   1426637.97740  21874327.85440
  47401296.55100  25425151.19400                  16113117.65540  25425156.03440
   1313834.93100  21752814.85100                   1098065.87840  21752818.56540
  -1633576.70400  23367979.27200                  -1225539.05240  23367983.73740
 96  9  6  0 43 30.0030000  0  5  1 14 15 25 29
  34032718.35700  24517884.83500                  26602289.77640  24517889.99140
  -3388052.60300  22922083.80400                  -2594196.07640  22922089.31240
   1835179.17600  21892156.73300                   1499665.51140  21892162.00740
   1397442.44800  21768724.76500                   1163214.59140  21768728.57340
  -1628608.77300  23368925.10100                  -1221667.91040  23368929.89440
 96  9  6  0 44  0.0030000  0  5  1 14 15 25 29
  34171532.30600  24544301.65500                  26710456.45040  24544307.53840
  -3402002.23600  22919429.22600                  -2605065.90740  22919434.20640
   1929501.98900  21910105.89000                   1573163.79340  21910111.31540
   1481565.00500  21784733.00700                   1228764.63040  21784736.74540
  -1623462.76000  23369904.05400                  -1217658.00640  23369909.02240
 96  9  6  0 44 30.0030000  0  5  1 14 15 25 29
  34310391.83400  24570725.36600                  26818658.63140  24570731.05040
  -3415779.50400  22916807.62400                  -2615801.43940  22916812.48740
   2024430.13500  21928170.15500                   1647133.75840  21928175.48740
   1566205.74100  21800839.32700                   1294718.45040  21800843.06540
  -1618119.41100  23370921.04600                  -1213494.33240  23370926.05040
 96  9  6  0 45  0.0030000  0  5  1 14 15 25 29
  34449287.79600  24597155.87400                  26926889.21940  24597160.78440
  -3429388.22500  22914217.72600                  -2626405.63140  22914222.70640
   2119966.06800  21946349.78800                   1721577.32640  21946355.03840
   1651373.44200  21817046.16300                   1361082.88840  21817049.96040
  -1612583.99900  23371974.15500                  -1209180.99940  23371979.03040
 96  9  6  0 45 30.0030000  0  5  1 14 15 25 29
  34588209.10300  24623592.07700                  27035139.54140  24623596.76540
  -3442816.70600  22911662.70200                  -2636869.37140  22911667.65940
   2216106.34400  21964645.02200                   1796491.81040  21964650.57740
   1737059.78400  21833351.92100                   1427851.46540  21833355.90540
  -1606883.16400  23373059.12400                  -1204738.77740  23373063.27240
 96  9  6  0 46  0.0030000  0  5  1 14 15 25 29
  34727145.33000  24650030.92900                  27143401.50740  24650035.64040
  -3456065.73400  22909141.47600                  -2647193.28340  22909146.73740
   2312842.51500  21983053.15500                   1871870.62840  21983058.73340
   1823240.69700  21849751.51500                   1495005.41740  21849755.46440
  -1601012.78500  23374176.21800                  -1200164.43240  23374180.49540
 96  9  6  0 46 30.0030000  0  5  1 14 15 25 29
  34866097.95400  24676472.10100                  27251676.24640  24676478.17140
  -3469140.38300  22906653.27200                  -2657381.31240  22906658.40540
   2410173.94400  22001574.61600                   1947713.28140  22001580.06540
   1909909.92800  21866243.98300                   1562539.88140  21866248.00340
  -1594966.83400  23375326.69400                  -1195453.28140  23375331.27640
 96  9  6  0 47  0.0030000  0  6  1 14 15 22 25 29
  35005083.34700  24702920.73300                  27359976.53040  24702925.66740
  -3482018.29400  22904202.65500                  -2667416.04740  22904207.68340
   2508108.34300  22020211.14000                   2024025.78140  22020216.61240
                  25531592.61600
   1997071.50500  21882830.47600                   1630457.98640  21882834.42540
  -1588746.79200  23376510.33500                  -1190606.46840  23376515.25740
 96  9  6  0 47 30.0030000  0  6  1 14 15 22 25 29
  35144101.85800  24729375.43700                  27468302.59940  24729380.95640
  -3494707.36500  22901788.03800                  -2677303.62740  22901793.24140
   2606629.68800  22038958.97600                   2100795.64540  22038964.40140
    -33118.32300  25525073.34300
   2084701.92800  21899505.88200                   1698741.42740  21899509.77240
  -1582351.34700  23377727.29600                  -1185622.98940  23377731.81940
 96  9  6  0 48  0.0030000  0  6  1 14 15 22 25 29
  35283153.68700  24755835.86600                  27576654.65540  24755841.05840
  -3507223.16800  22899406.67900                  -2687056.19540  22899412.01140
   2705741.22900  22057819.37400                   2178025.40040  22057824.65940
    -67459.70900  25518537.52200
   2172813.97700  21916273.08500                   1767400.16440  21916276.98740
  -1575762.33800  23378981.24900                  -1180488.66840  23378985.74940
 96  9  6  0 48 30.0030000  0  6  1 14 15 22 25 29
  35422223.00300  24782300.18700                  27685020.34140  24782305.87040
  -3519562.82900  22897058.32700                  -2696671.51340  22897063.63640
   2805435.48500  22076790.67900                   2255709.21840  22076796.06940
   -101873.51200  25511989.12400                    -10729.12950  25511994.18740
   2261413.69600  21933133.26500                   1836438.90040  21933137.10840
  -1569014.55600  23380264.89700                  -1175230.64340  23380269.42140
 96  9  6  0 49  0.0030000  0  6  1 14 15 22 25 29
  35561319.01500  24808769.35800                  27793406.81940  24808775.06540
  -3531718.42500  22894745.10100                  -2706143.40040  22894750.45640
   2905725.38400  22095874.99100                   2333857.17540  22095880.49940
   -136329.13300  25505433.08500                    -37577.57740  25505439.76540
   2350529.47700  21950091.08500                   1905879.76540  21950094.96440
  -1562099.04500  23381581.14000                  -1169841.91140  23381585.65140
 96  9  6  0 49 30.0030000  0  6  1 14 15 22 25 29
  35700427.45700  24835240.78000                  27901802.97940  24835245.72640
  -3543709.85400  22892463.14000                  -2715487.36740  22892468.44840
   3006604.49400  22115071.72600                   2412464.25540  22115077.19840
   -170813.51400  25498870.67900                    -64448.49440  25498876.42140
   2440160.59600  21967147.56900                   1975722.18940  21967151.35440
  -1555016.26700  23382928.77200                  -1164322.83540  23382933.16740
 96  9  6  0 50  0.0030000  0  6  1 14 15 22 25 29
  35839543.31600  24861713.52200                  28010204.92040  24861718.90140
  -3555526.29700  22890214.50700                  -2724694.97340  22890219.61640
   3108075.30300  22134380.98300                   2491532.40440  22134386.57340
   -205317.29800  25492304.60100                    -91334.46940  25492310.64740
   2530309.94600  21984302.40500                   2045968.43040  21984306.30840
  -1547784.70000  23384304.89000                  -1158687.82540  23384309.60140
 96  9  6  0 50 30.0030000  0  6  1 14 15 22 25 29
  35978659.30100  24888185.74900                  28118606.94140  24888191.04640
  -3567160.78400  22888000.74900                  -2733760.80440  22888005.98740
   3210128.26700  22153801.15500                   2571054.17240  22153806.52240
   -239850.09900  25485733.51500                   -118243.07740  25485739.37440
   2620964.66500  22001553.44400                   2116608.46740  22001557.13640
  -1540407.71300  23385708.80400                  -1152939.50240  23385713.36240
 96  9  6  0 51  0.0040000  0  6  1 14 15 22 25 29
  36117783.00300  24914660.85500                  28227015.01440  24914666.63340
  -3578626.39400  22885818.99600                  -2742695.04440  22885823.74240
   3312760.75500  22173331.58200                   2651027.52040  22173336.90240
   -274420.70200  25479154.12900                   -145181.16140  25479157.48040
   2712110.48400  22018897.62100                   2187631.17440  22018901.52340
  -1532866.60500  23387144.10500                  -1147063.29440  23387148.32440
 96  9  6  0 51 30.0040000  0  6  1 14 15 22 25 29
  36256921.90400  24941138.01200                  28335434.88740  24941143.21540
  -3589894.18000  22883674.48000                  -2751475.12340  22883679.77740
   3415976.36900  22192972.73800                   2731455.25540  22192978.28140
   -309033.12300  25472568.36300                   -172151.81640  25472574.78540
   2803735.92800  22036333.64500                   2259027.61540  22036337.60540
  -1525152.81400  23388611.94900                  -1141052.53940  23388616.05140
 96  9  6  0 52  0.0040000  0  6  1 14 15 22 25 29
  36396076.24500  24967618.10500                  28443866.81940  24967623.96540
  -3600949.04400  22881570.85500                  -2760089.29840  22881576.42240
   3519773.08200  22212724.48800                   2812335.79340  22212729.96140
   -343696.16600  25465971.92600                   -199161.88940  25465977.99640
   2895828.85300  22053858.07400                   2330788.32940  22053862.08240
  -1517265.22000  23390112.72300                  -1134906.35240  23390117.11740
 96  9  6  0 52 30.0040000  0  6  1 14 15 22 25 29
  36535231.02700  24994098.58200                  28552299.10040  24994103.99640
  -3611804.28500  22879505.42600                  -2768547.92240  22879510.77040
   3624136.76200  22232584.24600                   2893658.12340  22232589.82440
   -378412.50400  25459364.98000                   -226213.50040  25459370.80540
   2988371.29700  22071468.52700                   2402899.31440  22071472.48840
  -1509197.71800  23391648.06600                  -1128619.96740  23391652.68440
 96  9  6  0 53  0.0040000  0  6  1 14 15 22 25 29
  36674407.11700  25020582.95700                  28660747.96840  25020590.20340
  -3622440.64500  22877481.27700                  -2776835.99040  22877486.49240
   3729081.75100  22252554.77000                   2975433.41640  22252560.26640
   -413159.69500  25452753.01200                   -253289.19840  25452758.32040
   3081375.00000  22089166.57400                   2475369.72440  22089170.43040
  -1500948.58700  23393217.78500                  -1122192.05640  23393222.26240
 96  9  6  0 53 30.0040000  0  6  1 14 15 22 25 29
  36813594.61700  25047069.85500                  28769205.71140  25047075.19940
  -3632857.51900  22875499.03500                  -2784953.01940  22875504.14540
   3834592.00500  22272632.61300                   3057649.17740  22272638.06240
   -447934.38500  25446135.50400                   -280386.33540  25446142.65640
   3174831.18400  22106950.66800                   2548192.71840  22106954.54740
  -1492541.59300  23394817.48000                  -1115641.13840  23394822.13340
 96  9  6  0 54  0.0040000  0  6  1 14 15 22 25 29
  36952795.73000  25073558.65200                  28877674.10640  25073563.63340
  -3643055.82000  22873558.27000                  -2792899.74640  22873563.63740
   3940667.74500  22292818.26200                   3140305.58140  22292823.62940
   -482717.74700  25439516.28500                   -307490.14640  25439521.67640
   3268747.41100  22124822.36300                   2621374.18840  22124826.31240
  -1483967.43000  23396448.85500                  -1108959.95140  23396453.23840
 96  9  6  0 54 30.0040000  0  6  1 14 15 22 25 29
  37092027.27900  25100053.87900                  28986166.18240  25100059.35240
  -3653039.70100  22871658.34800                  -2800679.38440  22871663.64540
   4047314.96500  22313112.44900                   3223407.28940  22313117.91040
   -517507.30200  25432896.95700                   -334598.83340  25432903.67240
   3363153.09200  22142787.02700                   2694937.04840  22142790.90640
  -1475219.11200  23398113.68400                  -1102143.06340  23398118.37140
 96  9  6  0 55  0.0040000  0  6  1 14 15 22 25 29
  37231286.75500  25126553.88700                  29094680.02840  25126558.15240
  -3662814.49000  22869798.23800                  -2808296.09240  22869803.38340
   4154528.14100  22333514.41000                   3306949.99940  22333519.98840
   -552302.30100  25426275.59800                   -361711.75540  25426280.76640
   3458053.97200  22160846.04300                   2768885.78140  22160849.86340
  -1466311.09900  23399808.79300                  -1095201.73740  23399813.02340
 96  9  6  0 55 30.0040000  0  6  1 14 15 22 25 29
  37370566.60600  25153057.87900                  29203209.74340  25153063.73840
  -3672374.28400  22867979.10500                  -2815745.27440  22867984.42640
   4262307.48200  22354024.19100                   3390933.88740  22354029.65240
   -587104.00900  25419652.40200                   -388829.85940  25419657.60540
   3553448.37700  22178999.08200                   2843219.08140  22179002.87940
  -1457225.28000  23401537.83200                  -1088121.85640  23401542.13340
 96  9  6  0 56  0.0040000  0  6  1 14 15 22 25 29
  37509840.34100  25179560.15200                  29311734.70740  25179566.77340
  -3681734.05400  22866198.09000                  -2823038.60240  22866203.28140
   4370637.72400  22374638.67600                   3475347.04240  22374644.43040
   -621939.38500  25413022.40200                   -415974.27040  25413028.57840
   3649315.87900  22197241.94900                   2917921.02640  22197245.89840
  -1447976.74000  23403297.69900                  -1080915.18140  23403302.41040
 96  9  6  0 56 30.0040000  0  6  1 14 15 22 25 29
  37649132.95000  25206066.60500                  29420274.40340  25206071.71540
  -3690861.05500  22864461.09000                  -2830150.53940  22864466.37540
   4479541.12100  22395362.46500                   3560206.81540  22395368.13740
   -656770.69000  25406395.34000                   -443115.53540  25406400.29740
   3745675.04300  22215578.53500                   2993006.08440  22215582.48440
  -1438552.86100  23405090.78500                  -1073571.88340  23405095.13340
 96  9  6  0 57  0.0040000  0  6  1 14 15 22 25 29
  37788415.13200  25232571.75400                  29528805.92740  25232577.49640
  -3699764.44900  22862767.05100                  -2837088.24440  22862772.51240
   4588993.96700  22416190.51200                   3645494.72640  22416196.19540
   -691608.65600  25399765.41800                   -470261.91840  25399772.48840
   3842479.70600  22234000.12900                   3068438.28840  22234004.06640
  -1428973.78900  23406914.05100                  -1066107.65440  23406918.28140
 96  9  6  0 57 30.0040000  0  6  1 14 15 22 25 29
  37927696.35000  25259075.86300                  29637336.71440  25259081.62940
  -3708439.67000  22861116.02000                  -2843848.14840  22861121.24640
   4699001.54400  22437124.36300                   3731214.88740  22437129.97740
   -726456.96900  25393133.20700                   -497416.36340  25393140.50040
   3939722.84800  22252504.72300                   3144212.15740  22252508.62540
  -1419232.65100  23408767.79300                  -1058517.14040  23408772.29340
 96  9  6  0 58  0.0040000  0  6  1 14 15 22 25 29
  38066987.73200  25285582.98000                  29745875.40440  25285587.98440
  -3716891.52000  22859507.98800                  -2850434.00340  22859513.03940
   4809572.52200  22458165.56600                   3817374.07440  22458171.13340
   -761298.21800  25386503.77700                   -524565.31140  25386509.42640
   4037419.65500  22271095.86300                   3220339.53040  22271099.76640
  -1409326.76300  23410652.47300                  -1050798.25340  23410656.64540
 96  9  6  0 58 30.0040000  0  6  1 14 15 22 25 29
  38206272.92400  25312087.38700                  29854409.28740  25312092.27340
  -3725136.18200  22857938.87900                  -2856858.40740  22857943.91840
   4920690.79400  22479310.66800                   3903959.72140  22479316.08240
   -796143.38900  25379873.79300                   -551717.36240  25379879.77040
   4135554.75400  22289770.50400                   3296808.42940  22289774.47740
  -1399268.90400  23412566.78500                  -1042960.94740  23412571.25040
 96  9  6  0 59  0.0040000  0  6  1 14 15 22 25 29
  38345539.08500  25338588.80100                  29962928.36940  25338595.03540
  -3733189.60000  22856406.55100                  -2863133.79140  22856411.68440
   5032354.67100  22500559.58200                   3990970.51340  22500564.96140
   -831001.29500  25373240.07400                   -578879.32040  25373247.05140
   4234123.24900  22308527.43400                   3373615.04840  22308531.37140
  -1389054.09100  23414510.35500                  -1035001.33240  23414514.34040
 96  9  6  0 59 30.0040000  0  6  1 14 15 22 25 29
  38484796.27900  25365088.44100                  30071440.42940  25365093.55140
  -3741049.51700  22854910.56600                  -2869258.39740  22854915.66440
   5144570.60200  22521913.64500                   4078411.48540  22521919.29340
   -865864.36500  25366605.66000                   -606045.25140  25366612.03540
   4333145.87400  22327370.37900                   3450775.52640  22327374.38740
  -1378688.35700  23416482.80100                  -1026924.12640  23416486.94940
 96  9  6  1  0  0.0040000  0  6  1 14 15 22 25 29
  38624028.21500  25391583.79300                  30179932.77640  25391588.59840
  -3748717.51900  22853451.32400                  -2875233.45940  22853456.44540
   5257327.90900  22543370.54300                   4166274.29440  22543375.86340
   -900732.96800  25359970.50400                   -633215.52040  25359976.90240
   4432627.46400  22346301.42600                   3528293.63940  22346305.19940
  -1368173.06900  23418483.63700                  -1018730.37840  23418487.75040
 96  9  6  1  0 30.0040000  0  6  1 14 15 22 25 29
  38763258.27400  25418078.40200                  30288423.73140  25418083.74640
  -3756176.56400  22852031.94100                  -2881045.70140  22852037.19140
   5370626.83900  22564930.50400                   4254559.15840  22564936.02340
   -935606.04600  25353334.34000                   -660389.30140  25353339.53140
   4532581.86800  22365322.16000                   3606180.18540  22365326.14540
  -1357497.86900  23420515.09000                  -1010412.03240  23420519.44940
 96  9  6  1  1  0.0040000  0  6  1 14 15 22 25 29
  38902508.51200  25444576.99600                  30396930.37240  25444581.30940
  -3763422.78400  22850653.04300                  -2886692.10440  22850658.02340
   5484464.73500  22586593.39500                   4343263.98640  22586598.97340
   -970484.05200  25346697.29300                   -687566.89840  25346703.55140
   4633019.58600  22384434.70700                   3684443.33440  22384438.75040
  -1346657.77700  23422577.80900                  -1001965.19340  23422582.49640
 96  9  6  1  1 30.0040000  0  6  1 14 15 22 25 29
  39041790.27900  25471081.62900                  30505461.60440  25471086.27040
  -3770453.72600  22849315.31600                  -2892170.75140  22849320.52040
   5598830.33100  22608356.16800                   4432380.01640  22608361.68740
  -1005377.79700  25340056.67600                   -714756.77740  25340063.39140
   4733934.08600  22403638.02000                   3763077.99640  22403642.06240
  -1335660.77900  23424670.69900                   -993396.10140  23424675.09440
 96  9  6  1  2  0.0040000  0  6  1 14 15 22 25 29
  39181123.92400  25497595.02000                  30614033.25040  25497600.83240
  -3777242.15900  22848023.26200                  -2897460.43540  22848028.59440
   5713735.38900  22630221.98800                   4521916.40640  22630227.46140
  -1040269.18200  25333417.55100                   -741944.80940  25333422.87140
   4835319.22000  22422931.06600                   3842079.39440  22422934.91040
  -1324479.24600  23426798.20700                   -984683.20640  23426803.07040
 96  9  6  1  2 30.0040000  0  6  1 14 15 22 25 29
  39320521.41700  25524121.94900                  30722654.62940  25524127.62140
  -3783771.97100  22846780.82400                  -2902548.60040  22846785.87540
   5829179.99200  22652190.30100                   4611873.21640  22652195.87940
  -1075151.15800  25326779.12900                   -769125.51140  25326784.97740
   4937158.91100  22442310.23800                   3921434.99040  22442314.21140
  -1313128.06200  23428958.66000                   -975838.11640  23428963.09040
 96  9  6  1  3  0.0040000  0  6  1 14 15 22 25 29
  39459946.88200  25550653.85500                  30831297.83340  25550658.28540
  -3790046.60100  22845586.77700                  -2907437.91440  22845591.74640
   5945156.89300  22674260.05100                   4702244.80340  22674265.67640
  -1110015.40200  25320145.55900                   -796292.38240  25320150.93740
   5039415.96800  22461769.27000                   4001115.80340  22461773.39540
  -1301625.20100  23431147.54300                   -966874.83340  23431152.11340
 96  9  6  1  3 30.0040000  0  6  1 14 15 22 25 29
  39599367.58000  25577184.97300                  30939937.29940  25577191.27740
  -3796070.26600  22844440.75400                  -2912131.67440  22844445.85240
   6061654.03100  22696428.74600                   4793021.77440  22696434.61740
  -1144854.21600  25313515.61300                   -823439.50040  25313520.30140
   5142074.65200  22481304.67600                   4081109.57840  22481308.52040
  -1289987.71700  23433362.06600                   -957806.65740  23433366.32040
 96  9  6  1  4  0.0050000  0  6  1 14 15 22 25 29
  39738786.79200  25603714.83700                  31048575.61840  25603720.47440
  -3801821.31600  22843345.93800                  -2916613.00940  22843351.11840
   6178679.37000  22718697.82900                   4884210.32840  22718703.70040
  -1179656.66100  25306892.93100                   -850558.25940  25306900.98540
   5245154.28100  22500920.17300                   4161431.35540  22500924.06340
  -1278207.18100  23435603.62600                   -948627.00440  23435607.93840
 96  9  6  1  4 30.0050000  0  6  1 14 15 22 25 29
  39878172.17500  25630239.00100                  31157187.60340  25630244.38040
  -3807320.74200  22842299.45400                  -2920898.26840  22842304.68140
   6296213.45400  22741063.82900                   4975795.30540  22741069.51340
  -1214427.83500  25300275.27400                   -877652.58640  25300282.10640
   5348656.14200  22520615.81300                   4242082.15440  22520619.69240
  -1266300.64300  23437869.42300                   -939349.16640  23437873.84140
 96  9  6  1  5  0.0050000  0  6  1 14 15 22 25 29
  40017545.42600  25656761.92300                  31265790.07540  25656767.97040
  -3812568.06800  22841301.02400                  -2924987.08540  22841306.18140
   6414277.71000  22763530.89200                   5067793.40340  22763536.54040
  -1249138.67300  25293671.13400                   -904699.95340  25293676.41940
   5452610.06300  22540397.68800                   4323085.20040  22540401.80240
  -1254228.96600  23440166.50900                   -929942.64540  23440171.04440
 96  9  6  1  5 30.0050000  0  6  1 14 15 22 25 29
  40156898.92900  25683278.79000                  31374377.17840  25683282.86840
  -3817571.70900  22840348.88400                  -2928886.02840  22840354.18140
   6532851.13400  22786094.53200                   5160188.25540  22786100.16940
  -1283817.66500  25287071.43100                   -931722.54140  25287077.89940
   5557008.76500  22560264.09500                   4404434.82940  22560268.09140
  -1242002.35400  23442493.19600                   -920415.40640  23442497.15740
 96  9  6  1  6  0.0050000  0  6  1 14 15 22 25 29
  40296245.64700  25709796.19600                  31482959.00340  25709802.38440
  -3822327.78300  22839443.72800                  -2932592.05040  22839449.09540
   6651943.39200  22808757.19600                   5252987.39540  22808763.16140
  -1318455.76700  25280479.39900                   -958713.17540  25280488.25140
   5661850.79500  22580214.83700                   4486129.91240  22580218.91540
  -1229594.97700  23444854.12600                   -910747.30540  23444858.56740
 96  9  6  1  6 30.0050000  0  6  1 14 15 22 25 29
  40435568.54500  25736308.34500                  31591522.26340  25736313.34940
  -3826854.04700  22838582.49300                  -2936119.00640  22838587.63840
   6771548.04900  22831517.28200                   5346185.80840  22831523.14240
  -1353052.26700  25273896.12600                   -985671.45040  25273902.20840
   5767108.67200  22600244.79000                   4568149.02340  22600248.96240
  -1217004.61900  23447250.11800                   -900936.62640  23447254.50140
 96  9  6  1  7  0.0050000  0  6  1 14 15 22 25 29
  40574868.01700  25762817.33700                  31700067.26840  25762822.78640
  -3831143.55700  22837766.10300                  -2939461.47840  22837771.24740
   6891661.90100  22854374.04800                   5439780.99340  22854379.72040
  -1387605.34900  25267320.96200                  -1012595.87040  25267326.71640
   5872772.02200  22620351.75100                   4650484.09640  22620355.75940
  -1204225.04100  23449682.11000                   -890978.50240  23449686.38840
 96  9  6  1  7 30.0050000  0  6  1 14 15 22 25 29
  40714143.61600  25789319.43800                  31808593.68540  25789325.07540
  -3835185.23300  22836997.03200                  -2942610.82840  22837001.88440
   7012286.79100  22877328.07100                   5533774.38540  22877333.70840
  -1422109.48800  25260755.31300                  -1039482.21440  25260761.19640
   5978851.51900  22640538.06300                   4733143.43640  22640541.93140
  -1191261.36700  23452148.95400                   -880876.92640  23452153.00940
 96  9  6  1  8  0.0050000  0  6  1 14 15 22 25 29
  40853398.44500  25815819.27400                  31917103.91640  25815824.74740
  -3838985.52200  22836273.91500                  -2945572.08940  22836278.93140
   7133422.77500  22900379.61000                   5628166.03840  22900385.20040
  -1456549.03300  25254202.46200                  -1066318.13040  25254209.08340
   6085356.47300  22660805.04800                   4816134.29740  22660808.99740
  -1178120.56400  23454649.51700                   -870637.32740  23454653.87640
 96  9  6  1  8 30.0050000  0  6  1 14 15 22 25 29
  40992638.16000  25842316.04000                  32025602.34640  25842322.26340
  -3842535.98800  22835598.25100                  -2948338.68340  22835603.26740
   7255063.67000  22923527.46200                   5722951.12440  22923533.07540
  -1490923.54700  25247660.29800                  -1093103.46040  25247665.16140
   6192295.73400  22681155.19600                   4899463.58640  22681159.22840
  -1164825.93600  23457179.33700                   -860277.86840  23457183.82540
 96  9  6  1  9  0.0050000  0  6  1 14 15 22 25 29
  41131867.16400  25868809.70400                  32134092.44440  25868815.11840
  -3845847.47800  22834968.18100                  -2950919.06140  22834973.19640
   7377191.39000  22946767.18800                   5818115.56140  22946773.00140
  -1525231.42000  25241131.73500                  -1119836.83140  25241137.31340
   6299672.10000  22701588.22000                   4983133.46740  22701592.06340
  -1151402.57000  23459733.68100                   -849818.09440  23459738.20440
 96  9  6  1  9 30.0050000  0  6  1 14 15 22 25 29
  41271106.95100  25895306.69600                  32242590.94940  25895313.31740
  -3848899.55000  22834387.26700                  -2953297.29340  22834392.45840
   7499816.07400  22970102.15700                   5913667.23840  22970107.88840
  -1559459.03100  25234618.53200                  -1146507.65040  25234624.33340
   6407492.39400  22722105.68800                   5067149.27640  22722109.64940
  -1137838.32000  23462314.97000                   -839248.53740  23462319.21240
 96  9  6  1 10  0.0050000  0  6  1 14 15 22 25 29
  41410363.48400  25921806.28200                  32351102.54240  25921810.63040
  -3851680.81800  22833858.12600                  -2955464.51240  22833863.21240
   7622937.62700  22993531.46200                   6009606.08140  22993537.25140
  -1593613.73800  25228118.36800                  -1173121.67440  25228124.52040
   6515743.06600  22742705.19600                   5151500.44040  22742709.06340
  -1124119.28900  23464925.52400                   -828558.36940  23464929.56740
 96  9  6  1 10 30.0050000  0  6  1 14 15 22 25 29
  41549647.09300  25948310.75900                  32459635.20440  25948316.22040
  -3854187.10400  22833381.21200                  -2957417.45640  22833386.12240
   7746551.49500  23017054.31300                   6105928.55340  23017059.95040
  -1627693.77500  25221633.46200                  -1199677.49840  25221640.34540
   6624404.28800  22763382.79800                   5236171.51740  22763386.81740
  -1110239.16800  23467566.75900                   -817742.67040  23467570.97840
 96  9  6  1 11  0.0050000  0  6  1 14 15 22 25 29
  41688943.33800  25974818.59500                  32568177.69640  25974824.78240
  -3856426.93100  22832954.96200                  -2959162.76840  22832959.93140
   7870647.40000  23040668.93800                   6202626.64340  23040674.64540
  -1661707.43900  25215161.15700                  -1226181.59540  25215167.01740
   6733446.68500  22784132.75100                   5321139.60840  22784136.64240
  -1096195.24300  23470239.28200                   -806799.34740  23470243.60640
 96  9  6  1 11 30.0050000  0  6  1 14 15 22 25 29
  41828232.99000  26001324.32100                  32676715.06340  26001330.29840
  -3858390.18200  22832581.63400                  -2960692.57240  22832586.79040
   7995218.52300  23064374.16500                   6299695.02040  23064379.60340
  -1695675.64900  25208695.98500                  -1252650.27540  25208701.97440
   6842855.48800  22804952.74300                   5406393.21540  22804956.77440
  -1081998.30500  23472940.97800                   -795736.78840  23472945.56040
 96  9  6  1 12  0.0050000  0  6  1 14 15 22 25 29
  41967527.14900  26027830.78200                  32785255.97240  26027837.13440
  -3860057.36800  22832264.00100                  -2961991.67340  22832269.14540
   8120276.77300  23088171.87600                   6397142.97540  23088177.39540
  -1729569.14100  25202247.57100                  -1279060.76740  25202253.64240
   6952645.77200  22825844.97000                   5491944.07340  22825849.08340
  -1067647.89500  23475671.33700                   -784554.63740  23475675.77840
 96  9  6  1 12 30.0050000  0  6  1 14 15 22 25 29
  42106819.79900  26054337.63400                  32893795.66040  26054343.57540
  -3861426.91200  22832003.41500                  -2963058.84640  22832008.51340
   8245819.48100  23112061.77400                   6494968.44040  23112067.54040
  -1763374.53700  25195814.03200                  -1305402.60240  25195819.93840
   7062825.19800  22846811.56300                   5577798.16140  22846815.79440
  -1053159.89600  23478428.52400                   -773265.26940  23478433.01340
 96  9  6  1 13  0.0050000  0  6  1 14 15 22 25 29
  42246098.48500  26080841.56300                  33002324.49540  26080847.99740
  -3862500.78800  22831799.15700                  -2963895.61940  22831804.19640
   8371845.32800  23136043.83700                   6593170.36940  23136049.52040
  -1797098.05100  25189396.43800                  -1331680.61440  25189402.59140
   7173419.42300  22867856.93100                   5663975.46540  22867861.12640
  -1038538.72500  23481211.00900                   -761872.14540  23481215.20440
 96  9  6  1 13 30.0050000  0  6  1 14 15 22 25 29
  42385354.26300  26107341.05600                  33110835.43340  26107347.24340
  -3863293.32200  22831648.33700                  -2964513.17040  22831653.45840
   8498342.61500  23160115.38400                   6691739.66140  23160121.14940
  -1830739.39300  25182995.59500                  -1357894.60040  25183001.89940
   7284434.53900  22888982.21200                   5750480.74540  22888986.33740
  -1023794.64200  23484016.59500                   -750383.24040  23484020.90740
 96  9  6  1 14  0.0050000  0  6  1 14 15 22 25 29
  42524595.82800  26133836.94600                  33219335.32640  26133843.63840
  -3863826.68500  22831546.60300                  -2964928.77040  22831551.54840
   8625305.62900  23184275.79800                   6790671.84740  23184281.36440
  -1864284.13600  25176611.23500                  -1384033.34440  25176617.16540
   7395867.64400  22910187.31300                   5837311.72440  22910191.36840
  -1008910.66600  23486848.92300                   -738785.32940  23486853.20040
 96  9  6  1 14 30.0050000  0  6  1 14 15 22 25 29
  42663829.46700  26160334.12600                  33327829.07340  26160340.37240
  -3864098.42200  22831494.82900                  -2965140.50840  22831499.93840
   8752742.52700  23208526.11000                   6889973.30540  23208531.71240
  -1897731.37800  25170246.54000                  -1410096.08240  25170252.36440
   7507733.09600  22931474.57100                   5924479.59840  22931478.75540
   -993861.90400  23489712.60300                   -727059.00840  23489717.05640
 96  9  6  1 15  0.0050000  0  6  1 14 15 22 25 29
  42803058.37800  26186827.96200                  33436319.06140  26186833.37640
  -3864109.91600  22831492.69600                  -2965149.45840  22831498.02840
   8880643.01700  23232865.09500                   6989635.99640  23232870.76740
  -1931083.48300  25163900.12600                  -1436084.68340  25163906.99740
   7620012.71100  22952840.92300                   6011970.19640  22952845.04840
   -978638.71500  23492609.36800                   -715196.76940  23492613.72840
 96  9  6  1 15 30.0050000  0  6  1 14 15 22 25 29
  42942293.63700  26213322.65700                  33544814.02140  26213328.35340
  -3863843.19200  22831543.54000                  -2964941.61440  22831548.70840
   9009011.21000  23257292.49300                   7089663.13740  23257298.04840
  -1964326.32600  25157573.97800                  -1461988.14940  25157579.27440
   7732689.50100  22974282.54000                   6099770.28640  22974286.43140
   -963224.60500  23495542.73500                   -703185.76440  23495547.00140
 96  9  6  1 16  0.0050000  0  6  1 14 15 22 25 29
  43081518.48400  26239816.94600                  33653300.89340  26239821.50540
  -3863302.64900  22831646.60300                  -2964520.40440  22831651.44240
   9137831.91000  23281806.29000                   7190042.87340  23281812.17340
  -1997489.70100  25151263.18800                  -1487829.70640  25151268.54440
   7845747.33600  22995796.82900                   6187867.29440  22995800.84940
   -947637.32700  23498508.79000                   -691039.82540  23498513.04440
 96  9  6  1 16 30.0060000  0  6  1 14 15 22 25 29
  43220742.49700  26266310.40400                  33761787.09840  26266316.26440
  -3862464.54700  22831805.84200                  -2963867.33340  22831810.88140
   9267113.40200  23306407.90400                   7290781.66840  23306413.42440
  -2030576.70800  25144966.89600                  -1513611.73440  25144973.70540
   7959194.62400  23017385.13900                   6276267.76840  23017389.00640
   -931887.04900  23501506.17800                   -678766.87340  23501510.52540
 96  9  6  1 17  0.0060000  0  6  1 14 15 22 25 29
  43359950.68900  26292800.85700                  33870260.98840  26292806.37740
  -3861333.62400  22832021.13900                  -2962986.08340  22832026.29540
   9396841.67500  23331094.24000                   7391868.61240  23331099.94740
  -2063575.75600  25138687.35700                  -1539325.24040  25138692.45540
   8073011.85400  23039043.56800                   6364956.51540  23039047.61140
   -915991.09800  23504530.74800                   -666380.39840  23504535.14340
 96  9  6  1 17 30.0060000  0  6  1 14 15 22 25 29
  43499140.18600  26319287.11500                  33978720.31840  26319293.53740
  -3859912.47500  22832291.71700                  -2961878.68940  22832296.81440
   9527020.70800  23355866.70100                   7493306.78540  23355872.53740
  -2096488.09600  25132424.73200                  -1564971.20440  25132430.47540
   8187206.31700  23060774.17000                   6453939.20740  23060778.11940
   -899966.02200  23507580.27900                   -653893.30840  23507584.73240
 96  9  6  1 18  0.0060000  0  6  1 14 15 22 25 29
  43638309.38200  26345770.35700                  34087163.73140  26345775.71340
  -3858197.93700  22832617.96700                  -2960542.68340  22832622.91240
   9657649.30400  23380724.54500                   7595095.27140  23380730.46340
  -2129302.58800  25126180.24000                  -1590540.86940  25126185.74840
   8301780.39600  23082576.81800                   6543217.69840  23082580.95540
   -883819.52300  23510652.85000                   -641311.60740  23510657.10340
 96  9  6  1 18 30.0060000  0  6  1 14 15 22 25 29
  43777466.78800  26372251.32600                  34195598.11140  26372257.46740
  -3856180.81000  22833001.65400                  -2958970.89340  22833006.69340
   9788727.75600  23405667.86500                   7697234.29940  23405673.30340
  -2161987.90900  25119959.95900                  -1616009.92940  25119965.18640
   8416733.90700  23104451.65400                   6632791.85540  23104455.66240
   -867543.65600  23513750.20900                   -628629.09640  23513754.26440
 96  9  6  1 19  0.0060000  0  6  1 14 15 22 25 29
  43916606.14600  26398728.99800                  34304018.36940  26398735.61940
  -3853866.46600  22833441.97500                  -2957167.50140  22833446.99040
   9920252.83600  23430696.06800                   7799721.34540  23430701.88140
  -2194545.49600  25113764.75600                  -1641379.47140  25113770.19340
   8532063.44400  23126398.26400                   6722659.01640  23126402.60040
   -851130.18900  23516873.35000                   -615839.36240  23516877.82640
 96  9  6  1 19 30.0060000  0  6  1 14 15 22 25 29
  44055735.38900  26425204.27900                  34412430.72340  26425210.99440
  -3851244.06400  22833941.23200                  -2955124.06840  22833946.35340
  10052221.55200  23455808.92000                   7902554.08540  23455814.74440
  -2226977.23200  25107592.88100                  -1666650.89940  25107599.20940
   8647776.39500  23148417.67000                   6812824.94340  23148421.88940
   -834570.82100  23520024.40400                   -602935.94940  23520028.67040
 96  9  6  1 20  0.0060000  0  6  1 14 15 22 25 29
  44194858.09500  26451677.99800                  34520838.07640  26451684.13940
  -3848299.74400  22834501.16200                  -2952829.79040  22834506.24840
  10184635.18600  23481006.43600                   8005733.50740  23481012.20140
  -2259268.12200  25101448.49000                  -1691812.61340  25101454.84240
   8763881.70200  23170511.71700                   6903296.60340  23170515.87740
   -817850.26600  23523206.24000                   -589906.92140  23523210.44740
 96  9  6  1 20 30.0060000  0  6  1 14 15 22 25 29
  44333962.31300  26478148.88900                  34629230.90540  26478153.77540
  -3845058.21200  22835118.16200                  -2950303.92140  22835123.33040
  10317475.11700  23506285.15400                   8109245.11440  23506291.03740
  -2291435.36700  25095326.97500                  -1716877.96440  25095332.77540
   8880358.49600  23192676.78700                   6994057.73440  23192680.99440
   -800979.77600  23526416.56100                   -576761.07240  23526420.53340
 96  9  6  1 21  0.0060000  0  6  1 14 15 22 25 29
  44473051.33600  26504616.10700                  34737611.94640  26504622.88140
  -3841521.53600  22835791.23200                  -2947548.06740  22835796.31840
  10450743.12100  23531645.34200                   8213090.28240  23531651.07240
  -2323476.28800  25089229.70100                  -1741844.86340  25089234.98640
   8997203.77800  23214911.72500                   7085106.00040  23214915.58040
   -783954.03600  23529656.61500                   -563494.24640  23529660.74040
 96  9  6  1 21 30.0060000  0  6  1 14 15 22 25 29
  44612119.80900  26531080.65400                  34845977.14440  26531087.77140
  -3837682.18100  22836522.06800                  -2944556.36040  22836527.00240
  10584432.01600  23557085.41200                   8317263.42040  23557091.06140
  -2355371.70000  25083160.10000                  -1766698.39740  25083166.35740
   9114411.13800  23237215.59200                   7176436.40540  23237219.35340
   -766779.24900  23532924.78700                   -550111.27840  23532929.28740
 96  9  6  1 22  0.0060000  0  5 14 15 22 25 29
  -3833547.90800  22837308.58400                  -2941334.84740  22837313.54140
  10718539.91200  23582605.26400                   8421763.05340  23582611.06440
  -2387114.58900  25077119.49800                  -1791433.07140  25077125.13540
   9231964.89600  23259585.00600                   7268036.72740  23259588.95540
   -749446.24300  23536223.06100                   -536605.03040  23536227.51440
 96  9  6  1 22 30.0060000  0  5 14 15 22 25 29
  -3829114.02200  22838152.31800                  -2937879.87140  22838157.33440
  10853071.36700  23608205.93600                   8526592.72640  23608211.59640
  -2418700.60800  25071109.15400                  -1816045.52040  25071114.97840
   9349863.25900  23282020.38100                   7359905.57840  23282024.28340
   -731947.99700  23539552.81100                   -522970.02040  23539557.17040
 96  9  6  1 23  0.0060000  0  5 14 15 22 25 29
  -3824368.06500  22839055.18600                  -2934181.71940  22839060.26040
  10988016.80500  23633885.14600                   8631744.98940  23633891.12340
  -2450131.89900  25065128.16200                  -1840537.41740  25065134.15040
   9468103.73600  23304520.69300                   7452041.00540  23304524.59640
   -714293.02100  23542912.40400                   -509212.87840  23542916.72840
 96  9  6  1 23 30.0060000  0  5 14 15 22 25 29
  -3819295.93800  22840020.39600                  -2930229.41440  22840025.45940
  11123376.81200  23659643.36500                   8737220.29340  23659648.96740
  -2481410.17000  25059175.57600                  -1864910.05040  25059180.93240
   9586683.67500  23327085.91200                   7544440.95440  23327089.77940
   -696486.16200  23546301.11500                   -495337.38940  23546305.62740
 96  9  6  1 24  0.0060000  0  5 14 15 22 25 29
  -3813899.70100  22841047.44300                  -2926024.55040  22841052.71740
  11259152.09700  23685480.56100                   8843019.18940  23685486.23240
  -2512543.38700  25053252.09200                  -1889169.68540  25053258.45540
   9705596.72300  23349714.27100                   7637100.46140  23349718.24440
   -678516.43300  23549720.55300                   -481334.99640  23549724.84240
 96  9  6  1 24 30.0060000  0  5 14 15 22 25 29
  -3808155.23400  22842140.54500                  -2921548.34340  22842145.66640
  11395341.61500  23711396.67800                   8949140.85940  23711402.47840
  -2543526.41400  25047355.44300                  -1913312.26640  25047361.47840
   9824859.42000  23372409.40400                   7730032.42640  23372413.08440
   -660394.52900  23553169.02100                   -467214.02140  23553173.14640
 96  9  6  1 25  0.0060000  0  4 14 15 25 29
  -3802077.81500  22843297.01400                  -2916812.68940  22843302.32240
  11531933.08900  23737388.93600                   9055575.74440  23737394.79540
   9944466.15700  23395169.83400                   7823232.47340  23395173.86540
   -642127.95600  23556645.22500                   -452980.31340  23556649.71340
 96  9  6  1 25 30.0060000  0  4 14 15 25 29
  -3795670.99600  22844516.42800                  -2911820.36140  22844521.47840
  11668931.53300  23763458.99000                   9162327.75540  23763464.72140
  10064428.73900  23417997.74000                   7916709.80140  23418001.64340
   -623698.43700  23560152.10700                   -438619.64040  23560156.30340
 96  9  6  1 26  0.0060000  0  4 14 15 25 29
  -3788947.64400  22845795.54500                  -2906581.38440  22845800.64340
  11806324.28400  23789603.88100                   9269387.00840  23789609.72840
  10184749.48700  23440894.16200                   8010466.22440  23440898.25240
   -605111.45400  23563689.03700                   -424136.26340  23563693.38540
 96  9  6  1 26 30.0060000  0  4 14 15 25 29
  -3781899.33600  22847136.91200                  -2901089.19640  22847141.97540
  11944120.62400  23815825.74000                   9376760.75040  23815831.58840
  10305450.49000  23463862.74000                   8104518.93940  23463866.73640
   -586367.22400  23567256.06800                   -409530.35940  23567260.40440
 96  9  6  1 27  0.0060000  0  4 14 15 25 29
  -3774542.98900  22848536.64600                  -2895356.97240  22848541.75640
  12082313.40100  23842122.98200                   9484443.40640  23842128.85340
  10426503.92200  23486898.33400                   8198846.28440  23486902.41240
   -567468.54200  23570852.10700                   -394804.10440  23570856.53740
 96  9  6  1 27 30.0060000  0  4 14 15 25 29
  -3766858.11100  22849999.14600                  -2889368.75740  22850004.33840
  12220898.82400  23868494.81100                   9592432.01440  23868500.76440
  10547906.80000  23510000.52100                   8293445.91740  23510004.65840
   -548422.45000  23574476.61500                   -379962.99240  23574480.88140
 96  9  6  1 28  0.0060000  0  4 14 15 25 29
  -3758843.91300  22851524.17800                  -2883123.92140  22851529.25240
  12359861.23300  23894938.72500                   9700714.38240  23894944.72540
  10669630.87900  23533164.04500                   8388295.83740  23533168.20540
   -529251.33200  23578124.55300                   -365024.44840  23578128.86540
 96  9  6  1 28 30.0060000  0  4 14 15 25 29
  -3750474.17100  22853117.03700                  -2876602.04540  22853122.05340
  12499215.62600  23921456.63100                   9809302.18540  23921462.58440
  10791685.86200  23556390.27100                   8483403.60640  23556394.54940
   -509938.32000  23581799.91200                   -349975.34440  23581804.09640
 96  9  6  1 29  0.0060000  0  4 14 15 25 29
  -3741740.99500  22854778.85700                  -2869796.96540  22854783.94340
  12638949.98500  23948047.56800                   9918186.07140  23948053.47540
  10914060.69300  23579677.42000                   8578760.60740  23579681.75640
   -490492.55900  23585500.21700                   -334822.79440  23585504.62340
 96  9  6  1 29 30.0070000  0  4 14 15 25 29
  -3732640.01700  22856510.65100                  -2862705.28840  22856515.78440
  12779069.72900  23974711.22900                  10027370.25740  23974716.89040
  11036772.29800  23603028.69000                   8674380.02940  23603032.62840
   -470913.08600  23589226.05000                   -319566.05540  23589230.39740
 96  9  6  1 30  0.0070000  0  4 14 15 25 29
  -3723182.32700  22858310.37000                  -2855335.66240  22858315.42140
  12919566.46400  24001447.06500                  10136848.19240  24001452.97240
  11159816.06000  23626442.96400                   8770258.27840  23626447.30040
   -451196.50900  23592978.22900                   -304202.48240  23592982.31940
 96  9  6  1 30 30.0070000  0  4 14 15 25 29
  -3713383.17900  22860175.13600                  -2847699.95940  22860180.24540
  13060435.74900  24028253.83900                  10246616.43740  24028259.64040
  11283192.71000  23649920.82300                   8866395.91640  23649924.89040
   -431345.37300  23596755.66700                   -288734.05440  23596759.94440
 96  9  6  1 31  0.0070000  0  4 14 15 25 29
  -3703256.19000  22862102.12000                  -2839808.79640  22862107.17140
  13201666.17200  24055128.73700                  10356666.07640  24055134.71440
  11406890.29500  23673459.86200                   8962783.63940  23673464.02240
   -411351.87900  23600560.19000                   -273154.69940  23600564.60840
 96  9  6  1 31 30.0070000  0  4 14 15 25 29
  -3692810.81900  22864089.91700                  -2831669.54340  22864094.92140
  13343253.04500  24082072.27600                  10466993.47840  24082078.17140
  11530902.02100  23697058.29200                   9059416.14740  23697062.33540
   -391202.63300  23604394.63600                   -257453.97940  23604399.20640
 96  9  6  1 32  0.0070000  0  4 14 15 25 29
  -3682036.00300  22866140.08100                  -2823273.58340  22866145.13240
  13485199.57100  24109083.66700                  10577601.12940  24109089.45640
  11655231.16800  23720717.35400                   9156295.99140  23720721.70240
   -370877.87000  23608262.14400                   -241616.50140  23608266.23340
 96  9  6  1 32 30.0070000  0  4 14 15 25 29
  -3670927.16500  22868254.30000                  -2814617.34140  22868259.38640
  13627501.84400  24136163.05000                  10688485.97240  24136168.74540
  11779866.43900  23744434.80000                   9253414.37640  23744438.80840
   -350379.12800  23612162.83100                   -225643.44040  23612167.01540
 96  9  6  1 33  0.0070000  0  4 14 15 25 29
  -3659488.94400  22870430.82300                  -2805704.43740  22870435.87440
  13770146.92900  24163307.80000                  10799637.95540  24163313.39040
  11904801.06800  23768209.38600                   9350766.02240  23768213.40540
   -329720.60600  23616094.01100                   -209545.89040  23616098.37040
 96  9  6  1 33 30.0070000  0  4 14 15 25 29
  -3647719.39600  22872670.56500                  -2796533.35940  22872675.55840
  13913122.19100  24190514.90900                  10911047.21440  24190520.68640
  12030017.80400  23792036.91700                   9448337.49740  23792040.97240
   -308938.86900  23620048.87000                   -193352.32340  23620053.06540
 96  9  6  1 34  0.0070000  0  4 14 15 25 29
  -3635596.67200  22874977.26900                  -2787087.07240  22874982.41340
  14056431.76100  24217785.76100                  11022716.97240  24217791.42140
  12155522.76100  23815919.87800                   9546133.55940  23815923.95640
   -288038.67900  23624025.91700                   -177066.44940  23624030.22940
 96  9  6  1 34 30.0070000  0  4 14 15 25 29
  -3623105.36600  22877354.21400                  -2777353.58440  22877359.40540
  14200084.96800  24245121.90900                  11134654.50040  24245127.72240
  12281335.57400  23839860.90900                   9644169.51140  23839864.96440
   -267021.18800  23628025.44000                   -160689.17540  23628029.65940
 96  9  6  1 35  0.0070000  0  4 14 15 25 29
  -3610237.49400  22879803.08100                  -2767326.67140  22879808.12040
  14344080.72300  24272523.83900                  11246858.94540  24272529.76940
  12407463.19500  23863862.15100                   9742450.76540  23863866.35840
   -245893.16000  23632046.07300                   -144225.77340  23632050.33940
 96  9  6  1 35 30.0070000  0  4 14 15 25 29
  -3596994.43900  22882322.99500                  -2757007.40740  22882328.12840
  14488410.09100  24299988.19800                  11359323.35340  24299993.97640
  12533904.12500  23887923.41700                   9840976.15340  23887927.70640
   -224666.55200  23636085.27600                   -127685.55440  23636089.62440
 96  9  6  1 36  0.0070000  0  4 14 15 25 29
  -3583382.92600  22884913.31500                  -2746401.02940  22884918.29640
  14633077.07100  24327517.64400                  11472050.82840  24327523.79640
  12660679.40100  23912047.94000                   9939762.07140  23912052.12440
   -203324.87000  23640146.33100                   -111055.65740  23640150.62040
 96  9  6  1 36 30.0070000  0  4 14 15 25 29
  -3569413.66200  22887571.54200                  -2735515.88340  22887576.56940
  14778076.05500  24355110.11200                  11585037.01440  24355115.94840
  12787776.14700  23936233.68300                  10038798.48740  23936237.93640
   -181872.38000  23644228.72200                    -94339.42740  23644232.81140
 96  9  6  1 37  0.0070000  0  4 14 15 25 29
  -3555067.47400  22890301.63600                  -2724337.03740  22890306.61640
  14923412.47400  24382766.66700                  11698286.14340  24382772.47940
  12915182.50500  23960477.93300                  10138076.16040  23960482.21040
   -160278.09900  23648337.97200                    -77512.70740  23648342.26140
 96  9  6  1 37 30.0070000  0  5 14 15 18 25 29
  -3540358.80900  22893100.50300                  -2712875.73940  22893105.54240
  15069069.05400  24410484.22200                  11811784.72640  24410490.06940
     -7587.13610  26950395.09700
  13042872.00000  23984776.79200                  10237574.46040  23984781.17540
   -138522.93600  23652477.95600                    -60560.62440  23652482.25740
 96  9  6  1 38  0.0070000  0  5 14 15 18 25 29
  -3525278.17900  22895970.26900                  -2701124.59540  22895975.29640
  15215041.51800  24438262.05800                  11925529.46940  24438267.83540
    -30370.93800  26946060.58100
  13170814.78600  24009123.44800                  10337270.12440  24009127.98340
   -116589.52700  23656651.72200                    -43469.64940  23656655.81140
 96  9  6  1 38 30.0070000  0  5 14 15 18 25 29
  -3509813.41500  22898913.03400                  -2689074.12840  22898918.14440
  15361326.03400  24466099.16700                  12039517.36440  24466104.89740
    -53174.09800  26941721.62000
  13298996.43800  24033515.80000                  10437151.92740  24033519.91340
    -94457.68800  23660863.09700                    -26224.04740  23660867.23340
 96  9  6  1 39  0.0070000  0  5 14 15 18 25 29
  -3493945.63200  22901932.80000                  -2676709.62140  22901938.05040
  15507932.86400  24493997.43300                  12153756.41440  24494003.52640
    -75980.43300  26937381.58100                    -14217.69250  26937388.67540
  13427444.32700  24057958.34700                  10537241.17940  24057962.51940
    -72103.66400  23665116.86200                     -8805.32240  23665121.02240
 96  9  6  1 39 30.0070000  0  5 14 15 18 25 29
  -3477699.02800  22905024.22200                  -2664049.92840  22905029.28440
  15654840.56200  24521953.05800                  12268229.90240  24521959.04640
    -98807.38800  26933037.65100                    -32004.90640  26933043.47640
  13556154.47000  24082451.44800                  10637534.78940  24082455.73740
    -49572.83400  23669404.32300                      8751.18040  23669408.57740
 96  9  6  1 40  0.0070000  0  5 14 15 18 25 29
  -3461081.33000  22908186.47200                  -2651101.07440  22908191.55840
  15802039.00200  24549963.74500                  12382929.94940  24549969.62840
   -121641.38200  26928692.48700                    -49797.60340  26928699.42940
  13685133.23000  24106995.08100                  10738037.70740  24106998.98340
    -26903.88100  23673718.17500                     26415.30940  23673722.31140
 96  9  6  1 40 30.0070000  0  5 14 15 18 25 29
  -3444103.59500  22911417.33900                  -2637871.66640  22911422.37840
  15949527.32700  24578030.19800                  12497855.87740  24578035.77640
   -144451.84700  26924352.08900                    -67571.98740  26924357.69040
  13814402.77800  24131594.38600                  10838767.21440  24131598.53440
     -4108.15300  23678056.12000                     44178.22140  23678060.23340
 96  9  6  1 41  0.0070000  0  5 14 15 18 25 29
  -3426767.51300  22914716.07300                  -2624363.02740  22914721.14740
  16097303.30200  24606150.98700                  12613005.94940  24606156.89440
   -167234.22200  26920016.17500                    -85324.45440  26920022.28040
  13943956.11100  24156247.46400                  10939717.85540  24156251.54240
     18781.04600  23682411.70600                     62013.97040  23682415.96040
 96  9  6  1 41 30.0070000  0  5 14 15 18 25 29
  -3409080.13100  22918082.04200                  -2610580.65240  22918087.04640
  16245366.46200  24634326.77600                  12728379.79940  24634332.50740
   -189997.10000  26915684.41700                   -103061.73740  26915689.38640
  14073772.66700  24180950.97200                  11040873.60240  24180955.03840
     41753.32800  23686783.17500                     79914.45840  23686787.40540
 96  9  6  1 42  0.0070000  0  5 14 15 18 25 29
  -3391042.32700  22921514.37000                  -2596525.22140  22921519.43340
  16393717.21800  24662557.05800                  12843977.74340  24662562.80040
   -212734.77600  26911356.20600                   -120779.38940  26911363.53440
  14203847.61300  24205702.98700                  11142230.69340  24205707.32340
     64823.72500  23691173.26900                     97891.40040  23691177.71040
 96  9  6  1 42 30.0080000  0  5 14 15 18 25 29
  -3372651.18500  22925014.25800                  -2582194.46040  22925019.36740
  16542360.97700  24690842.89800                  12959804.00440  24690848.74640
   -235453.37300  26907033.35900                   -138482.08040  26907039.28940
  14334187.29600  24230506.14800                  11243794.07040  24230510.06240
     88014.87900  23695586.32000                    115962.43440  23695590.42240
 96  9  6  1 43  0.0080000  0  5 14 15 18 25 29
  -3353900.00700  22928582.47700                  -2567583.15040  22928587.59840
  16691281.19500  24719181.32000                  13075845.70340  24719187.23840
   -258170.69900  26902711.06200                   -156183.83740  26902716.00840
  14464779.88200  24255357.23400                  11345554.51640  24255361.23040
    111330.50000  23700023.30500                    134130.46340  23700027.69940
 96  9  6  1 43 30.0080000  0  5 14 15 18 25 29
  -3334763.00000  22932224.24200                  -2552671.19640  22932229.34040
  16840486.35300  24747574.14800                  13192109.41240  24747580.17240
   -280881.74700  26898388.60200                   -173880.76840  26898398.30940
  14595656.42200  24280261.90600                  11447536.22540  24280265.83240
    134803.30100  23704489.98400                    152420.96440  23704494.40240
 96  9  6  1 44  0.0080000  0  5 14 15 18 25 29
  -3315228.00600  22935941.52300                  -2537449.11840  22935946.82040
  16989958.33800  24776017.58600                  13308581.04840  24776023.62140
   -303582.36400  26894069.82800                   -191569.59240  26894077.03940
  14726821.10700  24305221.76600                  11549742.47040  24305225.76240
    158431.83300  23708986.26600                    170832.81440  23708990.53140
 96  9  6  1 44 30.0080000  0  5 14 15 18 25 29
  -3295258.02500  22939741.69500                  -2521888.09140  22939746.81640
  17139707.03800  24804514.13300                  13425268.29940  24804520.21540
   -326261.39800  26889754.56200                   -209241.51440  26889759.78940
  14858278.86600  24330237.33600                  11652177.08040  24330241.20340
    182225.86200  23713514.10900                    189373.62940  23713518.52740
 96  9  6  1 45  0.0080000  0  5 14 15 18 25 29
  -3274834.75100  22943628.06200                  -2505973.84840  22943633.14840
  17289725.12600  24833061.35900                  13542165.47240  24833067.34840
   -348922.50500  26885441.68000                   -226899.53240  26885446.89440
  14989999.05800  24355302.97700                  11754816.18040  24355307.21940
    206165.62300  23718069.68000                    208027.99240  23718073.86340
 96  9  6  1 45 30.0080000  0  5 14 15 18 25 29
  -3253956.44500  22947601.00000                  -2489705.03740  22947606.05140
  17440012.18600  24861660.20300                  13659272.22640  24861666.35540
   -371561.83000  26881134.21100                   -244540.53640  26881140.64440
  15121961.84500  24380414.63300                  11857644.31340  24380418.98040
    230252.96700  23722653.49200                    226797.36040  23722657.57040
 96  9  6  1 46  0.0080000  0  5 14 15 18 25 29
  -3232656.78600  22951654.28900                  -2473107.90040  22951659.59840
  17590560.30800  24890308.80500                  13776582.39840  24890314.93440
   -394184.82700  26876828.73400                   -262168.81940  26876833.70340
  15254136.31600  24405566.71100                  11960637.39740  24405570.90640
    254475.58500  23727262.77300                    245672.13240  23727266.89840
 96  9  6  1 46 30.0080000  0  5 14 15 18 25 29
  -3210955.70200  22955783.78900                  -2456197.96040  22955788.86340
  17741368.97400  24919006.71100                  13894095.60940  24919012.46540
   -416803.18300  26872524.45300                   -279793.49340  26872530.67640
  15386511.91000  24430756.83600                  12063787.20740  24430760.85540
    278830.21300  23731897.40600                    264649.78040  23731901.51940
 96  9  6  1 47  0.0080000  0  5 14 15 18 25 29
  -3188878.54700  22959984.93700                  -2438994.98340  22959990.03540
  17892430.48900  24947752.88300                  14011805.84040  24947758.84840
   -439425.96100  26868219.23400                   -297421.57240  26868225.22340
  15519100.32300  24455987.68700                  12167102.83640  24455991.76640
    303317.46900  23736557.00800                    283730.76340  23736561.25040
 96  9  6  1 47 30.0080000  0  5 14 15 18 25 29
  -3166431.87100  22964256.54700                  -2421504.06340  22964261.68040
  18043753.04300  24976548.25800                  14129719.46640  24976554.17640
   -462037.13200  26863916.85200                   -315040.60540  26863923.13340
  15651932.39000  24481264.64800                  12270608.34140  24481268.82040
    327961.54400  23741246.85900                    302933.94540  23741251.04340
 96  9  6  1 48  0.0080000  0  5 14 15 18 25 29
  -3143616.48900  22968598.05500                  -2403725.84340  22968603.15240
  18195329.07700  25005392.83600                  14247830.61740  25005398.67240
   -484637.68100  26859615.69500                   -332651.39440  26859622.14140
  15785020.08700  24506590.45300                  12374313.03240  24506594.88340
    352745.94500  23745963.05500                    322246.47140  23745967.30940
 96  9  6  1 48 30.0080000  0  5 14 15 18 25 29
  -3120406.53200  22973014.78100                  -2385640.16440  22973019.85540
  18347148.88100  25034282.81200                  14366131.70940  25034288.57840
   -507231.27500  26855316.65600                   -350256.69240  26855322.38740
  15918363.98700  24531964.73400                  12478217.35840  24531968.84840
    377654.45300  23750702.92200                    341655.70440  23750707.23440
 96  9  6  1 49  0.0080000  0  5 14 15 18 25 29
  -3096778.04000  22977511.03100                  -2367228.35040  22977516.15240
  18499211.99100  25063219.31200                  14484622.40040  25063225.30140
   -529808.40500  26851020.08600                   -367849.18040  26851026.50840
  16051960.43900  24557387.65600                  12582318.48540  24557391.98040
    402687.49200  23755466.64100                    361161.97740  23755470.87140
 96  9  6  1 49 30.0080000  0  5 14 15 18 25 29
  -3072715.54000  22982090.03900                  -2348478.34940  22982095.05540
  18651516.15000  25092201.82000                  14603300.90940  25092207.80940
   -552371.87700  26846725.69500                   -385431.06740  26846730.91040
  16185799.76400  24582856.07800                  12686608.86340  24582860.48440
    427846.26800  23760254.12500                    380766.22140  23760258.43740
 96  9  6  1 50  0.0080000  0  5 14 15 18 25 29
  -3048225.67000  22986750.28900                  -2329395.33440  22986755.56240
  18804045.73100  25121227.16400                  14722155.08440  25121233.07040
   -574943.04500  26842430.09400                   -403018.92640  26842435.20340
  16319858.62500  24608366.71900                  12791070.30840  24608371.13740
    453108.82800  23765061.55500                    400451.33640  23765065.79740
 96  9  6  1 50 30.0080000  0  5 14 15 18 25 29
  -3023291.51200  22991495.06200                  -2309966.12240  22991500.21940
  18956810.69000  25150297.31200                  14841192.66140  25150303.48840
   -597516.50300  26838136.03900                   -420608.58740  26838142.67240
  16454139.25700  24633919.53100                  12895704.55740  24633923.69140
    478510.05400  23769895.14100                    420244.50840  23769899.30140
 96  9  6  1 51  0.0080000  0  5 14 15 18 25 29
  -2997920.04800  22996323.04700                  -2290196.14540  22996328.06240
  19109819.84200  25179414.33600                  14960420.51840  25179420.40640
   -620082.19900  26833840.75800                   -438192.21040  26833850.00840
  16588655.94900  24659517.40600                  13000522.75340  24659521.82440
    504072.82500  23774759.57800                    440163.55040  23774763.84440
 96  9  6  1 51 30.0080000  0  5 14 15 18 25 29
  -2972143.12100  23001228.26600                  -2270110.23540  23001233.37540
  19263065.70600  25208575.97700                  15079832.83040  25208581.82440
   -642641.79900  26829548.17200                   -455771.05640  26829554.46540
  16723410.70200  24685160.40600                  13105526.44740  24685164.66040
    529791.77900  23779653.53900                    460204.31140  23779657.64140
 96  9  6  1 52  0.0080000  0  5 14 15 18 25 29
  -2945981.91500  23006206.68700                  -2249724.87640  23006211.75040
  19416533.42200  25237780.42200                  15199418.01840  25237786.09440
   -665191.93000  26825256.96900                   -473342.59340  26825262.20740
  16858386.00600  24710845.53900                  13210701.99240  24710849.78140
    555659.24100  23784576.00800                    480360.77240  23784580.09840
 96  9  6  1 52 30.0080000  0  5 14 15 18 25 29
  -2919412.03300  23011262.64100                  -2229021.07440  23011267.62140
  19570232.30700  25267028.28900                  15319183.32240  25267034.39440
   -687710.12900  26820972.09400                   -490889.16940  26820979.10540
  16993600.72700  24736576.16400                  13316064.11240  24736580.64140
    581695.67300  23789530.67200                    500648.90940  23789534.90240
 96  9  6  1 53  0.0080000  0  5 14 15 18 25 29
  -2892458.03100  23016391.91400                  -2208017.95840  23016396.90640
  19724136.80500  25296315.10200                  15439108.85640  25296321.48840
   -710202.85400  26816692.09400                   -508415.91940  26816696.64140
  17129040.33300  24762349.10900                  13421601.46240  24762353.69140
    607864.36800  23794510.51600                    521040.10540  23794514.66440
 96  9  6  1 53 30.0080000  0  5 14 15 18 25 29
  -2865103.40000  23021597.41400                  -2186702.66240  23021602.40640
  19878234.49700  25325639.40600                  15559184.93440  25325645.66440
   -732679.80300  26812414.85900                   -525930.35140  26812420.27340
  17264683.04500  24788161.27300                  13527297.07240  24788165.52740
    634164.36300  23799515.25800                    541533.61540  23799519.30140
 96  9  6  1 54  0.0080000  0  5 14 15 18 25 29
  -2837283.98500  23026891.03100                  -2165025.19940  23026896.09440
  20032548.04900  25355004.00800                  15679429.20440  25355009.96140
   -755119.43400  26808144.06200                   -543415.68940  26808150.42640
  17400540.17400  24814013.62500                  13633159.76640  24814018.07840
    660625.10000  23804550.48400                    562152.38140  23804554.66840
 96  9  6  1 54 30.0080000  0  5 14 15 18 25 29
  -2808984.23400  23032276.29700                  -2142973.44540  23032281.35940
  20187077.00000  25384410.16400                  15799841.31440  25384416.00040
   -777520.12300  26803881.29700                   -560870.68940  26803885.86740
  17536614.20400  24839907.28100                  13739191.46940  24839911.78140
    687236.90600  23809614.39800                    582888.85640  23809618.66440
 96  9  6  1 55  0.0080000  0  5 14 15 18 25 29
  -2780228.25200  23037748.57000                  -2120566.18540  23037753.64440
  20341806.86400  25413853.85900                  15920409.97540  25413859.68440
   -799894.88100  26799623.96900                   -578305.52940  26799630.01640
  17672886.88000  24865839.64100                  13845377.96040  24865843.88340
    713993.03500  23814706.07000                    603737.79440  23814710.21940
 96  9  6  1 55 30.0090000  0  5 14 15 18 25 29
  -2751013.51600  23043307.95800                  -2097801.45640  23043313.19640
  20496741.89100  25443337.45800                  16041138.51840  25443343.48140
   -822253.81100  26795369.45800                   -595727.97640  26795375.69240
  17809354.65700  24891808.48100                  13951716.48340  24891812.59540
    740893.35000  23819825.00500                    624699.08940  23819829.18840
 96  9  6  1 56  0.0090000  0  5 14 15 18 25 29
  -2721367.86700  23048949.34100                  -2074700.95140  23048954.47440
  20651865.05400  25472855.85600                  16162013.65440  25472861.73940
   -844595.67800  26791117.68500                   -613137.18140  26791123.29840
  17946014.30900  24917814.45800                  14058204.51540  24917818.44240
    767915.88400  23824967.20000                    645755.61740  23824971.25540
 96  9  6  1 56 30.0090000  0  5 14 15 18 25 29
  -2691313.22200  23054668.63800                  -2051281.74740  23054673.75940
  20807175.07500  25502411.01300                  16283034.39040  25502416.68540
   -866928.83700  26786867.53600                   -630539.60040  26786874.74740
  18082881.64300  24943858.71600                  14164854.37940  24943862.94640
    795067.70400  23830133.92700                    666912.88540  23830138.00540
 96  9  6  1 57  0.0090000  0  5 14 15 18 25 29
  -2660848.90600  23060465.80200                  -2027543.32340  23060471.05240
  20962673.67800  25532001.33300                  16404202.05940  25532007.54440
   -889262.51400  26782617.56000                   -647942.41740  26782624.43140
  18219957.94500  24969943.84100                  14271667.07840  24969948.04840
    822363.75800  23835328.25500                    688182.54640  23835332.38040
 96  9  6  1 57 30.0090000  0  5 14 15 18 25 29
  -2629962.02400  23066343.29400                  -2003475.62040  23066348.38040
  21118357.69300  25561626.84900                  16525514.22140  25561633.03640
   -911604.94100  26778365.35600                   -665352.07940  26778369.25940
  18357244.66200  24996068.63800                  14378643.73640  24996072.84540
    849800.21100  23840549.31700                    709561.60740  23840553.46640
 96  9  6  1 58  0.0090000  0  5 14 15 18 25 29
  -2598637.56800  23072304.02800                  -1979066.95340  23072308.98540
  21274228.25000  25591288.26300                  16646971.74440  25591294.27440
   -933951.82900  26774113.21600                   -682765.18340  26774119.49740
  18494749.21600  25022234.52000                  14485790.13340  25022239.11440
    877394.26100  23845800.09900                    731063.47540  23845804.30640
 96  9  6  1 58 30.0090000  0  5 14 15 18 25 29
  -2566868.26500  23078349.59100                  -1954311.65140  23078354.68840
  21430279.73000  25620984.00500                  16768570.25140  25620989.97040
   -956308.81900  26769859.16900                   -700186.15640  26769866.04040
  18632470.34000  25048442.05200                  14593105.28640  25048446.45840
    905151.22100  23851082.08300                    752692.28140  23851086.14940
 96  9  6  1 59  0.0090000  0  5 14 15 18 25 29
  -2534630.08100  23084484.32500                  -1929190.98940  23084489.45840
  21586517.70400  25650714.84900                  16890314.05540  25650720.55640
   -978662.01200  26765604.79400                   -717604.18440  26765611.55640
  18770410.82200  25074691.56000                  14700591.37640  25074696.20040
    933062.00800  23856393.52800                    774440.95440  23856397.72440
 96  9  6  1 59 30.0090000  0  5 14 15 18 25 29
  -2501923.23800  23090708.16900                  -1903705.13840  23090713.26740
  21742929.18000  25680478.99700                  17012193.07840  25680485.17340
  -1001005.48500  26761353.93500                   -735014.56440  26761360.79440
  18908556.27700  25100979.95800                  14808237.17840  25100983.90740
    961107.45000  23861730.15300                    796294.55340  23861734.32540
 96  9  6  2  0  0.0090000  0  5 14 15 18 25 29
  -2468755.64000  23097019.71600                  -1877860.25140  23097024.77840
  21899509.56300  25710275.20000                  17134203.70940  25710281.37640
  -1023326.78300  26757105.29400                   -752407.71840  26757111.69240
  19046888.83100  25127303.46600                  14916028.77740  25127307.81340
    989282.82100  23867091.82500                    818249.39740  23867096.07940
 96  9  6  2  0 30.0090000  0  5 14 15 18 25 29
  -2435143.66600  23103416.11400                  -1851669.10440  23103421.21240
  22056251.13000  25740102.96600                  17256339.93140  25740108.64940
  -1045622.57300  26752862.73100                   -769780.99740  26752869.44640
  19185394.32400  25153660.32500                  15023955.13140  25153664.56740
   1017569.50800  23872474.63800                    840290.97940  23872478.85640
 96  9  6  2  1  0.0090000  0  5 14 15 18 25 29
  -2401055.98800  23109902.65300                  -1825107.27840  23109907.61040
  22213176.95900  25769964.34900                  17378619.74040  25769970.10240
  -1067859.36800  26748631.01300                   -787108.30040  26748637.01340
  19324069.54200  25180049.02800                  15132013.73740  25180053.42340
   1045997.45900  23877884.19200                    862442.63640  23877888.43540
 96  9  6  2  1 30.0090000  0  5 14 15 18 25 29
  -2366533.89400  23116471.97400                  -1798206.94540  23116477.00140
  22370255.00900  25799855.60600                  17501018.17440  25799861.63040
  -1090058.12700  26744406.91900                   -804405.97840  26744412.69640
  19462870.70400  25206462.41900                  15240170.48040  25206466.48540
   1074550.42700  23883317.70800                    884691.71140  23883321.82140
 96  9  6  2  2  0.0090000  0  5 14 15 18 25 29
  -2331583.15300  23123122.95000                  -1770972.60340  23123128.04840
  22527480.63900  25829774.47400                  17623531.58040  25829780.38040
  -1112233.26400  26740187.09900                   -821685.24440  26740192.44240
  19601810.15400  25232901.63800                  15348434.97840  25232906.36040
   1103232.59100  23888775.64500                    907041.45540  23888779.94640
 96  9  6  2  2 30.0090000  0  5 14 15 18 25 29
  -2296168.71400  23129862.08300                  -1743376.93440  23129867.11040
  22684865.17100  25859724.09100                  17746168.81840  25859730.03240
  -1134382.05600  26735972.23100                   -838943.96940  26735978.43140
  19740914.84700  25259372.17700                  15456828.24040  25259376.81740
   1132060.05400  23894261.41100                    929504.42540  23894265.52440
 96  9  6  2  3  0.0090000  0  5 14 15 18 25 29
  -2260280.98800  23136691.39500                  -1715412.46940  23136696.56340
  22842396.98500  25889701.36400                  17868920.82440  25889707.16540
  -1156516.31000  26731760.15300                   -856191.36840  26731766.28240
  19880180.21300  25285873.18500                  15565346.70440  25285877.43840
   1161036.14400  23899775.34900                    952083.20140  23899779.60240
 96  9  6  2  3 30.0090000  0  5 14 15 18 25 29
  -2223912.24800  23143612.13800                  -1687073.19440  23143617.25940
  23000082.68900  25919707.22400                  17991792.72840  25919713.01340
  -1178632.67700  26727551.17700                   -873424.88340  26727557.41140
  20019652.81200  25312414.23900                  15674026.65240  25312418.59940
   1190167.23200  23905318.72400                    974782.75840  23905322.98940
 96  9  6  2  4  0.0090000  0  5 14 15 18 25 29
  -2187063.32000  23150624.07500                  -1658359.74440  23150629.03240
  23157910.90100  25949741.98100                  18114775.68840  25949748.33340
  -1200747.92600  26723343.06000                   -890657.48140  26723348.98940
  20159336.71400  25338995.22400                  15782871.23240  25338999.94640
   1219449.24600  23910890.95000                    997599.92040  23910895.33340
 96  9  6  2  4 30.0090000  0  5 14 15 18 25 29
  -2149738.56100  23157726.81000                  -1629275.51940  23157731.79040
  23315879.37200  25979802.56000                  18237867.95140  25979808.06740
  -1222849.76100  26719136.66100                   -907879.61740  26719142.19240
  20299216.28400  25365613.82500                  15891868.28840  25365618.26740
   1248891.40100  23916493.59100                   1020541.86640  23916497.78640
 96  9  6  2  5  0.0090000  0  5 14 15 18 25 29
  -2111967.49900  23164914.39500                  -1599843.52040  23164919.44640
  23473980.56000  26009888.09100                  18361063.62240  26009893.95040
  -1244941.32300  26714933.52800                   -925093.76940  26714939.82140
  20439280.54700  25392267.08300                  16001009.27340  25392271.37240
   1278491.71100  23922126.12200                   1043607.04840  23922130.29440
 96  9  6  2  5 30.0090000  0  5 14 15 18 25 29
  -2073751.74100  23172186.46600                  -1570065.00940  23172191.63440
  23632225.43300  26040000.77000                  18484371.26640  26040006.66540
  -1267011.28700  26710733.32500                   -942291.08040  26710739.13840
  20579540.89000  25418957.09900                  16110303.03840  25418961.55240
   1308265.90000  23927792.18500                   1066807.72040  23927796.27440
 96  9  6  2  6  0.0090000  0  5 14 15 18 25 29
  -2035109.79800  23179539.92700                  -1539954.40740  23179544.97740
  23790593.87900  26070136.76300                  18607775.18840  26070142.24740
  -1289075.83600  26706534.78600                   -959484.16940  26706540.02440
  20719945.08000  25445675.52000                  16219708.89040  25445679.63440
   1338196.84300  23933487.90300                   1090130.54240  23933492.02840
 96  9  6  2  6 30.0090000  0  5 14 15 18 25 29
  -1996036.38300  23186975.22400                  -1509507.58840  23186980.48540
  23949090.15200  26100298.02000                  18731278.71140  26100303.95040
  -1311119.11600  26702340.38000                   -976660.70640  26702346.81340
  20860495.87600  25472421.29400                  16329228.98640  25472425.86440
   1368281.83400  23939212.81000                   1113573.39540  23939216.94640
 96  9  6  2  7  0.0090000  0  5 14 15 18 25 29
  -1956508.83400  23194497.16900                  -1478706.90640  23194502.24340
  24107719.40900  26130484.64500                  18854885.84940  26130490.93840
  -1333134.70200  26698150.70000                   -993815.63040  26698156.54840
  21001201.32400  25499196.60600                  16438869.58740  25499201.31740
   1398524.12300  23944967.61400                   1137138.82540  23944971.75140
 96  9  6  2  7 30.0090000  0  5 14 15 18 25 29
  -1916519.30000  23202106.81000                  -1447546.22940  23202111.86040
  24266469.55900  26160693.49700                  18978587.19940  26160699.74340
  -1355127.29300  26693965.85600                  -1010952.66140  26693972.24340
  21142044.60400  25525998.32500                  16548617.59740  25526003.06040
   1428916.31400  23950751.05200                   1160821.05740  23950755.20040
 96  9  6  2  8  0.0090000  0  5 14 15 18 25 29
  -1876050.44300  23209807.87200                  -1416012.05840  23209813.01740
  24425335.90800  26190925.30200                  19102379.09640  26190931.64240
  -1377096.78700  26689784.61400                  -1028071.67140  26689790.39240
  21283020.72400  25552825.73100                  16658469.11040  25552830.04440
   1459445.31700  23956560.66900                   1184609.89740  23956564.78240
 96  9  6  2  8 30.0090000  0  5 14 15 18 25 29
  -1835084.98900  23217603.22400                  -1384090.92740  23217608.48540
  24584322.55800  26221179.16900                  19226264.74040  26221184.87640
  -1399038.62700  26685609.69200                  -1045169.15440  26685615.78640
  21424156.63800  25579683.23900                  16768445.14040  25579687.50540
   1490118.11700  23962397.37200                   1208510.78440  23962401.59140
 96  9  6  2  9  0.0100000  0  5 14 15 18 25 29
  -1793621.58200  23225493.52500                  -1351781.78540  23225498.72840
  24743419.08900  26251454.71300                  19350236.00640  26251461.00640
  -1420974.35900  26681434.63500                  -1062261.89140  26681440.63540
  21565439.89300  25606567.95500                  16878535.99040  25606572.02140
   1520933.41000  23968261.41600                   1232522.70640  23968265.55340
 96  9  6  2  9 30.0100000  0  5 14 15 18 25 29
  -1751638.16600  23233482.60300                  -1319067.43240  23233487.74840
  24902631.59800  26281751.48600                  19474297.61940  26281758.15440
  -1442878.31600  26677266.54900                  -1079329.84140  26677271.31840
  21706888.23700  25633484.77500                  16988755.46440  25633489.38140
   1551904.83100  23974155.05700                   1256656.28640  23974159.14640
 96  9  6  2 10  0.0100000  0  5 14 15 18 25 29
  -1709147.72600  23241568.37700                  -1285957.99940  23241573.49840
  25061948.65300  26312068.82200                  19598440.73640  26312075.23240
  -1464754.11500  26673104.18200                  -1096375.84040  26673109.26840
  21848507.32800  25660433.71300                  17099107.99840  25660438.57640
   1583006.28500  23980073.47100                   1280891.19440  23980077.52540
 96  9  6  2 10 30.0100000  0  5 14 15 18 25 29
  -1666147.69600  23249751.01800                  -1252451.48640  23249756.13940
  25221376.10500  26342406.51800                  19722669.85940  26342412.97540
  -1486586.74600  26668949.13500                  -1113388.22340  26668955.36940
  21990306.41800  25687416.91600                  17209600.79140  25687422.06040
   1614259.48600  23986020.84600                   1305244.34840  23986025.00640
 96  9  6  2 11  0.0100000  0  5 14 15 18 25 29
  -1622639.03800  23258030.47800                  -1218548.63740  23258035.55340
  25380909.58300  26372764.82200                  19846981.57940  26372770.84640
  -1508369.97500  26664803.62700                  -1130362.10740  26664810.26040
  22132267.77400  25714431.68900                  17320220.02640  25714436.11940
   1645669.29900  23991997.74400                   1329719.53540  23992001.88140
 96  9  6  2 11 30.0100000  0  5 14 15 18 25 29
  -1578631.49900  23266404.85300                  -1184257.05140  23266409.95140
  25540547.65500  26403142.99400                  19971374.81440  26403148.87740
  -1530101.08400  26660668.61100                  -1147295.38840  26660674.20140
  22274397.60900  25741478.49400                  17430970.54840  25741482.59640
   1677223.01100  23998002.38500                   1354306.84940  23998006.59240
 96  9  6  2 12  0.0100000  0  5 14 15 18 25 29
  -1534146.70200  23274869.96300                  -1149593.57540  23274875.02540
  25700282.31700  26433539.78300                  20095843.31440  26433545.86540
  -1551800.01800  26656539.70500                  -1164203.60940  26656545.29540
  22416672.51500  25768552.10300                  17541834.10540  25768556.39340
   1708938.51000  24004037.69700                   1379020.23440  24004041.95140
 96  9  6  2 12 30.0100000  0  5 14 15 18 25 29
  -1489186.01100  23283425.78300                  -1114559.26740  23283430.92840
  25860102.49500  26463952.41600                  20220378.45740  26463958.15840
  -1573496.13800  26652410.68900                  -1181109.61940  26652416.53740
  22559055.45700  25795646.89300                  17652781.83140  25795651.29940
   1740835.35300  24010107.42400                   1403874.93140  24010111.51440
 96  9  6  2 13  0.0100000  0  5 14 15 18 25 29
  -1443733.42900  23292075.08800                  -1079141.67540  23292080.23240
  26020017.66600  26494383.48600                  20344987.61340  26494389.49840
  -1595188.17300  26648283.23600                  -1198012.45740  26648289.02540
  22701557.58200  25822764.09600                  17763822.45540  25822768.12740
   1772916.31600  24016212.14300                   1428873.09040  24016216.19740
 96  9  6  2 13 30.0100000  0  5 14 15 18 25 29
  -1397805.13000  23300814.84600                  -1043353.39140  23300819.92040
  26180017.41800  26524830.32200                  20469662.67440  26524835.99440
  -1616882.48900  26644153.98600                  -1214917.06440  26644160.49040
  22844180.05600  25849903.43900                  17874956.85540  25849907.77540
   1805164.84900  24022348.82200                   1454001.82940  24022352.94740
 96  9  6  2 14  0.0100000  0  5 14 15 18 25 29
  -1351368.89400  23309651.26800                  -1007169.31340  23309656.42440
  26340109.24000  26555294.54100                  20594409.46940  26555300.89340
  -1638553.83700  26640030.76800                  -1231803.76940  26640036.63940
  22986930.30900  25877068.58000                  17986190.82240  25877073.25640
   1837600.29200  24028521.14300                   1479276.20840  24028525.25640
 96  9  6  2 14 30.0100000  0  5 14 15 18 25 29
  -1304421.93400  23318585.02500                   -970587.26840  23318590.12340
  26500278.76900  26585774.17400                  20719216.84340  26585780.74840
  -1660204.01500  26635910.20500                  -1248674.00240  26635915.64340
  23129811.88100  25904258.27500                  18097527.09340  25904263.46740
   1870179.61900  24034720.54900                   1504662.70640  24034724.56840
 96  9  6  2 15  0.0100000  0  5 14 15 18 25 29
  -1256985.28800  23327611.95500                   -933623.64840  23327617.00640
  26660517.62100  26616266.61900                  20844078.18440  26616272.74840
  -1681812.59500  26631798.36100                  -1265511.81140  26631804.64340
  23272847.59200  25931477.18900                  18208983.49540  25931482.11140
   1902880.24700  24040943.48600                   1530143.72540  24040947.63540
 96  9  6  2 15 30.0100000  0  5 14 15 18 25 29
  -1209048.92700  23336733.96300                   -896270.63840  23336739.07240
  26820832.33300  26646773.47100                  20968998.68740  26646780.77540
  -1703351.80700  26627699.40000                  -1282295.58040  26627705.23640
  23416045.55000  25958726.83000                  18320566.32740  25958731.28340
   1935725.45700  24047193.56400                   1555737.40640  24047197.76040
 96  9  6  2 16  0.0100000  0  5 14 15 18 25 29
  -1160619.33500  23345949.84600                   -858533.29440  23345954.90840
  26981205.97200  26677291.72800                  21093965.08940  26677297.68240
  -1724844.61600  26623609.01000                  -1299043.19340  26623614.89340
  23559379.65700  25986002.77500                  18432255.23340  25986007.19340
   1968715.52300  24053471.58800                   1581443.96340  24053475.73640
 96  9  6  2 16 30.0100000  0  5 14 15 18 25 29
  -1111714.80100  23355256.20500                   -820425.86440  23355261.40840
  27141641.67000  26707821.60300                  21218979.82840  26707827.20540
  -1746294.09400  26619527.51800                  -1315757.03140  26619533.81040
  23702852.73100  26013304.45500                  18544052.43940  26013308.73240
   2001866.67100  24059779.90000                   1607276.03740  24059784.00240
 96  9  6  2 17  0.0100000  0  5 14 15 18 25 29
  -1062327.51400  23364653.95500                   -781942.27040  23364659.07640
  27302145.34700  26738364.59600                  21344047.53240  26738371.00640
  -1767689.02700  26615457.01800                  -1332428.36140  26615462.94740
  23846460.04000  26040631.52500                  18655954.26340  26040636.29540
   2035205.45800  24066124.03300                   1633254.32440  24066128.00640
 96  9  6  2 17 30.0100000  0  5 14 15 18 25 29
  -1012455.04700  23374144.45500                   -743080.60740  23374149.61140
  27462700.13800  26768917.61900                  21469155.09740  26768924.18240
  -1789065.08400  26611389.05700                  -1349084.99040  26611394.27140
  23990172.40200  26067979.36100                  18767937.91940  26067983.38140
   2068710.05000  24072499.84600                   1659361.80840  24072503.90040
 96  9  6  2 18  0.0100000  0  5 14 15 18 25 29
   -962096.72500  23383727.59600                   -703840.35840  23383732.65840
  27623305.49000  26799479.12700                  21594302.07140  26799485.13940
  -1810431.67800  26607322.80700                  -1365734.25340  26607328.67840
  24133987.32200  26095345.79100                  18880001.49840  26095350.39640
   2102372.06400  24078905.39300                   1685591.95740  24078909.42440
 96  9  6  2 18 30.0100000  0  5 14 15 18 25 29
   -911253.20400  23393402.64300                   -664222.03240  23393407.70540
  27783952.37800  26830049.18900                  21719481.38340  26830054.69740
  -1831785.77500  26603259.42400                  -1382373.76540  26603265.48240
  24277905.97200  26122733.71300                  18992145.90340  26122738.40040
   2136166.82400  24085336.39300                   1711925.54440  24085340.45940
 96  9  6  2 19  0.0100000  0  5 14 15 18 25 29
   -859885.44600  23403177.60300                   -624195.20840  23403182.65440
  27944654.02700  26860630.26800                  21844703.38640  26860636.33840
  -1853112.25000  26599200.79100                  -1398991.75340  26599206.39340
  24421939.87600  26150141.05700                  19104380.10340  26150145.35740
   2170095.87200  24091792.75200                   1738363.77740  24091796.77140
 96  9  6  2 19 30.0100000  0  5 14 15 18 25 29
   -808001.80100  23413050.61100                   -583766.39640  23413055.63940
  28105397.62900  26891219.49400                  21969958.04740  26891225.93940
  -1874429.35800  26595144.85300                  -1415602.44540  26595151.05340
  24566081.26600  26177570.83000                  19216698.06940  26177574.95540
   2204153.77100  24098273.88500                   1764902.40440  24098277.98640
 96  9  6  2 20  0.0100000  0  5 14 15 18 25 29
   -755594.35400  23423023.59600                   -542929.43040  23423028.74040
  28266187.25300  26921815.68200                  22095248.57540  26921822.82240
  -1895711.74000  26591094.73600                  -1432186.09140  26591100.06840
  24710332.04300  26205020.99400                  19329101.27740  26205024.83840
   2238370.89900  24104785.02500                   1791565.10940  24104789.09240
 96  9  6  2 20 30.0100000  0  5 14 15 18 25 29
   -702665.09600  23433095.75200                   -501685.85540  23433100.76840
  28427016.29800  26952420.30700                  22220569.83340  26952426.75240
  -1916955.93000  26587052.13500                  -1448739.96440  26587058.01840
  24854691.36700  26232492.12700                  19441589.07740  26232497.02540
   2272756.46200  24111328.33000                   1818359.06340  24111332.40840
 96  9  6  2 21  0.0100000  0  5 14 15 18 25 29
   -649227.74700  23443264.37700                   -460046.36740  23443269.59240
  28587874.77900  26983030.46300                  22345914.03640  26983036.24040
  -1938173.32300  26583014.56400                  -1465272.95140  26583020.57640
  24999145.66900  26259980.48600                  19554150.86140  26259984.93940
   2307322.39700  24117906.26800                   1845293.56440  24117910.32240
 96  9  6  2 21 30.0100000  0  5 14 15 18 25 29
   -595306.43200  23453525.12700                   -418029.75740  23453530.27140
  28748749.87900  27013645.04900                  22471271.16240  27013651.17840
  -1959366.85300  26578981.47800                  -1481787.35640  26578986.64640
  25143684.33400  26287485.38500                  19666778.39040  26287490.07240
   2342065.77700  24124517.45500                   1872366.34140  24124521.55740
 96  9  6  2 22  0.0100000  0  5 14 15 18 25 29
   -540867.46600  23463884.65000                   -375609.78440  23463889.79540
  28909667.25300  27044266.70500                  22596661.28240  27044272.47140
  -1980500.99400  26574959.36900                  -1498255.46940  26574965.59240
  25288338.79000  26315011.75200                  19779496.12940  26315016.36940
   2377004.91100  24131166.16600                   1899591.64840  24131170.23240
 96  9  6  2 22 30.0110000  0  5 14 15 18 25 29
   -485925.42200  23474339.83500                   -332797.80840  23474344.96840
  29070612.67400  27074893.28000                  22722073.19940  27074899.57340
  -2001600.57400  26570944.74100                  -1514696.62640  26570950.58940
  25433097.74300  26342558.56100                  19892295.32840  26342562.94440
   2412106.69100  24137845.87400                   1926943.69140  24137849.87040
 96  9  6  2 23  0.0110000  0  5 14 15 18 25 29
   -430470.76200  23484892.72600                   -289586.38640  23484897.74140
  29231575.35100  27105523.86600                  22847498.60340  27105531.00740
  -2022659.54200  26566936.95200                  -1531106.18040  26566942.54240
  25577950.02800  26370123.53000                  20005167.25840  26370128.27640
   2447360.97600  24144554.54600                   1954414.57340  24144558.64740
 96  9  6  2 23 30.0110000  0  5 14 15 18 25 29
   -374488.61200  23495545.71800                   -245963.93240  23495550.80440
  29392565.22300  27136159.13200                  22972945.15140  27136165.16740
  -2043666.68500  26562939.46800                  -1547475.33640  26562944.84740
  25722915.65200  26397708.89700                  20118127.48640  26397714.07740
   2482767.18600  24151292.06100                   1982003.83740  24151296.09340
 96  9  6  2 24  0.0110000  0  5 14 15 18 25 29
   -317965.17300  23506301.47600                   -201919.69540  23506306.64340
  29553580.77500  27166799.50700                  23098411.76240  27166805.10840
  -2064626.18200  26558950.46800                  -1563807.37440  26558955.61240
  25867995.87900  26425317.23300                  20231177.01040  26425321.44040
   2518329.79900  24158059.48300                   2009714.97640  24158063.39740
 96  9  6  2 24 30.0110000  0  5 14 15 18 25 29
   -260927.14300  23517155.49900                   -157474.47640  23517160.64340
  29714604.29600  27197441.65500                  23223884.52840  27197447.72640
  -2085550.78400  26554968.96800                  -1580112.18840  26554975.03840
  26013168.98900  26452942.21000                  20344298.91740  26452946.69840
   2554038.74300  24164854.56900                   2037540.13340  24164858.64740
 96  9  6  2 25  0.0110000  0  5 14 15 18 25 29
   -203374.78700  23528107.53000                   -112628.48640  23528112.59340
  29875633.11800  27228084.89700                  23349361.44740  27228091.13240
  -2106452.24300  26550992.08500                  -1596398.97340  26550997.67540
  26158438.36800  26480586.28800                  20457495.83840  26480590.29640
   2589898.77600  24171678.60100                   2065483.02540  24171682.56140
 96  9  6  2 25 30.0110000  0  5 14 15 18 25 29
   -145312.36000  23539156.31100                    -67385.03340  23539161.45640
  30036661.85600  27258727.46000                  23474838.30440  27258734.60140
  -2127341.00600  26547016.83500                  -1612675.87440  26547023.08140
  26303803.37000  26508248.57700                  20570767.27140  26508253.06540
   2625916.36800  24178532.56100                   2093548.69440  24178536.68640
 96  9  6  2 26  0.0110000  0  5 14 15 18 25 29
    -86731.85900  23550303.87400                    -21737.89540  23550309.06540
  30197694.63200  27289369.39700                  23600318.28040  27289374.77640
  -2148211.71900  26543045.11600                  -1628938.72940  26543051.11640
  26449260.54000  26535928.41300                  20684110.51440  26535932.55040
   2662101.15000  24185418.16300                   2121744.63640  24185422.20640
 96  9  6  2 26 30.0110000  0  6  4 14 15 18 25 29
      5165.93210  28156123.63200
    -27651.10700  23561546.59300                     24299.05740  23561551.78440
  30358717.14900  27320012.46000                  23725790.33340  27320020.39740
  -2169074.37400  26539075.10800                  -1645195.29440  26539080.12440
  26594795.86200  26563623.18600                  20797514.66840  26563627.38240
   2698438.09300  24192332.74100                   2150059.14140  24192336.83140
 96  9  6  2 27  0.0110000  0  6  4 14 15 18 25 29
     19579.35900  28158866.79600
     31960.50000  23572890.14700                     70749.66140  23572895.18640
  30519746.66800  27350655.29600                  23851267.80140  27350662.24940
  -2189901.08900  26535111.65500                  -1661423.84040  26535117.49140
  26740427.91200  26591334.98300                  20910994.19040  26591339.88240
   2734952.49900  24199281.35800                   2178511.93840  24199285.36640
 96  9  6  2 27 30.0110000  0  6  4 14 15 18 25 29
     34460.72900  28161698.55400
     92099.17800  23584334.28800                    117610.97040  23584339.51540
  30680781.04500  27381299.06100                  23976749.04740  27381304.49940
  -2210668.98600  26531160.02200                  -1677606.56940  26531166.11640
  26886146.50800  26619065.07700                  21024541.14740  26619068.75740
   2771649.96900  24206264.56100                   2207107.37440  24206268.51140
 96  9  6  2 28  0.0110000  0  6  4 14 15 18 25 29
     49811.88200  28164619.21000                      9598.08250  28164625.94840
    152748.72000  23595875.75700                    164870.35440  23595880.83140
  30841805.97400  27411941.01500                  24102222.91840  27411948.65940
  -2231373.39500  26527219.90500                  -1693739.83940  26527225.65940
  27031925.13300  26646805.67100                  21138134.88440  26646809.98340
   2808513.39400  24213279.50700                   2235832.13040  24213283.56140
 96  9  6  2 28 30.0110000  0  6  4 14 15 18 25 29
     65627.55200  28167628.81100                     21922.03840  28167633.45240
    213902.29300  23607512.53800                    212522.49240  23607517.70640
  31002812.73700  27442579.70200                  24227682.67340  27442585.84340
  -2252025.00800  26523290.04600                  -1709831.95640  26523295.65940
  27177760.82000  26674557.07700                  21251773.08040  26674561.65940
   2845544.07100  24220326.17900                   2264687.20940  24220330.12840
 96  9  6  2 29  0.0110000  0  6  4 14 15 18 25 29
     81914.72100  28170729.00700                     34613.30440  28170734.03440
    275577.30700  23619249.09300                    260580.94440  23619254.30840
  31163803.44100  27473214.69400                  24353129.90740  27473221.39740
  -2272624.30200  26519369.78000                  -1725883.30340  26519376.17940
  27323658.09500  26702320.31900                  21365459.27940  26702325.05440
   2882755.81100  24227407.20200                   2293683.37840  24227411.36240
 96  9  6  2 29 30.0110000  0  6  4 14 15 18 25 29
     98669.41400  28173917.10100                     47668.99640  28173922.12840
    337778.60200  23631085.44400                    309049.49040  23631090.63640
  31324777.57600  27503847.22600                  24478564.21840  27503853.40140
  -2293182.49500  26515457.54600                  -1741902.61740  26515463.11240
  27469621.31800  26730096.67100                  21479196.84740  26730100.73740
   2920150.70800  24234523.33500                   2322822.26740  24234527.30840
 96  9  6  2 30  0.0110000  0  6  4 14 15 18 25 29
    115885.40800  28177192.89700                     61084.00540  28177199.19040
    400503.66300  23643021.81900                    357926.15940  23643026.95240
  31485725.61200  27534475.33500                  24603978.20040  27534481.79240
  -2313724.49700  26511548.86600                  -1757909.31640  26511554.56140
  27615656.71500  26757885.24900                  21592990.67940  26757890.12440
   2957719.15900  24241672.40500                   2352096.39240  24241676.43640
 96  9  6  2 30 30.0110000  0  6  4 14 15 18 25 29
    133543.27500  28180553.62400                     74843.42840  28180558.96840
    463753.95700  23655057.92100                    407212.09940  23655063.06540
  31646649.03600  27565096.93600                  24729372.97840  27565103.27640
  -2334263.56400  26507640.43600                  -1773913.75040  26507645.47640
  27761778.09900  26785691.87400                  21706851.48240  26785696.22240
   2995463.71900  24248854.85800                   2381507.74440  24248858.97240
 96  9  6  2 31  0.0110000  0  6  4 14 15 18 25 29
    151655.36700  28183999.76500                     88956.74140  28184004.58140
    527537.68800  23667195.42100                    456913.71140  23667200.49540
  31807558.39700  27595717.49900                  24854756.87040  27595723.74540
  -2354770.36500  26503738.32700                  -1789893.04040  26503743.81140
  27907999.88800  26813517.28000                  21820790.53540  26813521.73340
   3033382.98100  24256070.67900                   2411055.23440  24256074.61640
 96  9  6  2 31 30.0110000  0  6  4 14 15 18 25 29
    170225.82600  28187533.20200                    103427.27340  28187538.15940
    591847.49700  23679433.18600                    507025.24940  23679438.23740
  31968455.55000  27626335.78000                  24980131.16140  27626343.40140
  -2375225.57500  26499845.42100                  -1805832.10940  26499851.08140
  28054328.43300  26841362.05400                  21934812.77640  26841368.22940
   3071474.15500  24263319.21800                   2440736.67540  24263323.17940
 96  9  6  2 32  0.0110000  0  6  4 14 15 18 25 29
    189241.09900  28191152.62400                    118244.35840  28191159.01140
    656664.70200  23691767.58500                    557532.16640  23691772.64740
  32129320.56400  27656947.25700                  25105480.45140  27656954.80840
  -2395629.52600  26495963.07700                  -1821731.25640  26495968.59740
  28200734.91900  26869221.92100                  22048895.74840  26869226.65540
   3109721.89800  24270597.49900                   2470540.12040  24270601.51840
 96  9  6  2 32 30.0110000  0  6  4 14 15 18 25 29
    208722.49300  28194858.99100                    133424.66440  28194865.65940
    722001.40700  23704200.62400                    608443.88440  23704205.80440
  32290158.19500  27687553.18600                  25230808.41240  27687560.78440
  -2415951.77000  26492095.40500                  -1837566.73140  26492101.27640
  28347218.38800  26897097.16300                  22163038.71740  26897101.92140
   3148144.53500  24277909.03800                   2500479.84940  24277913.08140
 96  9  6  2 33  0.0110000  0  6  4 14 15 18 25 29
    228698.73300  28198661.05400                    148990.54840  28198664.62840
    787883.11400  23716737.55400                    659780.27740  23716742.67540
  32450971.77900  27718155.41300                  25356117.57740  27718162.01140
  -2436167.66800  26488248.60100                  -1853319.33540  26488254.16740
  28493781.54200  26924987.46800                  22277243.80040  26924991.97940
   3186753.68500  24285256.15500                   2530564.91040  24285260.28040
 96  9  6  2 33 30.0110000  0  6  4 14 15 18 25 29
    249160.00100  28202554.78000                    164934.37340  28202560.33540
    854306.35200  23729377.57700                    711538.64340  23729382.55840
  32611736.13900  27748748.18600                  25481388.46840  27748755.58540
  -2456306.50300  26484416.10800                  -1869011.90840  26484422.05040
  28640391.06400  26952885.89000                  22391484.98940  26952890.53040
   3225546.56500  24292638.34300                   2560793.13740  24292642.24540
 96  9  6  2 34  0.0110000  0  6  4 14 15 18 25 29
    270121.80500  28206543.46000                    181268.26740  28206548.90940
    921285.02700  23742123.30400                    763729.82040  23742128.37840
  32772457.84300  27779332.31900                  25606626.08440  27779337.71040
  -2476368.89600  26480598.18600                  -1884644.89140  26480603.33140
  28787060.29400  26980796.45200                  22505772.68340  26980800.68340
   3264532.12500  24300056.71800                   2591171.51240  24300060.69040
 96  9  6  2 34 30.0110000  0  6  4 14 15 18 25 29
    291587.72200  28210628.42100                    197994.93940  28210632.48740
    988821.66500  23754974.98300                    816355.77240  23754980.16340
  32933142.53700  27809909.53800                  25731834.89040  27809915.47940
  -2496365.28600  26476793.16300                  -1900226.45140  26476798.41340
  28933804.13600  27008721.27200                  22620118.53640  27008724.82340
   3303703.84700  24307511.18600                   2621694.94440  24307515.05440
 96  9  6  2 35  0.0110000  0  6  4 14 15 18 25 29
    313550.60300  28214807.86600                    215108.89240  28214812.85840
   1056912.21700  23767932.28000                    869413.34640  23767937.46040
  33093789.51600  27840479.51500                  25857014.26640  27840487.08940
  -2516316.72200  26472996.55400                  -1915772.97740  26473002.26140
  29080616.57600  27036657.95200                  22734517.81240  27036663.35440
   3343050.23100  24314998.43600                   2652354.47740  24315002.39740
 96  9  6  2 35 30.0110000  0  6  4 14 15 18 25 29
    335992.22600  28219078.08500                    232595.83540  28219084.34340
   1125521.55600  23780988.15500                    922875.16840  23780993.33540
  33254385.09800  27871040.11600                  25982153.65740  27871048.13640
  -2536249.59400  26469203.24100                  -1931305.04640  26469209.08940
  29227481.35500  27064605.81900                  22848957.91440  27064609.56940
   3382569.79500  24322518.67100                   2683148.95740  24322522.64340
 96  9  6  2 36  0.0120000  0  6  4 14 15 18 25 29
    358905.63800  28223437.72300                    250450.43540  28223442.04740
   1194646.89900  23794142.14400                    976739.07440  23794147.25440
  33414941.06700  27901593.59800                  26107262.08340  27901600.44140
  -2556153.09700  26465415.66800                  -1946814.23740  26465421.46940
  29374408.63600  27092564.89400                  22963446.69940  27092569.57040
   3422264.22300  24330072.30100                   2714079.68940  24330076.37940
 96  9  6  2 36 30.0120000  0  6  4 14 15 18 25 29
    382279.46700  28227886.32400                    268663.83240  28227889.21940
   1264278.10200  23807392.56600                   1030997.15840  23807397.64140
  33575435.70100  27932133.74600                  26232322.81640  27932140.49640
  -2576024.05000  26461634.30900                  -1962298.04240  26461639.92240
  29521368.29000  27120530.41000                  23077960.72440  27120534.34840
   3462133.73000  24337659.26200                   2745146.85040  24337663.28140
 96  9  6  2 37  0.0120000  0  6  4 14 15 18 25 29
    406119.01300  28232422.70700                    287240.11640  28232427.62940
   1334414.76100  23820738.97300                   1085649.09940  23820744.04740
  33735862.60500  27962662.73800                  26357330.67440  27962669.23040
  -2595850.96400  26457861.60500                  -1977747.54440  26457866.70340
  29668358.15900  27148502.32400                  23192498.25840  27148507.14140
   3502187.29300  24345281.15200                   2776357.43040  24345285.11340
 96  9  6  2 37 30.0120000  0  6  4 14 15 18 25 29
    430427.34700  28237047.80900                    306181.65840  28237051.39440
   1405063.00900  23834182.91800                   1140699.68140  23834188.08640
  33896223.52900  27993178.18400                  26482287.22540  27993186.00440
  -2615609.39100  26454101.84800                  -1993143.69040  26454106.79340
  29815388.76600  27176480.94900                  23307067.57940  27176485.67240
   3542435.96500  24352940.24600                   2807720.04140  24352944.19540
 96  9  6  2 38  0.0120000  0  6  4 14 15 18 25 29
    455209.69900  28241763.79300                    325492.56340  28241769.26640
   1476229.71800  23847725.57400                   1196154.26240  23847730.74240
  34056513.78800  28023680.22300                  26607188.58240  28023689.03940
  -2635293.39100  26450356.01900                  -2008481.83640  26450361.60940
  29962475.30900  27204470.52700                  23421680.46940  27204473.83240
   3582858.24300  24360632.23000                   2839217.93440  24360636.33240
 96  9  6  2 38 30.0120000  0  6  4 14 15 18 25 29
    480480.15400  28246573.42600                    345183.85340  28246578.10140
   1547912.07300  23861366.26200                   1252010.64740  23861371.34840
  34216729.59300  28054168.43400                  26732032.06240  28054174.75040
  -2654915.65800  26446621.38700                  -2023771.88240  26446626.98840
  30109628.60400  27232473.44100                  23536345.34940  27232477.81240
   3623444.87000  24368355.69100                   2870843.88940  24368359.67640
 96  9  6  2 39  0.0120000  0  6  4 14 15 18 25 29
    506240.93000  28251475.13700                    365257.14340  28251480.22340
   1620120.86100  23875107.16000                   1308277.23640  23875112.31640
  34376872.30800  28084641.32400                  26856818.45940  28084647.92240
  -2674489.11400  26442897.23800                  -2039023.90040  26442902.31240
  30256854.80500  27260488.91800                  23651067.05740  27260493.40640
   3664199.39100  24376111.01200                   2902600.66940  24376114.98440
 96  9  6  2 39 30.0120000  0  6  4 14 15 18 25 29
    532475.08600  28256468.11300                    385699.33640  28256473.53940
   1692862.07400  23888949.14400                   1364958.70040  23888954.30140
  34536931.62500  28115100.87100                  26981539.95540  28115109.79340
  -2694032.64400  26439177.94900                  -2054252.59540  26439183.41040
  30404142.83200  27288516.91000                  23765836.97140  27288521.69140
   3705116.30900  24383897.03500                   2934483.98940  24383901.05540
 96  9  6  2 40  0.0120000  0  6  4 14 15 18 25 29
    559193.88400  28261552.01900                    406519.17240  28261558.33640
   1766153.58900  23902896.08200                   1422068.97340  23902901.26240
  34696913.99200  28145544.95700                  27106201.42240  28145555.66040
  -2713541.96300  26435465.51900                  -2069454.61040  26435471.18040
  30551495.94200  27316557.69900                  23880657.57140  27316562.05940
   3746209.92400  24391717.02700                   2966504.99640  24391721.00040
 96  9  6  2 40 30.0120000  0  6  4 14 15 18 25 29
    586389.49100  28266727.12900                    427710.55640  28266732.18040
   1840005.96600  23916949.81600                   1479616.28340  23916954.94940
  34856812.50600  28175972.21500                  27230797.64940  28175980.63340
  -2733009.97200  26431761.00400                  -2084624.44540  26431766.20740
  30698892.37500  27344606.24600                  23995511.94140  27344610.24240
   3787499.62000  24399574.25400                   2998678.79740  24399578.29740
 96  9  6  2 41  0.0120000  0  6  4 14 15 18 25 29
    614053.93100  28271991.36300                    449267.24640  28271995.93440
   1914429.19200  23931112.01900                   1537608.40740  23931117.21140
  35016625.60000  28206383.98000                  27355327.21940  28206391.64840
  -2752416.56600  26428067.62100                  -2099746.41440  26428072.87140
  30846322.19000  27372660.98000                  24110392.29940  27372665.87940
   3828997.72100  24407471.08200                   3031014.98940  24407475.10140
 96  9  6  2 41 30.0120000  0  6  4 14 15 18 25 29
    642177.80200  28277343.35500                    471181.93240  28277349.41440
   1989397.49400  23945378.23000                   1596025.26540  23945383.30540
  35176338.41900  28236776.05900                  27479778.75040  28236784.37140
  -2771752.67300  26424388.07400                  -2114813.49240  26424393.60540
  30993767.88200  27400718.97300                  24225285.05640  27400722.33640
   3870685.10500  24415403.80100                   3063498.67440  24415407.77340
 96  9  6  2 42  0.0120000  0  6  4 14 15 18 25 29
    670761.23700  28282783.24600                    493454.78040  28282789.17640
   2064881.86200  23959742.37100                   1654844.25240  23959747.49240
  35335946.28900  28267148.30100                  27604148.33440  28267155.87540
  -2791020.92800  26420721.54300                  -2129827.66640  26420726.53540
  31141221.75600  27428778.35500                  24340184.17540  27428782.01240
   3912554.95300  24423371.37900                   3096124.53740  24423375.44540
 96  9  6  2 42 30.0120000  0  6  4 14 15 18 25 29
    699813.78100  28288311.48800                    516093.09640  28288316.75040
   2140886.79000  23974205.73800                   1714068.86940  23974210.83640
  35495457.65300  28297503.35500                  27728442.86340  28297511.16440
  -2810226.88100  26417066.76900                  -2144793.31140  26417072.46540
  31288687.33400  27456840.17600                  24455092.43340  27456843.92640
   3954613.34000  24431374.78500                   3128897.31740  24431378.80540
 96  9  6  2 43  0.0120000  0  6  4 14 15 18 25 29
    729321.73700  28293925.55900                    539086.31040  28293931.87540
   2217384.20000  23988762.73800                   1773677.24140  23988767.89440
  35654858.14300  28327835.87100                  27852651.00640  28327844.86340
  -2829397.27900  26413418.33200                  -2159731.24340  26413423.71140
  31436144.39400  27484900.11300                  24569994.04240  27484905.23440
   3996840.27800  24439410.14400                   3161801.43440  24439414.24640
 96  9  6  2 43 30.0120000  0  7  4 14 15 18 19 25 29
    759292.83000  28299629.53500                    562440.41940  28299634.92640
   2294374.80500  24003413.38700                   1833669.91940  24003418.57840
  35814148.82800  28358148.49600                  27976773.48140  28358153.81640
  -2848534.56800  26409776.69100                  -2174643.36240  26409782.29340
    -27833.81710  28445068.76900
  31583591.90900  27512958.81600                  24684888.20640  27512964.27740
   4039248.95500  24447480.41000                   3194847.16640  24447484.32440
 96  9  6  2 44  0.0120000  0  7  4 14 15 18 19 25 29
    789744.75400  28305423.97300                    586169.18340  28305429.52740
   2371882.12800  24018162.50400                   1894065.23540  24018167.51940
  35973336.45400  28388440.01200                  28100815.70940  28388447.05940
  -2867639.16200  26406141.57400                  -2189530.01440  26406147.48040
    -64043.51300  28438178.16000
  31731045.71300  27541017.74600                  24799787.28640  27541020.04340
   4081857.67100  24455588.69900                   3228048.77840  24455592.53140
 96  9  6  2 44 30.0120000  0  7  4 14 15 18 19 25 29
    820688.20100  28311312.48800                    610280.96640  28311318.43040
   2449925.50500  24033013.68400                   1954878.25540  24033018.59440
  36132413.28700  28418711.67600                  28224771.58540  28418719.48440
  -2886702.32000  26402513.72300                  -2204384.36240  26402519.33640
   -100146.02500  28431308.79300                     -5617.79450  28431316.12140
  31878507.42200  27569079.21500                  24914692.49740  27569084.31240
   4124664.73400  24463734.37100                   3261404.94340  24463738.43740
 96  9  6  2 45  0.0120000  0  7  4 14 15 18 19 25 29
    852150.65100  28317299.53500                    634797.16040  28317305.31240
   2528517.78100  24047969.44900                   2016118.99340  24047974.48840
  36291387.70500  28448964.14400                  28348647.70940  28448972.05940
  -2905680.61700  26398902.10500                  -2219172.59240  26398907.43740
   -136129.23900  28424460.56600                    -33656.52540  28424467.05940
  32026001.62300  27597146.51200                  25029623.05240  27597151.35140
   4167689.56600  24471921.88700                   3294930.79940  24471925.82440
 96  9  6  2 45 30.0120000  0  7  4 14 15 18 19 25 29
    884120.71400  28323383.52700                    659708.91540  28323387.62940
   2607643.14500  24063026.36300                   2077775.11840  24063031.44940
  36450234.88500  28479191.13700                  28472424.62940  28479197.47640
  -2924593.79500  26395303.40200                  -2233910.08640  26395309.02740
   -172024.23900  28417629.33200                    -61626.60240  28417635.98840
  32173526.56200  27625219.19100                  25144577.53540  27625224.57040
   4210904.78000  24480145.44100                   3328605.00440  24480149.44940
 96  9  6  2 46  0.0120000  0  7  4 14 15 18 19 25 29
    916616.88300  28329566.67600                    685030.60640  28329572.75840
   2687309.24100  24078186.16000                   2139852.59740  24078191.35140
  36608963.92300  28509396.44900                  28596109.49340  28509403.39140
  -2943436.43700  26391717.24600                  -2248592.62040  26391722.63740
   -207820.64900  28410817.71500                    -89519.74340  28410826.26240
  32321108.29100  27653303.60500                  25259576.27240  27653309.85140
   4254307.58500  24488404.69100                   3362425.38840  24488408.67640
 96  9  6  2 46 30.0120000  0  7  4 14 15 18 19 25 29
    949614.42000  28335845.75400                    710743.00640  28335850.74640
   2767495.58800  24093445.05900                   2202335.46540  24093450.25040
  36767563.03100  28539577.19100                  28719693.17840  28539582.73440
  -2962225.25100  26388142.40200                  -2263233.18440  26388147.58240
   -243519.25200  28404024.63700                   -117336.71640  28404030.09840
  32468725.66400  27681393.68400                  25374602.80940  27681398.16040
   4297890.47400  24496698.19900                   3396386.09340  24496702.18440
 96  9  6  2 47  0.0120000  0  7  4 14 15 18 19 25 29
    983094.60500  28342217.48800                    736831.40840  28342222.00040
   2848202.99400  24108803.48800                   2265224.35340  24108808.75040
  36926039.85200  28569734.61300                  28843181.51040  28569739.19540
  -2980971.60200  26384574.41800                  -2277840.68240  26384579.89140
   -279110.59100  28397250.86300                   -145070.03440  28397262.11740
  32616376.54500  27709490.72300                  25489655.42240  27709493.92240
   4341653.30800  24505026.02700                   3430487.01240  24505029.90640
 96  9  6  2 47 30.0120000  0  7  4 14 15 18 19 25 29
   1017029.85200  28348675.74600
   2929425.04400  24124259.44100                   2328514.26240  24124264.82040
  37084382.13900  28599865.37100                  28966565.08840  28599874.83240
  -2999703.63000  26381010.18400                  -2292437.01040  26381015.23440
   -314602.95900  28390498.01200                   -172726.21240  28390503.59040
  32764040.23600  27737590.46500                  25604718.02440  27737595.05940
   4385569.89500  24513383.03500                   3464707.74440  24513386.82040
 96  9  6  2 48  0.0120000  0  6  4 14 18 19 25 29
   1051399.09200  28355214.18400
   3011147.16500  24139810.54300                   2392193.83740  24139815.74640
  -3018412.73200  26377449.91000                  -2307015.47340  26377455.11340
   -350005.04800  28383760.83200                   -200312.09940  28383767.50040
  32911689.25800  27765688.05900                  25719769.18840  27765692.66440
   4429630.56500  24521767.54300                   3499040.74340  24521771.42240
 96  9  6  2 48 30.0120000  0  6  4 14 18 19 25 29
   1086197.24100  28361836.93400                       908.16850  28361841.32840
   3093391.10100  24155461.05100                   2456280.02140  24155466.09040
  -3037070.99400  26373899.33200                  -2321554.33340  26373904.71140
   -385311.40900  28377042.37900                   -227823.40140  28377048.13340
  33059324.94000  27793781.55900                  25834809.99840  27793785.35540
   4473833.37100  24530179.03500                   3533484.49640  24530182.86740
 96  9  6  2 49  0.0120000  0  6  4 14 18 19 25 29
   1121432.53200  28368541.63700                     28364.27240  28368547.03940
   3176160.54000  24171211.51900                   2520775.69040  24171216.65240
  -3055655.22600  26370362.84800                  -2336035.48340  26370368.20340
   -420527.37900  28370341.07400                   -255264.29140  28370349.01240
  33206955.82500  27821874.66000                  25949847.04840  27821879.64140
   4518158.54800  24538613.75400                   3568023.60640  24538617.72640
 96  9  6  2 49 30.0120000  0  6  4 14 18 19 25 29
   1157130.53900  28375334.81600                     56180.94040  28375340.89840
   3259446.38700  24187060.21500                   2585673.74840  24187065.32440
  -3074151.58600  26366842.75400                  -2350448.18540  26366848.14440
   -455654.50500  28363655.85500                   -282635.90140  28363664.13340
  33354593.95100  27849968.45700                  26064889.76540  27849973.30940
   4562626.02800  24547075.73800                   3602673.59840  24547079.65240
 96  9  6  2 50  0.0130000  0  6  4 14 18 19 25 29
   1193316.51300  28382220.26700                     84377.76040  28382225.79840
   3343255.40100  24203008.77400                   2650979.47040  24203013.94240
  -3092552.90300  26363341.38400                  -2364786.82940  26363346.90340
   -490685.48100  28356989.75100                   -309932.58840  28356997.12640
  33502253.87600  27878067.58700                  26179949.41940  27878071.67740
   4607266.40300  24555570.39900                   3637458.31540  24555574.29040
 96  9  6  2 50 30.0130000  0  6  4 14 18 19 25 29
   1229997.15900  28389200.99300                    112960.09240  28389207.53240
   3427589.84300  24219057.03200                   2716694.62140  24219062.22440
  -3110883.32200  26359852.83700                  -2379070.21740  26359858.18140
   -525613.25700  28350342.61800                   -337148.91740  28350351.58740
  33649927.12300  27906168.07100                  26295019.46540  27906172.68840
   4652096.57600  24564101.20400                   3672390.92740  24564105.05940
 96  9  6  2 51  0.0130000  0  6  4 14 18 19 25 29
   1267197.24500  28396280.30600                    141947.14840  28396287.10240
   3512439.98800  24235203.62600                   2782811.61640  24235208.79440
  -3129170.36000  26356372.56300                  -2393319.82540  26356377.01740
   -560431.32500  28343717.14900                   -364279.70040  28343725.84940
  33797608.12100  27934271.96200                  26410095.59340  27934277.04840
   4697152.81000  24572675.21200                   3707499.68940  24572679.18440
 96  9  6  2 51 30.0130000  0  6  4 14 18 19 25 29
   1304903.48400  28403454.40700                    171328.68140  28403459.09540
   3597793.41000  24251445.73500                   2849320.77640  24251450.88040
  -3147438.49800  26352896.83700                  -2407554.67840  26352902.39240
   -595150.70100  28337110.60200                   -391333.60740  28337116.90740
  33945275.28000  27962372.37600                  26525160.91040  27962377.55640
   4742444.50200  24581293.97700                   3742791.92740  24581297.85640
 96  9  6  2 52  0.0130000  0  6  4 14 18 19 25 29
   1343100.99700  28410724.46200                    201092.95940  28410726.85240
   3683660.85000  24267785.68100                   2916230.46740  24267790.87240
  -3165673.08700  26349426.93100                  -2421763.42340  26349432.08740
   -629755.33300  28330526.20400                   -418298.11940  28330531.57140
  34092920.20500  27990467.84500                  26640208.90240  27990472.82540
   4787964.72400  24589956.12600                   3778262.24040  24589960.05240
 96  9  6  2 52 30.0130000  0  6  4 14 18 19 25 29
   1381768.00300  28418082.45400                    231223.06840  28418087.62240
   3770042.60900  24284223.68100                   2983540.92740  24284228.89540
  -3183869.48900  26345964.32900                  -2435942.39040  26345969.33340
   -664240.41100  28323962.89900                   -445169.43940  28323970.09940
  34240542.40100  28018559.50100                  26755239.16940  28018562.53640
   4833699.97000  24598659.21200                   3813900.10340  24598663.16140
 96  9  6  2 53  0.0130000  0  6  4 14 18 19 25 29
   1420901.55700  28425528.68800                    261716.75040  28425535.60640
   3856935.55500  24300758.82100                   3051249.71740  24300764.02440
  -3201990.76700  26342515.60200                  -2450062.83040  26342521.11040
   -698608.72500  28317422.27400                   -471949.75940  28317430.09540
  34388144.03400  28046647.53200                  26870253.42840  28046651.86840
   4879626.21400  24607398.63400                   3849686.80040  24607402.64240
 96  9  6  2 53 30.0130000  0  6  4 14 18 19 25 29
   1460459.96900  28433056.20400                    292541.45640  28433059.61440
   3944322.51100  24317387.93100                   3119343.45140  24317393.01740
  -3220033.52800  26339082.43800                  -2464122.09240  26339087.98140
   -732879.65900  28310900.89200                   -498654.22740  28310907.20840
  34535712.50100  28074728.34500                  26985241.84740  28074732.55240
   4925703.01800  24616166.81300                   3885590.81640  24616170.77440
 96  9  6  2 54  0.0130000  0  6  4 14 18 19 25 29
   1500477.19000  28440672.14200                    323723.69540  28440676.95840
   4032235.00100  24334117.22700                   3187846.69040  24334122.30240
  -3237966.26600  26335669.75900                  -2478095.60840  26335674.79840
   -767020.55700  28304404.28200                   -525257.39140  28304409.81340
  34683280.94200  28102809.93800                  27100230.24640  28102815.15340
   4971958.13100  24624968.86000                   3921633.77440  24624972.85640
 96  9  6  2 54 30.0130000  0  6  4 14 18 19 25 29
   1540966.74400  28448376.60200                    355274.01740  28448380.91540
   4120671.13400  24350946.04800                   3256757.96140  24350951.06340
  -3255809.98600  26332274.48500                  -2491999.77340  26332279.30240
   -801048.90800  28297928.75100                   -551772.92140  28297934.09540
  34830843.01400  28130889.40700                  27215213.70140  28130894.09540
   5018379.76400  24633802.68100                   3957806.48640  24633806.67740
 96  9  6  2 55  0.0130000  0  6  4 14 18 19 25 29
   1581932.78000  28456172.70400                    387195.57040  28456178.77440
   4209612.80200  24367871.07100                   3326063.15540  24367876.08740
  -3273565.70200  26328895.56300                  -2505835.36640  26328900.88440
   -834971.27500  28291473.29000                   -578205.84040  28291478.75140
  34978388.88300  28158966.96200                  27330184.48640  28158972.04840
   5064981.34600  24642670.68100                   3994119.41940  24642674.52440
 96  9  6  2 55 30.0130000  0  6  4 14 18 19 25 29
   1623379.94900  28464060.43800                    419492.03440  28464065.11440
   4299058.34000  24384892.10200                   3395760.97940  24384897.14240
  -3291255.12400  26325528.95400                  -2519619.29140  26325534.55640
   -868779.65800  28285039.22700                   -604549.91540  28285044.63040
  35125921.62900  28187042.09500                  27445145.05940  28187046.39540
   5111784.77600  24651576.83700                   4030589.63440  24651580.78640
 96  9  6  2 56  0.0130000  0  6  4 14 18 19 25 29
   1665325.51900  28472041.55600                    452176.88240  28472046.54840
   4389013.23300  24402009.81300                   3465855.69940  24402014.87640
  -3308878.86000  26322175.25900                  -2533352.03140  26322180.52040
   -902472.90200  28278626.77400                   -630804.20940  28278635.15740
  35273443.00400  28215113.47700                  27560096.77740  28215117.49740
   5158791.09500  24660522.14900                   4067217.94640  24660526.00540
 96  9  6  2 56 30.0130000  0  6  4 14 18 19 25 29
   1707764.06200  28480117.74300                    485245.88340  28480122.97040
   4479476.15100  24419224.25100                   3536346.28040  24419229.29040
  -3326432.23500  26318834.86800                  -2547029.94640  26318840.57540
   -936044.80500  28272240.08700                   -656963.97240  28272246.77840
  35420958.83700  28243185.36800                  27675044.19940  28243191.13440
   5205996.08400  24669504.85200                   4104001.07240  24669508.86040
 96  9  6  2 57  0.0130000  0  6  4 14 18 19 25 29
   1750677.83200  28488283.46200                    518685.18340  28488288.09140
   4570436.07800  24436533.44600                   3607224.14740  24436538.55640
  -3343923.41300  26315506.12600                  -2560659.39840  26315511.38840
   -969499.31700  28265873.81300                   -683032.33540  28265880.02440
  35568461.18800  28271253.83700                  27789981.07440  28271257.32940
   5253396.59000  24678524.64900                   4140936.53740  24678528.63440
 96  9  6  2 57 30.0130000  0  6  4 14 18 19 25 29
   1794069.80000  28496540.89200                    552497.07340  28496548.77040
   4661908.85200  24453940.01700                   3678501.63340  24453945.12640
  -3361372.86800  26312186.02400                  -2574256.34440  26312191.25140
  -1002842.93100  28259528.84500                   -709014.32640  28259535.65340
  35715946.81200  28299319.38400                  27904904.97340  28299325.17340
   5300966.94800  24687577.26700                   4178004.36440  24687581.16940
 96  9  6  2 58  0.0130000  0  6  4 14 18 19 25 29
   1837937.87000  28504889.11000                    586679.99240  28504896.07540
   4753899.22000  24471445.36800                   3750182.43540  24471450.59540
  -3378780.68400  26308873.55600                  -2587820.83440  26308878.92340
  -1036070.27700  28253204.50900                   -734905.70040  28253212.09540
  35863415.15100  28327381.79000                  28019815.39540  28327386.77040
   5348708.20200  24696661.97700                   4215205.35040  24696665.84540
 96  9  6  2 58 30.0130000  0  6  4 14 18 19 25 29
   1882247.71500  28513320.20400                    621207.14540  28513324.98540
   4846379.96100  24489043.81300                   3822245.34740  24489049.01740
  -3396177.22200  26305562.97700                  -2601376.54440  26305568.04040
  -1069208.19800  28246898.67300                   -760727.36340  28246904.05240
  36010835.07600  28355435.68800                  28134688.07640  28355440.65740
   5396610.49600  24705777.33700                   4252531.82440  24705781.26340
 96  9  6  2 59  0.0130000  0  6  4 14 18 19 25 29
   1927024.47100  28521841.50100                    656098.12240  28521846.63440
   4939371.31900  24506739.41500                   3894706.14340  24506744.51340
  -3413546.83300  26302257.72000                  -2614911.25440  26302263.27440
  -1102244.49700  28240612.42300                   -786469.81840  28240619.02040
  36158213.74700  28383480.71200                  28249528.61540  28383483.97040
   5444700.48100  24714928.58700                   4290004.55240  24714932.53640
 96  9  6  2 59 30.0130000  0  6  4 14 18 19 25 29
   1972272.28900  28530451.77400                    691356.09940  28530458.51340
   5032884.03400  24524534.23500                   3967573.19240  24524539.39240
  -3430867.73600  26298961.59500                  -2628408.02440  26298966.88040
  -1135159.91800  28234349.18100                   -812118.10040  28234355.97740
  36305561.31900  28411520.36000                  28364344.92640  28411525.29440
   5493003.48200  24724120.32900                   4327643.26440  24724124.23140
 96  9  6  3  0  0.0130000  0  6  4 14 18 19 25 29
   2017978.38500  28539149.47000                    726971.23640  28539154.45040
   5126893.98400  24542423.72700                   4040827.69640  24542428.90740
  -3448123.23200  26295677.77400                  -2641853.83240  26295683.00140
  -1167956.28100  28228107.89900                   -837673.62240  28228113.84140
  36452864.76100  28439550.88400                  28479126.83740  28439556.18140
   5541520.71900  24733352.78200                   4365448.91340  24733356.68440
 96  9  6  3  0 30.0130000  0  6  4 14 18 19 25 29
   2064144.60700  28547934.80600                    762944.90240  28547939.21240
   5221408.50900  24560409.34500                   4114475.37540  24560414.60640
  -3465291.09300  26292410.97700                  -2655231.33440  26292415.93440
  -1200636.27500  28221888.79800                   -863138.45340  28221895.00940
  36600114.35400  28467571.68100                  28593866.82840  28467577.35240
   5590243.49600  24742624.64900                   4403414.72740  24742628.56340
 96  9  6  3  1  0.0130000  0  6  4 14 18 19 25 29
   2110780.70900  28556808.98500                    799284.71440  28556813.86040
   5316425.53500  24578490.29000                   4188514.61540  24578495.43440
  -3482361.36600  26289162.60200                  -2668532.82340  26289167.72440
  -1233189.64100  28215694.51700                   -888504.60740  28215698.43140
  36747313.17200  28495582.25900                  28708567.20140  28495589.51740
   5639167.80200  24751934.43100                   4441537.57340  24751938.29840
 96  9  6  3  1 30.0130000  0  6  4 14 18 19 25 29
   2157883.26200  28565772.43800                    835987.98840  28565777.18440
   5411938.59300  24596665.99300                   4262940.37640  24596670.98540
  -3499327.59600  26285934.04800                  -2681753.22940  26285938.91140
  -1265609.17700  28209524.98500                   -913766.46140  28209530.51740
  36894457.67600  28523582.75100                  28823225.30340  28523586.89940
   5688279.88200  24761280.27400                   4479806.74040  24761284.02440
 96  9  6  3  2  0.0130000  0  6  4 14 18 19 25 29
   2205461.90900  28574826.09500                    873062.25740  28574831.94240
   5507943.34800  24614935.06300                   4337749.27640  24614940.07940
  -3516196.84900  26282723.79000                  -2694898.06340  26282728.91140
  -1297908.98300  28203378.59500                   -938935.04840  28203385.08740
  37041535.93300  28551570.89900                  28937831.74140  28551576.39540
   5737557.83000  24770657.29000                   4518205.15140  24770661.19240
 96  9  6  3  2 30.0130000  0  6  4 14 18 19 25 29
   2253528.65800  28583972.71200                    910516.81040  28583977.99740
   5604452.81900  24633300.39200                   4412951.46140  24633305.44240
  -3532975.86400  26279530.68800                  -2707972.58040  26279535.80940
  -1330086.83400  28197255.32100                   -964008.58440  28197260.60640
  37188563.65300  28579549.45400                  29052398.79140  28579550.09940
   5787011.98600  24780068.39900                   4556740.86840  24780072.33740
 96  9  6  3  3  0.0130000  0  6  4 14 18 19 25 29
   2302096.22800  28593215.65700                    948361.65340  28593221.25940
   5701463.59000  24651760.87600                   4488544.26440  24651766.12640
  -3549674.66400  26276353.26700                  -2720984.60040  26276358.24740
  -1362132.13300  28191156.39900                   -988978.81640  28191162.57540
  37335561.77100  28607522.43100                  29166942.84440  28607526.08740
   5836664.25200  24789516.73500                   4595430.95940  24789520.68440
 96  9  6  3  3 30.0130000  0  6  4 14 18 19 25 29
   2351156.69800  28602550.77400                    986590.58040  28602555.47440
   5798983.06100  24670318.04000                   4564533.45840  24670323.22040
  -3566293.49900  26273190.83700                  -2733934.31140  26273195.95840
  -1394047.75500  28185083.25900                  -1013848.00140  28185091.20840
  37482540.73800  28635491.61800                  29281471.95140  28635495.27440
   5886528.68000  24799005.62600                   4634286.36140  24799009.69240
 96  9  6  3  4  0.0140000  0  6  4 14 18 19 25 29
   2400687.94400  28611976.67000                   1025186.31240  28611983.33840
   5897002.96400  24688970.72500                   4640912.60740  24688975.88140
  -3582860.94100  26270037.80300                  -2746843.97540  26270042.63140
  -1425858.75400  28179029.38100                  -1038635.66240  28179035.92040
  37629494.88300  28663455.50600                  29395981.70040  28663461.58840
   5936614.30100  24808536.62300                   4673314.12940  24808540.54940
 96  9  6  3  4 30.0140000  0  6  4 14 18 19 25 29
   2450683.29400  28621490.82600                   1064143.70540  28621495.33840
   5995537.29900  24707721.04500                   4717692.61140  24707726.26040
  -3599367.92000  26266896.94300                  -2759706.50740  26266902.18240
  -1457550.22100  28172999.31800                  -1063330.22040  28173005.31840
  37776432.16700  28691416.85700                  29510478.36840  28691419.20140
   5986944.90900  24818114.28700                   4712532.79840  24818118.14240
 96  9  6  3  5  0.0140000  0  6  4 14 18 19 25 29
   2501125.26200  28631089.08400                   1103448.88740  28631099.41240
   6094586.03900  24726569.68500                   4794873.44940  24726574.77140
  -3615813.94200  26263767.37300                  -2772521.55540  26263772.31840
  -1489122.34700  28166991.77100                  -1087931.75140  28166996.93940
  37923346.34400  28719373.91200                  29624956.84340  28719379.57240
   6037519.85500  24827738.24800                   4751941.85840  24827742.20940
 96  9  6  3  5 30.0140000  0  5  4 14 18 19 29
   2551995.61000  28640770.16200
   6194140.28700  24745514.29500                   4872448.18340  24745519.47540
  -3632199.73200  26260648.77100                  -2785289.66340  26260653.29540
  -1520592.99000  28161002.20900                  -1112454.23740  28161008.33840
   6088315.92800  24837404.42800                   4791523.22240  24837408.36540
 96  9  6  3  6  0.0140000  0  5  4 14 18 19 29
   2603306.85400  28650533.52900                      4011.00950  28650540.22140
   6294204.16800  24764555.52100                   4950420.03640  24764560.60740
  -3648516.92200  26257543.77900                  -2798004.32840  26257548.83040
  -1551956.18900  28155033.31000                  -1136892.96740  28155039.92040
   6139318.47200  24847109.81800                   4831265.47340  24847113.62740
 96  9  6  3  6 30.0140000  0  5  4 14 18 19 29
   2655065.61800  28660383.10700                     44342.48840  28660387.71340
   6394752.10300  24783689.23200                   5028769.07440  24783694.37740
  -3664750.71300  26254454.74000                  -2810653.99640  26254460.45940
  -1583211.32600  28149085.82600                  -1161247.49740  28149090.92440
   6190500.67800  24856849.45900                   4871147.72340  24856853.25640
 96  9  6  3  7  0.0140000  0  5  4 14 18 19 29
   2707290.96600  28670321.58400                     85037.55840  28670327.83040
   6495759.94100  24802910.43500                   5107476.47640  24802915.65040
  -3680893.26600  26251383.00600                  -2823232.57040  26251387.96340
  -1614338.32500  28143163.17800                  -1185502.15840  28143170.41240
   6241855.07200  24866622.10000                   4911164.14140  24866625.96740
 96  9  6  3  7 30.0140000  0  5  4 14 18 19 29
   2760011.50900  28680353.95900                    126118.47140  28680359.16240
   6597226.47200  24822218.73200                   5186541.30440  24822223.85340
  -3696942.32500  26248328.95100                  -2835738.28940  26248334.29540
  -1645326.02600  28137265.85000                  -1209648.39240  28137271.22840
   6293377.70500  24876426.44300                   4951311.65640  24876430.28740
 96  9  6  3  8  0.0140000  0  5  4 14 18 19 29
   2813233.78500  28690481.86500                    167590.31040  28690488.19340
   6699154.39900  24841614.73200                   5265965.66640  24841619.95940
  -3712898.05700  26245292.75600                  -2848171.29640  26245297.88940
  -1676157.10300  28131399.20900                  -1233672.55540  28131407.11140
   6345078.74300  24886264.74000                   4991598.18840  24886268.64240
 96  9  6  3  8 30.0140000  0  5  4 14 18 19 29
   2866962.36700  28700706.17800                    209456.69840  28700712.08440
   6801546.94800  24861099.71700                   5345752.06540  24861104.97840
  -3728744.29500  26242277.13900                  -2860518.97340  26242282.23640
  -1706822.76600  28125562.53700                  -1257567.79340  28125568.03340
   6396980.23800  24896141.47500                   5032040.92140  24896145.41240
 96  9  6  3  9  0.0140000  0  5  4 14 18 19 29
   2921196.20800  28711026.73200                    251716.81640  28711032.74440
   6904436.37200  24880678.95900                   5425925.64440  24880684.12740
  -3744480.46200  26239282.26400                  -2872780.89040  26239287.16240
  -1737320.16100  28119759.79500                  -1281331.85040  28119767.21740
   6449107.12000  24906060.76400                   5072659.28040  24906064.59640
 96  9  6  3  9 30.0140000  0  5  4 14 18 19 29
   2975893.33300  28721435.31800                    294337.93640  28721441.45940
   7007822.31400  24900352.62300                   5506486.12040  24900357.85040
  -3760123.26400  26236305.67800                  -2884970.05640  26236310.61140
  -1767694.78400  28113980.13100                  -1305000.31640  28113986.63540
   6501449.95600  24916021.23200                   5113445.91440  24916025.06440
 96  9  6  3 10  0.0140000  0  5  4 14 18 19 29
   3031032.31400  28731927.78700                    337303.34340  28731933.92840
   7111705.47900  24920120.98200                   5587434.03640  24920126.15040
  -3775657.26400  26233349.86500                  -2897074.43040  26233354.54140
  -1797961.79400  28108220.22500                  -1328584.91040  28108225.95540
   6554021.86700  24926025.49000                   5154411.04940  24926029.32240
 96  9  6  3 10 30.0140000  0  5  4 14 18 19 29
   3086604.45300  28742502.12300                    380606.31040  28742507.32640
   7216070.20700  24939980.70100                   5668757.20240  24939985.85740
  -3791091.19400  26230412.99000                  -2909100.83240  26230418.26440
  -1828137.02400  28102477.77100                  -1352098.03840  28102483.61940
   6606806.44900  24936069.80300                   5195541.90340  24936073.68240
 96  9  6  3 11  0.0140000  0  5  4 14 18 19 29
   3142602.28400  28753157.93500                    424240.97440  28753163.68940
   7320918.55600  24959932.88100                   5750457.21740  24959938.01440
  -3806449.15300  26227490.06800                  -2921068.04940  26227495.02540
  -1858219.08300  28096752.77900                  -1375538.51640  28096758.75640
   6659796.73600  24946153.49800                   5236833.04840  24946157.37740
 96  9  6  3 11 30.0140000  0  5  4 14 18 19 29
   3199032.50300  28763896.72500                    468212.53640  28763902.97140
   7426245.88500  24979975.85000                   5832530.46440  24979981.06440
  -3821731.43800  26224581.91200                  -2932976.29040  26224586.63540
  -1888189.09300  28091049.67000                  -1398891.70240  28091055.30740
   6712990.94800  24956276.06000                   5278283.09640  24956280.02140
 96  9  6  3 12  0.0140000  0  5  4 14 18 19 29
   3255901.80500  28774719.03700                    512526.26340  28774723.85340
   7532044.26100  25000108.67800                   5914970.75440  25000113.88140
  -3836947.47700  26221686.06000                  -2944832.91240  26221690.95940
  -1918030.12000  28085371.85700                  -1422144.35140  28085377.92840
   6766382.65500  24966436.18500                   5319887.03240  24966440.15840
 96  9  6  3 12 30.0140000  0  5  4 14 18 19 29
   3313213.79000  28785624.66200                    557184.97140  28785630.63940
   7638320.47300  25020332.45900                   5997783.38640  25020337.62740
  -3852117.56000  26218799.52100                  -2956653.71340  26218804.10340
  -1947737.43400  28079718.24000                  -1445292.83340  28079724.28740
   6819966.57400  24976632.93500                   5361640.75040  24976636.76740
 96  9  6  3 13  0.0140000  0  5  4 14 18 19 29
   3370967.03300  28796614.80300                    602187.47740  28796620.05340
   7745087.33900  25040649.41200                   6080978.34640  25040654.59240
  -3867227.38700  26215924.24800                  -2968427.57340  26215928.73640
  -1977302.86500  28074091.93500                  -1468330.74640  28074098.24040
   6873762.07700  24986869.69300                   5403559.33440  24986873.50240
 96  9  6  3 13 30.0140000  0  5  4 14 18 19 29
   3429155.86000  28807687.89600                    647529.37040  28807693.35740
   7852320.08900  25061055.25600                   6164536.33540  25061060.29540
  -3882258.29700  26213063.94300                  -2980139.93640  26213068.68940
  -2006736.24100  28068491.07600                  -1491265.78740  28068497.46340
   6927760.21700  24997145.26400                   5445635.81940  24997149.04940
 96  9  6  3 14  0.0140000  0  5  4 14 18 19 29
   3487782.32500  28818844.11500                    693212.37740  28818849.63540
   7960019.76100  25081549.81000                   6248458.15540  25081554.96740
  -3897191.55900  26210222.34200                  -2991776.20840  26210226.93540
  -2036047.13100  28062913.61500                  -1514105.33240  28062919.65040
   6981959.21600  25007459.10000                   5487868.81640  25007462.76740
 96  9  6  3 14 30.0140000  0  5  4 14 18 19 29
   3546857.46800  28830085.95100                    739244.92740  28830092.27940
   8068189.44200  25102133.63100                   6332746.21040  25102138.77540
  -3912007.92500  26207402.80300                  -3003321.39740  26207407.60740
  -2065230.45500  28057359.86500                  -1536845.51440  28057365.64240
   7036362.72200  25017811.85700                   5530261.16640  25017815.73640
 96  9  6  3 15  0.0140000  0  5  4 14 18 19 29
   3606370.41100  28841410.40400                    785618.63740  28841416.48640
   8176799.52700  25122801.49800                   6417377.44340  25122806.66640
  -3926696.48900  26204607.50600                  -3014766.99340  26204612.22840
  -2094288.31400  28051830.21700                  -1559487.91240  28051836.69740
   7090956.42300  25028200.48200                   5572801.72540  25028204.38540
 96  9  6  3 15 30.0140000  0  5  4 14 18 19 29
   3666329.04400  28852821.01400                    832339.66340  28852825.97140
   8285850.63800  25143553.31800                   6502352.33540  25143558.39240
  -3941264.25900  26201835.46700                  -3026118.46940  26201840.33040
  -2123216.08500  28046325.05300                  -1582028.92840  28046331.62740
   7145738.76100  25038625.15400                   5615489.27440  25038628.93940
 96  9  6  3 16  0.0140000  0  5  4 14 18 19 29
   3726743.67800  28864316.61500                    879416.00540  28864322.40440
   8395366.25300  25164393.35000                   6587689.17440  25164398.37740
  -3955721.74000  26199084.29500                  -3037384.00740  26199089.00640
  -2152003.19100  28040847.74000                  -1604460.37440  28040853.49440
   7200725.28600  25049088.77900                   5658335.92440  25049092.58840
 96  9  6  3 16 30.0140000  0  5  4 14 18 19 29
   3787602.07000  28875897.74000                    926838.12940  28875904.03340
   8505325.53000  25185318.07600                   6673371.72740  25185323.06840
  -3970097.46100  26196348.55300                  -3048585.83440  26196353.36940
  -2180655.47600  28035395.79500                  -1626786.78240  28035401.72540
   7255915.21800  25059591.03700                   5701341.07240  25059594.92840
 96  9  6  3 17  0.0140000  0  5  4 14 18 19 29
   3848920.75000  28887566.68500                    974618.89540  28887572.43940
   8615759.19400  25206332.73200                   6759423.93040  25206337.83040
  -3984377.17900  26193631.43500                  -3059712.85040  26193635.85340
  -2209147.80900  28029973.30300                  -1648988.53140  28029979.81840
   7311345.40000  25070138.98200                   5744533.42740  25070142.95540
 96  9  6  3 17 30.0140000  0  5  4 14 18 19 29
   3910676.92800  28899318.31000                   1022740.58840  28899324.41640
   8726643.52700  25227433.45100                   6845827.30640  25227438.73640
  -3998599.80900  26190925.10700                  -3070795.38840  26190929.95940
  -2237516.79200  28024575.07600                  -1671094.13040  28024580.97140
   7366993.07100  25080728.49000                   5787895.25640  25080732.31040
 96  9  6  3 18  0.0140000  0  5  4 14 18 19 29
   3972873.06000  28911154.15400                   1071205.09140  28911159.51040
   8837974.25600  25248618.94300                   6932578.51940  25248624.07640
  -4012750.92800  26188232.13900                  -3081822.20340  26188236.83840
  -2265762.29000  28019199.72500                  -1693103.52040  28019206.35740
   7422863.98700  25091360.43500                   5831431.04340  25091364.17440
 96  9  6  3 18 30.0150000  0  5  4 14 18 19 29
   4035486.30700  28923068.59700                   1119994.66340  28923074.16340
   8949748.08800  25269888.88600                   7019675.01440  25269894.07740
  -4026823.19500  26185553.93300                  -3092787.57740  26185558.71440
  -2293896.04600  28013846.03400                  -1715025.84240  28013852.03440
   7478953.54500  25102033.94800                   5875137.20640  25102037.81540
 96  9  6  3 19  0.0150000  0  5  4 14 18 19 29
   4098512.88400  28935062.58900                   1169106.23340  28935068.62440
   9061964.81000  25291242.83100                   7107116.61140  25291248.04640
  -4040800.77400  26182894.05000                  -3103679.16740  26182898.66740
  -2321915.87100  28008513.81500                  -1736859.39540  28008520.14340
   7535253.99300  25112747.42500                   5919007.69340  25112751.15140
 96  9  6  3 19 30.0150000  0  5  4 14 18 19 29
   4161941.23400  28947132.73700                   1218530.93440  28947136.94440
   9174608.20400  25312678.39300                   7194890.68540  25312683.42140
  -4054691.00400  26180250.93300                  -3114502.69240  26180255.81940
  -2349838.22600  28003199.98700                  -1758617.01740  28003205.61240
   7591744.62100  25123497.23700                   5963026.37440  25123500.96440
 96  9  6  3 20  0.0150000  0  5  4 14 18 19 29
   4225788.92100  28959282.19800                   1268282.40240  28959288.24540
   9287724.59100  25334203.51800                   7283033.32140  25334208.68640
                  26177630.14300
  -2377626.87500  27997912.26100                  -1780270.40340  27997917.52240
   7648455.80200  25134289.07300                   6007216.91640  25134292.75340
 96  9  6  3 20 30.0150000  0  5  4 14 18 19 29
   4290069.60800  28971514.37800                   1318371.24540  28971520.33140
   9401321.22000  25355820.31500                   7371550.17540  25355825.53040
    -13183.20100  26175034.65100
  -2405281.87900  27992649.41700                  -1801819.66140  27992655.69840
   7705389.60400  25145123.01800                   6051580.92640  25145126.86240
 96  9  6  3 21  0.0150000  0  5  4 14 18 19 29
   4354786.81500  28983829.81500                   1368800.24540  28983834.91340
   9515368.11200  25377522.60400                   7460417.87740  25377527.80840
    -26712.04800  26172460.03400                     -2803.94650  26172464.71040
  -2432814.02800  27987410.18300                  -1823273.21940  27987416.75740
   7762524.59600  25155995.48700                   6096101.70640  25155999.40140
 96  9  6  3 21 30.0150000  0  5  4 14 18 19 29
   4419927.65100  28996225.77600                   1419559.32240  28996230.78040
   9629843.18200  25399306.44000                   7549619.22840  25399311.74940
    -40144.06200  26169904.19800                    -13270.42940  26169909.15540
  -2460229.43700  27982192.98700                  -1844635.81140  27982198.42540
   7819851.26700  25166904.53400                   6140771.84940  25166908.47240
 96  9  6  3 22  0.0150000  0  5  4 14 18 19 29
   4485509.43300  29008705.51100                   1470662.01340  29008710.08140
   9744743.10300  25421171.31500                   7639151.62840  25421176.67140
    -53478.55900  26167366.63600                    -23660.91740  26167371.65140
  -2487528.06500  27976998.71400                  -1865907.36040  27977005.34740
   7877375.98800  25177851.14300                   6185596.31840  25177854.98740
 96  9  6  3 22 30.0150000  0  4  4 14 19 29
   4551535.31900  29021269.84700                   1522110.74040  29021275.07340
   9860044.22400  25443112.19000                   7728996.65140  25443117.35840
  -2514712.26600  27971825.24500                  -1887089.80140  27971832.26840
   7935098.26600  25188834.94000                   6230574.72740  25188838.72540
 96  9  6  3 23  0.0150000  0  5  4 14 18 19 29
   4617996.27800  29033916.69000                   1573898.49340  29033922.23340
   9975750.01000  25465130.50300                   7819156.99940  25465135.76540
    -10072.12210  26162344.41700
  -2541764.84100  27966677.44000                  -1908169.67440  27966683.41740
   7993031.68200  25199859.62000                   6275717.65740  25199863.45240
 96  9  6  3 23 30.0150000  0  5  4 14 18 19 29
   4684878.65800  29046644.22900                   1626014.62040  29046648.48340
  10091865.46600  25487226.55800                   7909636.57240  25487231.94840
    -23137.35700  26159857.88600                     -7118.96550  26159862.83140
  -2568696.27700  27961552.22200                  -1929155.12340  27961558.49140
   8051176.83400  25210924.22200                   6321025.57940  25210927.96040
 96  9  6  3 24  0.0150000  0  5  4 14 18 19 29
   4752205.16400  29059455.98700                   1678476.83940  29059461.96440
  10208423.69300  25509406.64300                   8000461.16140  25509411.92940
    -36086.56200  26157393.76800                    -17209.23340  26157398.35040
  -2595491.99300  27956453.28400                  -1950034.84140  27956459.48340
   8109560.83500  25222034.27600                   6366519.61540  25222038.06140
 96  9  6  3 24 30.0150000  0  5  4 14 18 19 29
   4819936.26300  29072344.44800                   1731254.31340  29072349.71040
  10325406.75400  25531668.15100                   8091616.79340  25531673.35440
    -48928.43100  26154949.72200                    -27215.85840  26154954.67940
  -2622157.32600  27951378.40100                  -1970812.95940  27951384.35440
   8168167.60900  25233186.82300                   6412187.24540  25233190.55040
 96  9  6  3 25  0.0150000  0  5  4 14 18 19 29
   4888080.39600  29085311.50300                   1784353.62040  29085318.37440
  10442827.20800  25554012.39300                   8183113.25140  25554017.53840
    -61640.91900  26152530.75300                    -37121.67440  26152535.49940
  -2648680.47800  27946331.70600                  -1991480.28040  27946337.46040
   8227015.15300  25244385.23700                   6458042.48440  25244389.05840
 96  9  6  3 25 30.0150000  0  5  4 14 18 19 29
   4956642.52400  29098358.96400                   1837778.63740  29098365.08140
  10560688.66200  25576440.67500                   8274953.34040  25576445.72540
    -74224.21800  26150136.18300                    -46926.82040  26150140.95240
  -2675064.57500  27941311.28400                  -2012039.23240  27941317.33140
   8286098.21400  25255628.19800                   6504081.24140  25255631.94840
 96  9  6  3 26  0.0150000  0  5  4 14 18 19 29
   5025642.46700  29111488.90900                   1891544.80440  29111494.75740
  10678997.90000  25598954.19000                   8367142.35440  25598959.35840
    -86668.75000  26147767.84700                    -56623.83440  26147772.37040
  -2701285.15000  27936321.63600                  -2032470.76340  27936327.63640
   8345439.58900  25266920.40100                   6550321.28240  25266924.16340
 96  9  6  3 26 30.0150000  0  5  4 14 18 19 29
   5095051.81600  29124697.70600                   1945629.98740  29124703.03840
  10797732.59700  25621548.60400                   8459662.89540  25621553.74940
    -98997.88400  26145421.99500                    -66230.93540  26145426.69440
  -2727354.99400  27931360.37800                  -2052784.87640  27931366.42540
   8405012.55500  25278256.86200                   6596741.77940  25278260.63640
 96  9  6  3 27  0.0150000  0  5  4 14 18 19 29
   5164877.59800  29137984.86200                   2000039.63240  29137989.47940
  10916899.59100  25644225.28400                   8552520.28840  25644230.67540
   -111227.58800  26143094.74500                    -75760.54740  26143099.49140
  -2753278.38100  27926427.26100                  -2072984.86240  27926432.81540
   8464811.71300  25289636.33900                   6643338.53040  25289640.12440
 96  9  6  3 27 30.0150000  0  5  4 14 18 19 29
   5235138.34500  29151354.98700                   2054788.26740  29151361.49140
  11036510.41300  25666986.38600                   8645723.52040  25666991.69440
   -123346.82300  26140788.58100                    -85204.08640  26140793.23340
  -2779044.75700  27921523.56500                  -2093062.49140  27921529.50740
   8524834.68400  25301058.32300                   6690109.68040  25301062.16740
 96  9  6  3 28  0.0150000  0  5  4 14 18 19 29
   5305832.33600  29164807.74500                   2109874.45640  29164812.94840
  11156557.70800  25689830.67500                   8739266.86540  25689835.89040
   -135337.26700  26138506.71400                    -94547.26940  26138511.49540
  -2804644.02700  27916653.17500                  -2113009.89340  27916659.21040
   8585087.31400  25312523.95600                   6737059.78640  25312527.87040
 96  9  6  3 28 30.0150000  0  5  4 14 18 19 29
   5376938.05900  29178338.40100                   2165281.49940  29178344.56540
  11277035.88300  25712757.19800                   8833145.95940  25712762.43640
   -147195.42300  26136250.15900                   -103787.36740  26136254.91740
  -2830089.66800  27911810.31500                  -2132837.61240  27911816.02240
   8645549.35600  25324029.49500                   6784173.07140  25324033.37440
 96  9  6  3 29  0.0150000  0  5  4 14 18 19 29
   5448462.05800  29191949.50300                   2221014.40840  29191955.16340
  11397930.35500  25735762.36200                   8927349.43940  25735767.63640
   -158912.01600  26134020.45600                   -112917.15740  26134024.88640
  -2855394.34100  27906994.80000                  -2152555.46840  27907000.55440
   8706242.19200  25335578.97200                   6831466.19940  25335582.68640
 96  9  6  3 29 30.0150000  0  5  4 14 18 19 29
   5520394.32400  29205637.33100                   2277065.52640  29205641.71440
  11519235.01800  25758845.93300                   9021872.55040  25758851.13640
   -170480.97400  26131819.03400                   -121931.91640  26131823.47540
  -2880567.28900  27902204.78400                  -2172170.68540  27902210.85440
   8767175.33400  25347174.16700                   6878946.57440  25347177.91740
 96  9  6  3 30  0.0150000  0  5  4 14 18 19 29
   5592698.77600  29219397.13600                   2333406.60940  29219402.69040
  11640933.89500  25782004.34700                   9116702.83640  25782009.55040
   -181929.46800  26129640.50300                   -130852.80140  26129645.08540
  -2905627.22900  27897435.90900                  -2191697.84440  27897441.53440
   8828347.22000  25358814.84700                   6926612.98840  25358818.59740
 96  9  6  3 30 30.0150000  0  5  4 14 18 19 29
   5665389.37700  29233229.80800                   2390048.63740  29233235.52640
  11763042.76000  25805240.94800                   9211852.59340  25805246.21040
   -193243.66600  26127487.51800                   -139669.04640  26127492.03040
  -2930571.29800  27892689.91700                  -2211134.71840  27892695.23740
   8889780.58000  25370505.19000                   6974483.14740  25370508.83540
 96  9  6  3 31  0.0150000  0  5  4 14 18 19 29
   5738491.32600  29247140.61200                   2447011.15740  29247146.97540
  11885576.91200  25828558.59700                   9307333.74940  25828563.83540
   -204414.65700  26125361.62800                   -148373.69940  26125366.30440
  -2955381.36300  27887967.94000                  -2230467.19540  27887973.92940
   8951493.93700  25382248.68300                   7022571.48440  25382252.47940
 96  9  6  3 31 30.0150000  0  5  4 14 18 19 29
   5812006.24600  29261130.01100                   2504295.51040  29261135.06140
  12008549.36900  25851959.35400                   9403156.44240  25851964.59340
   -215438.65300  26123264.05000                   -156963.81340  26123268.62040
  -2980032.90200  27883276.72900                  -2249676.12340  27883281.75740
   9013463.33400  25394041.03400                   7070859.33440  25394044.85440
 96  9  6  3 32  0.0150000  0  5  4 14 18 19 29
   5885921.14300  29275194.87000                   2561891.50840  29275200.42540
  12131932.26800  25875438.40100                   9499298.95640  25875443.46440
   -226316.02700  26121193.80000                   -165439.66640  26121198.54640
  -3004538.34900  27878613.35400                  -2268771.22240  27878619.22540
   9075659.06100  25405876.62800                   7119323.54640  25405880.39040
 96  9  6  3 32 30.0150000  0  5  4 14 18 19 29
   5960242.69900  29289337.39300                   2619804.38040  29289343.54640
  12255719.08800  25898994.37800                   9595756.21240  25898999.61640
   -237042.12500  26119152.73700                   -173797.64640  26119157.44840
  -3028897.09600  27873978.28400                  -2287751.97240  27873984.06140
   9138066.25600  25417752.26100                   7167952.53140  25417756.04640
 96  9  6  3 33  0.0150000  0  5  4 14 18 19 29
   6034979.51600  29303559.81500                   2678040.80540  29303564.15140
  12379910.85700  25922627.34700                   9692529.01140  25922632.50340
   -247626.51200  26117138.51800                   -182045.20040  26117143.33540
  -3053092.74700  27869373.85400                  -2306605.69340  27869379.67940
   9200678.83200  25429667.09700                   7216741.55840  25429670.82340
 96  9  6  3 33 30.0160000  0  5  4 14 18 19 29
   6110137.34900  29317862.36700                   2736605.34340  29317866.97340
  12504516.15400  25946338.99200                   9789624.04140  25946344.03140
   -258041.34600  26115156.68700                   -190160.63140  26115161.39840
  -3077119.07800  27864801.74200                  -2325327.43540  27864807.66040
   9263519.32800  25441625.10900                   7265708.18740  25441628.90640
 96  9  6  3 34  0.0160000  0  5  4 14 18 19 29
   6185704.88000  29332242.21100                   2795489.12740  29332247.35540
  12629519.49200  25970126.14800                   9887029.23640  25970131.18740
   -268291.43500  26113206.04700                   -198147.69840  26113210.81640
  -3100984.97400  27860260.50000                  -2343924.18040  27860266.35940
   9326602.68100  25453629.39100                   7314864.05340  25453633.32840
 96  9  6  3 34 30.0160000  0  5  4 14 18 19 29
   6261696.11600  29346703.03900                   2854703.05840  29346709.49640
  12754943.57700  25993993.62500                   9984762.28840  25993998.67640
   -278389.14200  26111284.68000                   -206016.01840  26111289.35540
  -3124675.87300  27855751.85100                  -2362384.55040  27855757.95740
   9389956.74600  25465685.32000                   7364230.86040  25465689.31640
 96  9  6  3 35  0.0160000  0  5  4 14 18 19 29
   6338093.86400  29361240.63300                   2914233.73440  29361247.43040
  12880771.32600  26017937.61700                  10082809.87940  26017942.72640
   -288342.21700  26109390.78900                   -213771.64140  26109395.31240
  -3148209.69600  27851273.09400                  -2380722.52640  27851278.90640
   9453576.67800  25477791.82800                   7413804.84240  25477795.66040
 96  9  6  3 35 30.0160000  0  5  4 14 18 19 29
   6414877.24500  29375852.76600                   2974064.94840  29375859.01240
  13007005.11100  26041959.04700                  10181173.85940  26041964.21540
   -298144.08600  26107525.57800                   -221409.44240  26107530.16040
  -3171592.41900  27846824.41400                  -2398942.76440  27846830.50840
   9517462.84000  25489948.99200                   7463586.26840  25489952.59040
 96  9  6  3 36  0.0160000  0  5  4 14 18 19 29
   6492045.11800  29390536.70300                   3034195.77240  29390541.71940
  13133631.97400  26066055.57000                  10279844.13540  26066060.92640
   -307835.20300  26105681.10100                   -228960.93940  26105685.62540
  -3194834.94300  27842401.37500                  -2417053.75740  27842407.37540
   9581599.65200  25502153.92200                   7513563.01440  25502157.57840
 96  9  6  3 36 30.0160000  0  5  4 14 18 19 29
   6569594.62700  29405293.89800                   3094623.93040  29405298.84440
  13260657.12400  26090227.72600                  10378824.76840  26090232.75440
   -317404.57600  26103860.22600                   -236417.56940  26103864.71540
  -3217930.04900  27838006.22600                  -2435049.88440  27838012.07440
   9645976.58900  25514404.46900                   7563726.86740  25514408.28940
 96  9  6  3 37  0.0160000  0  5  4 14 18 19 29
   6647522.46500  29420123.26600                   3155346.92940  29420127.23840
  13388092.94100  26114477.83600                  10478125.39840  26114483.06240
   -326814.74800  26102069.56200                   -243750.15440  26102074.10940
  -3240865.65000  27833641.90600                  -2452921.73240  27833647.89440
   9710594.40800  25526700.61700                   7614078.41740  25526704.36740
 96  9  6  3 37 30.0160000  0  5  4 14 18 19 29
   6725828.01000  29435024.61700                   3216364.22840  29435031.52340
  13515935.88800  26138805.44500                  10577743.27440  26138810.56640
   -336070.71100  26100308.06200                   -250962.57040  26100312.70340
  -3263641.52800  27829307.58600                  -2470669.10840  27829313.49240
   9775443.75600  25539041.14800                   7664610.38240  25539044.98040
 96  9  6  3 38  0.0160000  0  5  4 14 18 19 29
   6804529.69000  29450000.64100                   3277690.21840  29450003.59440
  13644177.17900  26163209.13300                  10677671.54840  26163214.43040
   -345158.67600  26098578.68000                   -258044.08240  26098583.26240
  -3286249.65300  27825005.36700                  -2488285.77340  27825010.89840
   9840537.72900  25551427.96100                   7715332.96540  25551431.88740
 96  9  6  3 38 30.0160000  0  5  4 14 18 19 29
   6883619.42200  29465051.14100                   3339318.61040  29465055.37140
  13772826.61500  26187690.33600                  10777917.85940  26187695.68040
   -354048.99900  26096886.97600                   -264971.58940  26096891.67640
  -3308675.61600  27820737.78100                  -2505760.50240  27820743.47640
   9905891.49900  25563864.51600                   7766257.98340  25563868.38340
 96  9  6  3 39  0.0160000  0  5  4 14 18 19 29
   6963103.11400  29480176.59400                   3401253.99640  29480181.71540
  13901865.73400  26212245.48400                  10878467.81740  26212250.55840
   -362763.83200  26095228.64800                   -271762.34140  26095233.41840
  -3330939.28500  27816501.09400                  -2523108.75340  27816507.07040
   9971521.41300  25576353.43000                   7817398.18340  25576357.27340
 96  9  6  3 39 30.0160000  0  5  4 14 18 19 29
   7043000.35200  29495379.96100                   3463511.49540  29495382.00040
  14031284.81500  26236873.23400                  10979313.84740  26236878.29740
   -371317.94000  26093600.86700                   -278427.87140  26093605.41440
  -3353047.86500  27812293.82800                  -2540336.15440  27812299.85140
  10037445.59100  25588898.24200                   7868767.67540  25588902.10940
 96  9  6  3 40  0.0160000  0  5  4 14 18 19 29
   7123310.37500  29510662.58600                   3526090.75340  29510668.18740
  14161082.87900  26261572.85100                  11080455.19540  26261578.01940
   -379701.60000  26092005.21100                   -284960.57140  26092009.89840
  -3375002.38900  27808116.22600                  -2557443.51940  27808121.87540
  10103677.34400  25601502.03100                   7920376.83540  25601505.84040
 96  9  6  3 40 30.0160000  0  5  4 14 18 19 29
   7204034.17900  29526022.85900                   3588992.44540  29526031.94540
  14291264.35000  26286345.58600                  11181895.29840  26286351.05840
   -387913.43400  26090442.68000                   -291359.38540  26090447.40240
  -3396811.94200  27803965.96100                  -2574437.93040  27803971.94940
  10170205.99900  25614161.82800                   7972217.35540  25614165.55540
 96  9  6  3 41  0.0160000  0  5  4 14 18 19 29
   7285174.59500  29541462.82000                   3652218.64940  29541467.00440
  14421819.24800  26311189.43000                  11283626.37840  26311194.62140
   -395947.22300  26088913.98400                   -297619.46140  26088918.67240
  -3418475.69200  27799843.00800                  -2591318.71340  27799848.89140
  10237011.43400  25626874.45300                   8024273.54840  25626878.08640
 96  9  6  3 41 30.0160000  0  5  4 14 18 19 29
   7366696.32300  29556976.09400                   3715742.16740  29556979.18740
  14552733.97100  26336101.34400                  11385637.85040  26336106.72340
   -403791.97300  26087421.14100                   -303732.23740  26087425.47640
  -3440002.56000  27795746.78900                  -2608092.83240  27795752.16840
  10304053.56600  25639632.33600                   8076514.17740  25639636.05140
 96  9  6  3 42  0.0160000  0  5  4 14 18 19 29
   7448588.15000  29572559.31200                   3779553.87540  29572564.56240
  14684017.17300  26361083.78100                  11487936.44240  26361088.94940
   -411430.31500  26085967.58600                   -309684.17640  26085972.01640
  -3461374.68900  27791679.88300                  -2624746.38840  27791685.89440
  10371323.62300  25652433.36700                   8128932.41040  25652437.01240
 96  9  6  3 42 30.0160000  0  5  4 14 18 19 29
   7530839.18400  29588212.75800                   3843645.52840  29588221.16440
  14815673.80500  26386137.32000                  11590526.01840  26386142.72340
   -418863.97700  26084552.93700                   -315476.62440  26084557.47340
  -3482581.21300  27787643.81200                  -2641270.88240  27787649.85940
  10438824.98400  25665278.40600                   8181530.87740  25665282.03940
 96  9  6  3 43  0.0160000  0  5  4 14 18 19 29
   7613436.64900  29603930.79700                   3908007.14140  29603935.77740
  14947701.22300  26411261.49200                  11693404.52140  26411267.05840
   -426100.89600  26083175.82000                   -321115.76040  26083180.35540
  -3503615.14700  27783641.60900                  -2657660.90540  27783647.23440
  10506577.31800  25678171.28100                   8234324.91140  25678174.92640
 96  9  6  3 43 30.0160000  0  5  4 14 18 19 29
   7696394.30500  29619715.89800                   3972649.46040  29619720.24640
  15080112.75900  26436458.46100                  11796582.33540  26436463.95740
   -433140.23400  26081836.27300                   -326600.94140  26081840.64440
  -3524468.97400  27779673.22600                  -2673910.60040  27779679.06240
  10574615.49000  25691118.31200                   8287341.67840  25691122.03940
 96  9  6  3 44  0.0160000  0  5  4 14 18 19 29
   7779727.32600  29635574.50800                   4037584.32240  29635581.63740
  15212910.38800  26461729.11700                  11900060.99640  26461734.48440
   -439995.85000  26080531.75000                   -331942.96340  26080536.05140
  -3545132.81200  27775741.10900                  -2690012.24740  27775746.87540
  10642954.06100  25704122.88300                   8340592.51640  25704126.58640
 96  9  6  3 44 30.0160000  0  5  4 14 18 19 29
   7863429.11600  29651502.92200                   4102806.41140  29651508.65240
  15346070.87300  26487068.60100                  12003822.40940  26487074.02740
   -446686.20100  26079258.46100                   -337156.20540  26079262.86740
  -3565626.35600  27771840.69500                  -2705981.19640  27771846.43740
  10711580.66500  25717181.93000                   8394067.79740  25717185.55140
 96  9  6  3 45  0.0160000  0  5  4 14 18 19 29
   7947525.84000  29667505.96900                   4168336.33240  29667509.78940
  15479606.66600  26512479.39100                  12107876.26940  26512484.75840
   -453188.68700  26078021.10900                   -342223.06240  26078025.62140
  -3585941.21100  27767975.03900                  -2721810.90340  27767980.71140
  10780498.68500  25730296.71100                   8447770.15340  25730300.36740
 96  9  6  3 45 30.0160000  0  5  4 14 18 19 29
   8032027.90300  29683585.18000                   4234182.08740  29683589.25840
  15613528.49100  26537964.10900                  12212230.93140  26537969.58240
   -459491.22300  26076821.70300                   -347134.11640  26076826.28540
  -3606075.37300  27764144.27300                  -2737499.81540  27764150.13340
  10849692.08300  25743463.53900                   8501687.08840  25743467.31240
 96  9  6  3 46  0.0160000  0  5  4 14 18 19 29
   8116913.96800  29699739.99200                   4300327.03440  29699744.89140
  15747824.50900  26563519.78100                  12316877.17740  26563525.27740
   -465601.58700  26075658.94500                   -351895.42140  26075663.36340
  -3626043.78000  27760343.53100                  -2753059.56040  27760349.06240
  10919142.05400  25756679.53900                   8555803.95240  25756683.31240
 96  9  6  3 46 30.0160000  0  5  4 14 18 19 29
   8202171.66400  29715963.62500                   4366761.59240  29715969.94140
  15882487.93400  26589145.25800                  12421809.70440  26589150.70740
   -471522.22900  26074532.35100                   -356508.89340  26074536.91040
  -3645846.88800  27756575.52300                  -2768490.49840  27756581.28940
  10988850.98000  25769944.79700                   8610122.59640  25769948.55840
 96  9  6  3 47  0.0160000  0  5  4 14 18 19 29
   8287803.24400  29732258.67200                   4433487.44240  29732264.56640
  16017531.69400  26614843.43000                  12527038.60640  26614848.90240
   -477234.77100  26073445.28100                   -360960.20940  26073449.73440
  -3665460.59400  27752842.83600                  -2783773.84240  27752848.64840
  11058843.85200  25783263.87500                   8664662.49840  25783267.56640
 96  9  6  3 47 30.0160000  0  5  4 14 18 19 29
   8373788.42300  29748620.86700                   4500488.84940  29748626.24640
  16152942.17300  26640611.26600                  12632553.25640  26640616.66840
   -482754.96300  26072394.71900                   -365261.64540  26072399.26640
  -3684880.45800  27749147.46900                  -2798906.17740  27749152.67240
  11129126.15800  25796638.21900                   8719427.93340  25796641.96940
 96  9  6  3 48  0.0160000  0  5  4 14 18 19 29
   8460122.36000  29765050.59400                   4567762.05540  29765055.49240
  16288710.93700  26666447.15600                  12738347.09440  26666452.68740
   -488071.61500  26071382.96100                   -369404.47440  26071387.50840
  -3704090.92200  27745492.03900                  -2813875.31740  27745497.82840
  11199715.34400  25810070.93700                   8774432.49940  25810074.62940
 96  9  6  3 48 30.0160000  0  5  4 14 18 19 29
   8546792.84500  29781543.15600                   4635297.47640  29781549.48440
  16424818.98900  26692347.85900                  12844405.30640  26692353.16840
   -493185.63800  26070409.78100                   -373389.41040  26070414.35140
  -3723101.88400  27741874.75800                  -2828688.99840  27741879.77340
  11270597.69700  25823559.40600                   8829665.50240  25823563.18040
 96  9  6  3 49  0.0170000  0  5  4 14 18 19 29
   8633796.65200  29798098.59100                   4703092.63640  29798104.16940
  16561264.63700  26718312.28600                  12950726.59040  26718317.64140
   -498093.19000  26069475.89500                   -377213.45840  26069480.27840
  -3741936.78500  27738290.20000                  -2843365.48640  27738296.05940
  11341765.28500  25837101.82500                   8885120.76740  25837105.71640
 96  9  6  3 49 30.0170000  0  5  4 14 18 19 29
   8721147.52600  29814721.11400                   4771158.21040  29814726.52840
  16698053.09500  26744342.34900                  13057314.99140  26744347.76340
   -502784.18200  26068583.30900                   -380868.76240  26068587.68140
  -3760598.08200  27734738.98900                  -2857906.69940  27734744.79040
  11413209.50900  25850697.55200                   8940791.59840  25850701.29040
 96  9  6  3 50  0.0170000  0  5  4 14 18 19 29
   8808843.54600  29831409.16100                   4839492.74640  29831414.55240
  16835178.12200  26770436.42700                  13164165.65440  26770441.91140
   -507269.22200  26067729.70800                   -384363.58240  26067733.98540
  -3779106.00200  27731217.18400                  -2872328.41440  27731222.63440
  11484916.03100  25864342.89500                   8996666.81340  25864346.55240
 96  9  6  3 50 30.0170000  0  5  4 14 18 19 29
   8896887.14800  29848164.00500                   4908098.13240  29848169.87640
  16972637.02600  26796594.30900                  13271276.48440  26796599.66540
   -511565.64000  26066912.45000                   -387711.42140  26066916.98540
  -3797477.92000  27727720.55900                  -2886644.15740  27727726.27840
  11556882.93200  25878037.64500                   9052744.91940  25878041.41940
 96  9  6  3 51  0.0170000  0  5  4 14 18 19 29
   8985288.25900  29864985.62200                   4976982.08940  29864992.19640
  17110441.07200  26822817.16900                  13378656.25740  26822822.17340
   -515677.15000  26066129.62200                   -390915.18040  26066134.04040
  -3815693.15300  27724254.52800                  -2900837.79240  27724259.81340
  11629121.86300  25891784.23900                   9109035.00140  25891787.90740
 96  9  6  3 51 30.0170000  0  5  4 14 18 19 29
   9074033.70800  29881873.78600                   5046134.35540  29881879.37640
  17248585.46000  26849105.25500                  13486301.22840  26849110.43440
   -519617.00500  26065380.14500                   -393985.18740  26065384.70440
  -3833747.50900  27720818.81700                  -2914906.08140  27720824.24340
  11701628.87200  25905581.87200                   9165533.96840  25905585.47040
 96  9  6  3 52  0.0170000  0  5  4 14 18 19 29
   9163124.94200  29898827.39500                   5115556.08040  29898832.66940
  17387070.65500  26875458.15300                  13594211.76640  26875463.43840
   -523362.55300  26064667.49700                   -396903.78140  26064671.93840
  -3851635.20700  27717414.95000                  -2928844.49040  27717420.64540
  11774433.44100  25919436.14500                   9222264.80440  25919439.83740
 96  9  6  3 52 30.0170000  0  5  4 14 18 19 29
   9252544.51500  29915842.55200                   5185233.65040  29915848.25940
  17525885.78700  26901873.90300                  13702379.39540  26901879.09540
   -526907.07600  26063992.81700                   -399665.73640  26063997.49340
  -3869370.79900  27714039.64500                  -2942664.36840  27714045.31740
  11847523.50000  25933344.63800                   9279218.10040  25933348.41140
 96  9  6  3 53  0.0170000  0  6  3  4 14 18 19 29
     -3659.83610  29935970.91100
   9342294.20900  29932921.22400                   5255168.45840  29932926.55640
  17665050.71300  26928356.02000                  13810819.58740  26928361.45840
   -530218.34300  26063362.80200                   -402245.93040  26063367.23140
  -3886929.49000  27710698.48900                  -2956346.42140  27710704.14940
  11920901.16000  25947307.89500                   9336395.50040  25947311.66940
 96  9  6  3 53 30.0170000  0  6  3  4 14 18 19 29
    -25574.65700  29931799.61400
   9432370.80300  29950063.24700                   5325357.97540  29950069.83340
  17804566.26700  26954904.76300                  13919533.00140  26954910.21240
   -533272.14000  26062781.39500                   -404625.50140  26062785.66140
  -3904325.33200  27707387.91100                  -2969901.56240  27707393.50140
  11994572.67500  25961327.23900                   9393801.87940  25961331.04840
 96  9  6  3 54  0.0170000  0  6  3  4 14 18 19 29
    -47415.14400  29927644.20800
   9522769.71700  29967264.73900                   5395798.69140  29967268.52440
  17944415.54600  26981517.21600                  14028506.46140  26981522.58340
   -536062.37200  26062250.53600                   -406799.69540  26062254.83740
  -3921561.37200  27704108.41100                  -2983332.17940  27704113.59140
  12068528.75600  25975400.40300                   9451429.99540  25975404.27040
 96  9  6  3 54 30.0170000  0  6  3  4 14 18 19 29
    -69184.66000  29923501.47400                    -10170.74450  29923505.01340
   9613487.76700  29984528.20800                   5466488.01840  29984536.22740
  18084602.04400  27008194.00500                  14137742.68740  27008199.26640
   -538598.25700  26061768.10600                   -408775.69540  26061772.45440
  -3938615.65900  27700862.73900                  -2996621.18740  27700868.42340
  12142753.93800  25989525.02800                   9509267.79840  25989528.72040
 96  9  6  3 55  0.0170000  0  6  3  4 14 18 19 29
    -90862.95800  29919376.31700                    -27062.87740  29919381.54440
   9704542.82000  30001855.52000                   5537439.99840  30001860.10240
  18225110.86700  27034931.99700                  14247230.07340  27034937.49340
   -540894.93800  26061331.04400                   -410565.30340  26061335.38040
  -3955474.46900  27697654.86400                  -3009757.85940  27697660.23140
  12217260.23700  26003703.24700                   9567324.66040  26003707.17340
 96  9  6  3 55 30.0170000  0  5  3 14 18 19 29
   -112445.81000  29915268.92700                    -43880.68540  29915274.80940
  18365925.12500  27061728.04400                  14356955.46140  27061733.52840
   -542954.33400  26060939.15300                   -412170.01440  26060943.58340
  -3972127.97800  27694485.39500                  -3022734.57340  27694491.05640
  12292072.53100  26017939.59100                   9625619.95140  26017943.42340
 96  9  6  3 56  0.0170000  0  5  3 14 18 19 29
   -133942.09100  29911178.52000                    -60631.04340  29911181.28640
  18507034.84200  27088580.38000                  14466911.08240  27088585.43140
   -544800.22900  26060587.70000                   -413608.36040  26060592.08340
  -3988563.43600  27691357.88000                  -3035541.37240  27691363.68140
  12367179.65100  26032231.88800                   9684144.98140  26032235.72040
 96  9  6  3 56 30.0170000  0  5  3 14 18 19 29
   -155339.92800  29907106.88800                    -77304.73940  29907112.00940
  18648441.64300  27115488.86400                  14577098.19040  27115494.18440
   -546437.62400  26060276.27000                   -414884.24040  26060280.64140
  -4004785.06500  27688270.88800                  -3048181.56040  27688276.43140
  12442583.91200  26046581.01300                   9742901.55240  26046584.72740
 96  9  6  3 57  0.0170000  0  5  3 14 18 19 29
   -176633.40200  29903054.69200                    -93897.00740  29903060.22440
  18790143.59900  27142453.94200                  14687515.29140  27142459.39140
   -547856.21100  26060006.05900                   -415989.62040  26060010.53640
  -4020804.38700  27685222.70800                  -3060664.10240  27685228.13440
  12518296.47000  26060988.76300                   9801898.34840  26060992.37240
 96  9  6  3 57 30.0170000  0  5  3 14 18 19 29
   -197831.06400  29899020.92700                   -110414.61940  29899025.88440
  18932162.39600  27169479.52000                  14798179.28440  27169484.92340
   -549035.00300  26059781.96600                   -416908.14940  26059786.47740
  -4036629.82700  27682210.62200                  -3072995.57640  27682216.62240
  12594308.74200  26075453.45800                   9861128.68340  26075457.02040
 96  9  6  3 58  0.0170000  0  5  3 14 18 19 29
   -218929.22700  29895006.46600                   -126854.71940  29895011.37640
  19074514.37700  27196568.10600                  14909102.90440  27196573.36840
   -549969.38700  26059604.18400                   -417636.22540  26059608.43840
  -4052267.44000  27679235.34100                  -3085180.68140  27679241.11840
  12670608.05000  26089972.57500                   9920582.69240  26089976.11440
 96  9  6  3 58 30.0170000  0  5  3 14 18 19 29
   -239916.81400  29891012.47400                   -143208.72440  29891017.51340
  19217201.34800  27223720.68400                  15020287.54440  27223726.05240
   -550639.01300  26059476.52800                   -418158.00040  26059480.85240
  -4067723.49800  27676294.31700                  -3097224.30940  27676299.86040
  12747204.76700  26104548.39500                   9980268.44640  26104552.07540
 96  9  6  3 59  0.0170000  0  5  3 14 18 19 29
   -260801.01000  29887038.11400                   -159482.09440  29887043.62240
  19360217.53000  27250935.24700                  15131728.72140  27250940.27440
   -551043.03000  26059399.93400                   -418472.80340  26059404.30640
  -4083001.80700  27673386.70800                  -3109129.44740  27673392.46240
  12824097.48300  26119180.65300                  10040184.84840  26119184.16940
 96  9  6  3 59 30.0170000  0  5  3 14 18 19 29
   -281565.11900  29883087.09100                   -175661.85840  29883092.25940
  19503566.61400  27278214.17700                  15243429.30040  27278219.42740
   -551176.93300  26059374.60600                   -418577.13140  26059378.84940
  -4098098.38100  27670514.14500                  -3120892.96940  27670519.48940
  12901295.71000  26133871.13800                  10100339.30640  26133874.77040
 96  9  6  4  0  0.0170000  0  5  3 14 18 19 29
   -302193.24200  29879160.56700                   -191735.76640  29879165.58340
  19647237.62100  27305553.68400                  15355380.72540  27305558.94640
   -551047.89600  26059398.81700                   -418476.57340  26059403.20040
  -4113019.91100  27667674.27000                  -3132520.09440  27667679.76640
  12978815.11300  26148622.41900                  10160744.03640  26148626.08740
 96  9  6  4  0 30.0170000  0  5  3 14 18 19 29
   -322686.34400  29875261.36400                   -207704.33140  29875267.36440
  19791219.50700  27332952.33300                  15467574.38840  27332957.70040
   -550664.17400  26059471.78600                   -418177.56040  26059476.19240
  -4127785.83700  27664864.30200                  -3144025.97240  27664870.07940
  13056661.55700  26163436.01300                  10221403.60340  26163439.57540
 96  9  6  4  1  0.0170000  0  5  3 14 18 19 29
   -343032.11000  29871389.55900                   -223558.17740  29871394.29440
  19935509.38600  27360409.93400                  15580008.05440  27360414.76340
   -550032.21200  26059592.22400                   -417685.11140  26059596.71240
  -4142384.83800  27662086.43400                  -3155401.77640  27662091.83740
  13134847.02800  26178314.45800                  10282327.34340  26178318.20840
 96  9  6  4  1 30.0170000  0  5  3 14 18 19 29
   -363227.26700  29867547.09900                   -239294.64640  29867551.90340
  20080102.09200  27387924.91100                  15692677.69240  27387930.06740
   -549161.56600  26059757.54400                   -417006.67740  26059761.82140
  -4156811.48900  27659341.07500                  -3166643.28940  27659346.17340
  13213373.55800  26193257.30900                  10343516.84440  26193261.04840
 96  9  6  4  2  0.0170000  0  5  3 14 18 19 29
   -383288.59800  29863728.72400                   -254926.83240  29863734.09140
  20224976.18900  27415493.94200                  15805566.59340  27415499.11040
   -548065.67000  26059966.47400                   -416152.72540  26059970.85640
  -4171062.22600  27656629.16900                  -3177747.72540  27656634.57140
  13292225.02600  26208262.23900                  10404959.54640  26208266.00140
 96  9  6  4  2 30.0170000  0  5  3 14 18 19 29
   -403216.68300  29859937.03600                   -270455.16040  29859940.24740
  20370122.21100  27443114.28600                  15918667.38040  27443119.29040
   -546732.37600  26060219.87200                   -415113.78740  26060224.39540
  -4185112.97000  27653955.40300                  -3188696.32440  27653960.85240
  13371396.16900  26223327.94200                  10466651.34740  26223331.77440
 96  9  6  4  3  0.0170000  0  5  3 14 18 19 29
   -423002.59000  29856171.19200                   -285872.71740  29856178.34540
  20515533.75700  27470784.73100                  16031975.06640  27470789.71240
   -545142.78300  26060522.41900                   -413875.13440  26060526.82540
  -4198945.47600  27651323.13000                  -3199474.86040  27651328.32140
  13450883.11300  26238453.88800                  10528589.22540  26238457.69640
 96  9  6  4  3 30.0170000  0  5  3 14 18 19 29
   -442660.59000  29852430.90300                   -301190.64440  29852436.16540
  20661214.85900  27498507.34900                  16145492.80640  27498512.47040
   -543295.20000  26060873.81700                   -412435.45140  26060878.16540
  -4212571.44700  27648730.30900                  -3210092.47540  27648735.39540
  13530666.05200  26253636.10600                  10590757.74940  26253639.86840
 96  9  6  4  4  0.0170000  0  5  3 14 18 19 29
   -462179.55600  29848717.20000                   -316400.07940  29848720.80940
  20807172.73000  27526282.09100                  16259226.20140  27526287.64540
   -541170.20100  26061278.39500                   -410779.59740  26061282.63840
  -4225994.29300  27646175.76300                  -3220551.80640  27646181.57540
  13610749.73400  26268875.36400                  10653160.62140  26268879.07940
 96  9  6  4  4 30.0180000  0  5  3 14 18 19 29
   -481534.32100  29845034.17400                   -331481.79640  29845041.87740
  20953445.03300  27554116.56400                  16373204.61040  27554121.81440
   -538730.88000  26061742.74400                   -408878.81740  26061747.09240
  -4239204.37400  27643662.39200                  -3230845.34340  27643667.71340
  13691157.79900  26284176.47100                  10715816.25440  26284180.37340
 96  9  6  4  5  0.0180000  0  5  3 14 18 19 29
   -500744.53900  29841376.24400                   -346450.65440  29841381.37740
  21100020.98700  27582009.01700                  16487419.63540  27582014.34940
   -536001.55800  26062261.96300                   -406752.06440  26062266.25240
  -4252230.54600  27641183.22100                  -3240995.57240  27641188.48240
  13771859.35200  26299533.64200                  10778700.58440  26299537.42840
 96  9  6  4  5 30.0180000  0  5  3 14 18 19 29
   -519803.84500  29837752.18200                   -361302.03540  29837757.15040
  21246904.92800  27609960.45500                  16601874.64740  27609966.02140
   -532989.97100  26062835.07200                   -404405.36240  26062839.40840
  -4265074.26800  27638739.22100                  -3251003.64240  27638744.42440
  13852858.70700  26314947.18200                  10841816.96640  26314950.87340
 96  9  6  4  6  0.0180000  0  5  3 14 18 19 29
   -538701.89200  29834152.87700                   -376027.80840  29834157.20140
  21394084.17400  27637967.61100                  16716559.77140  27637973.13140
   -529690.45700  26063462.90000                   -401834.30540  26063467.14240
  -4277739.69900  27636328.63500                  -3260872.77740  27636333.80340
  13934147.95000  26330416.14200                  10905159.23540  26330419.88140
 96  9  6  4  6 30.0180000  0  5  3 14 18 19 29
   -557424.84600  29830591.90800                   -390617.03940  29830596.57240
  21541558.16000  27666030.78300                  16831474.55740  27666036.02140
   -526096.28100  26064146.89200                   -399033.64340  26064151.15840
  -4290217.70500  27633954.68200                  -3270595.87340  27633960.11940
  14015720.00100  26345938.71300                  10968721.87340  26345942.36940
 96  9  6  4  7  0.0180000  0  5  3 14 18 19 29
   -575957.52000  29827065.09600                   -405058.00740  29827068.55340
  21689318.95200  27694148.77500                  16946612.83440  27694153.99040
   -522218.00100  26064884.73600                   -396011.59540  26064888.99040
  -4302494.30400  27631618.24400                  -3280162.02440  27631623.61140
  14097585.97200  26361517.21300                  11032513.53540  26361520.90440
 96  9  6  4  7 30.0180000  0  5  3 14 18 19 29
   -594291.09300  29823576.15800                   -419343.86140  29823581.42040
  21837340.84500  27722316.61100                  17061954.56440  27722321.66240
   -518056.05300  26065676.88500                   -392768.51040  26065681.18540
  -4314570.83100  27629320.21300                  -3289572.26440  27629325.59240
  14179759.14200  26377154.40000                  11096544.57440  26377158.09240
 96  9  6  4  8  0.0180000  0  5  3 14 18 19 29
   -612427.02000  29820125.47100                   -433475.81340  29820131.17840
  21985630.75400  27750535.13500                  17177505.13240  27750540.49040
   -513600.74300  26066524.72100                   -389296.82740  26066528.97440
  -4326439.51500  27627061.36100                  -3298820.55440  27627066.79940
  14262251.30500  26392852.26000                  11160824.18540  26392855.97440
 96  9  6  4  8 30.0180000  0  5  3 14 18 19 29
   -630370.98300  29816710.28300                   -447458.04640  29816714.65440
  22134186.84100  27778804.54100                  17293263.12240  27778809.59240
   -508865.47500  26067425.73600                   -385606.99640  26067429.97840
  -4338089.46600  27624844.68200                  -3307898.39840  27624849.67440
  14345087.54700  26408615.32200                  11225371.90940  26408619.03740
 96  9  6  4  9  0.0180000  0  5  3 14 18 19 29
   -648128.91400  29813331.70500                   -461295.43640  29813337.21340
  22283011.72800  27807124.90000                  17409230.55540  27807130.32640
   -503848.28400  26068380.43900                   -381697.48540  26068384.74040
  -4349523.75300  27622668.36900                  -3316808.18140  27622673.95940
  14428293.46500  26424448.86100                  11290207.68040  26424452.57640
 96  9  6  4  9 30.0180000  0  5  3 14 18 19 29
   -665706.43800  29809985.73600                   -474992.16240  29809990.03740
  22432109.28300  27835497.09600                  17525410.46340  27835502.15840
   -498543.26100  26069389.90000                   -377563.69440  26069394.17840
  -4360759.31800  27620530.55700                  -3325563.12340  27620535.59640
  14511865.16100  26440352.05700                  11355328.48340  26440355.81840
 96  9  6  4 10  0.0180000  0  5  3 14 18 19 29
   -683094.08000  29806677.54100                   -488540.90640  29806684.12740
  22581494.22800  27863924.12700                  17641814.30640  27863929.30740
   -492940.22000  26070456.24400                   -373197.67940  26070460.52140
  -4371782.91400  27618433.11100                  -3334152.89640  27618438.26740
  14595802.81600  26456324.73600                  11420734.44440  26456328.54540
 96  9  6  4 10 30.0180000  0  5  3 14 18 19 29
   -700284.88200  29803405.98600                   -501936.35340  29803410.89640
  22731156.38000  27892403.94700                  17758434.16040  27892409.30340
   -487039.51800  26071579.10300                   -368599.72440  26071583.29940
  -4382596.64000  27616374.90000                  -3342579.14140  27616379.91640
  14680099.16800  26472366.04100                  11486419.90740  26472369.70940
 96  9  6  4 11  0.0180000  0  5  3 14 18 19 29
   -717288.02300  29800170.86900                   -515185.47840  29800176.98640
  22881060.19200  27920929.61900                  17875242.32240  27920934.86940
   -480861.25200  26072754.92400                   -363785.47940  26072759.09640
  -4393235.73700  27614350.52500                  -3350869.30740  27614355.95140
  14764715.21400  26488467.82200                  11552354.49440  26488471.36140
 96  9  6  4 11 30.0180000  0  5  3 14 18 19 29
   -734089.44700  29796974.42400                   -528277.54340  29796979.69740
  23031197.02800  27949499.70500                  17992232.06040  27949504.92040
   -474401.46500  26073984.07200                   -358751.87140  26073988.15040
  -4403678.76500  27612363.19700                  -3359006.69440  27612368.54140
  14849641.71000  26504628.58000                  11618530.97740  26504632.29540
 96  9  6  4 12  0.0180000  0  5  3 14 18 19 29
   -750686.36000  29793814.86100                   -541210.20140  29793819.57240
  23181564.01200  27978113.49400                  18109401.12240  27978118.87340
   -467655.00200  26075267.67400                   -353494.87940  26075271.83440
  -4413909.18100  27610416.57200                  -3366978.40940  27610421.76440
  14934880.03000  26520849.08800                  11684950.44340  26520852.66240
 96  9  6  4 12 30.0180000  0  5  3 14 18 19 29
   -767052.46000  29790701.38500                   -553962.98040  29790705.51040
  23332194.57200  28006777.58800                  18226775.58140  28006783.08440
   -460587.31300  26076612.72800                   -347987.57840  26076616.93540
  -4423911.62800  27608513.04100                  -3374772.48440  27608518.31440
  15020462.84600  26537135.15800                  11751638.35240  26537138.86140
 96  9  6  4 13  0.0180000  0  5  3 14 18 19 29
   -783208.85200  29787626.52500                   -566552.34440  29787632.91240
  23483069.10500  28035488.05700                  18344340.15140  28035493.38940
   -453208.58900  26078016.78300                   -342237.91440  26078021.09640
  -4433714.67400  27606647.60300                  -3382411.20040  27606653.07640
  15106376.19700  26553483.80700                  11818583.81240  26553487.40440
 96  9  6  4 13 30.0180000  0  5  3 14 18 19 29
   -799150.80800  29784593.30700                   -578974.62540  29784597.51440
  23634219.92800  28064251.35300                  18462120.00440  28064256.63940
   -445489.49600  26079485.60300                   -336223.03340  26079489.84640
  -4443295.06300  27604824.39200                  -3389876.39940  27604829.81840
  15192640.00100  26569899.23600                  11885802.36340  26569902.79940
 96  9  6  4 14  0.0180000  0  5  3 14 18 19 29
   -814884.26600  29781598.81400                   -591234.41040  29781605.45940
  23785655.31600  28093068.37700                  18580121.59840  28093074.04940
   -437420.92800  26081021.04100                   -329935.82740  26081025.30740
  -4452669.19300  27603040.51000                  -3397180.88140  27603046.35740
  15279255.08300  26586381.63500                  11953294.63140  26586385.27940
 96  9  6  4 14 30.0180000  0  5  3 14 18 19 29
   -830412.68600  29778643.17400                   -603334.47540  29778648.08440
  23937348.69100  28121934.62700                  18698324.21540  28121940.27540
   -429015.60200  26082620.63500                   -323386.21640  26082624.63140
  -4461860.98100  27601291.11100                  -3404343.28340  27601296.40840
  15366207.14000  26602928.02500                  12021049.47940  26602931.62340
 96  9  6  4 15  0.0180000  0  5  3 14 18 19 29
   -845726.81400  29775729.64200                   -615267.54440  29775735.68940
  24089283.04600  28150846.82200                  18816714.60840  28150852.56440
   -420281.65300  26084282.60300                   -316580.53740  26084286.79940
  -4470867.77200  27599577.34600                  -3411361.52240  27599583.07640
  15453485.43100  26619536.39200                  12089058.53340  26619540.10740
 96  9  6  4 15 30.0180000  0  5  3 14 18 19 29
   -860836.00300  29772854.23600                   -627040.88540  29772856.53340
  24241440.98200  28179801.57200                  18935279.23340  28179807.20940
   -411246.30600  26086002.15000                   -309539.99940  26086006.26440
  -4479699.64200  27597896.64200                  -3418243.47340  27597901.83440
  15541062.78200  26636202.11900                  12157300.62140  26636205.83440
 96  9  6  4 16  0.0180000  0  5  3 14 18 19 29
   -875708.70400  29770023.86100                   -638629.98840  29770028.61940
  24393829.71300  28208800.41600                  19054023.68240  28208805.31440
   -401890.52900  26087782.29900                   -302249.77540  26087786.45940
  -4488334.33600  27596253.79900                  -3424971.77540  27596259.08440
  15628960.73400  26652928.25200                  12225792.52540  26652932.01440
 96  9  6  4 16 30.0180000  0  5  3 14 18 19 29
   -890339.77500  29767239.41600                   -650030.82740  29767243.88140
  24546433.48300  28237840.04900                  19172935.71040  28237845.62740
   -392218.89900  26089622.65000                   -294713.43240  26089626.98640
  -4496773.09000  27594647.83800                  -3431547.38940  27594653.21740
  15717167.68600  26669713.48600                  12294525.21240  26669717.27140
 96  9  6  4 17  0.0180000  0  6  3 14 18 19 27 29
   -904738.46500  29764500.26000                   -661250.56740  29764507.20140
  24699260.40000  28266921.95500                  19292021.62140  28266927.49840
   -382223.51300  26091524.81400                   -286924.81540  26091529.12740
  -4505008.78000  27593080.27500                  -3437964.78240  27593085.49040
    -11918.79910  30651336.32200
  15805685.12200  26686557.83800                  12363499.83440  26686561.43540
 96  9  6  4 17 30.0180000  0  6  3 14 18 19 27 29
   -918897.58400  29761805.22800                   -672283.62040  29761810.91240
  24852327.60100  28296049.90800                  19411294.74940  28296054.97140
   -371882.66800  26093492.60300                   -278867.00640  26093496.72840
  -4513015.96100  27591556.76700                  -3444204.11940  27591561.52540
    -44394.69600  30645156.93200
  15894531.56600  26703464.76000                  12432730.82140  26703468.34640
 96  9  6  4 18  0.0180000  0  6  3 14 18 19 27 29
   -932822.39500  29759155.54100                   -683134.11040  29759159.13940
  25005624.87700  28325221.12700                  19530747.17940  28325226.42440
   -361198.29900  26095525.79900                   -270541.51340  26095530.00640
  -4520804.67300  27590074.69700                  -3450273.21840  27590079.80740
    -76833.27700  30638983.48600
  15983707.81100  26720434.48600                  12502218.80540  26720438.28340
 96  9  6  4 18 30.0180000  0  6  3 14 18 19 27 29
   -946520.73400  29756549.80700                   -693808.12540  29756554.37740
  25159133.40500  28354432.70500                  19650364.20740  28354437.93240
   -350203.35200  26097617.96300                   -261974.01740  26097622.21740
  -4528397.60500  27588629.56400                  -3456189.75740  27588634.59240
   -109230.01300  30632818.57200                    -20191.76850  30632822.62740
  16073193.97800  26737462.94700                  12571948.28040  26737466.61540
 96  9  6  4 19  0.0180000  0  6  3 14 18 19 27 29
   -959977.02100  29753988.45500                   -704293.47040  29753992.51040
  25312873.18400  28383688.43200                  19770161.42240  28383693.35340
   -338903.88100  26099768.26000                   -253169.22840  26099772.36140
  -4535788.66700  27587222.89200                  -3461948.99340  27587228.08440
   -141561.70800  30626666.01000                    -45385.20340  30626672.56040
  16163014.76500  26754555.43900                  12641938.49640  26754559.17840
 96  9  6  4 19 30.0180000  0  6  3 14 18 19 27 29
   -973171.25600  29751477.75200                   -714574.68640  29751481.25640
  25466834.32700  28412986.11900                  19890131.14740  28412991.28740
   -327312.18400  26101974.18900                   -244136.73140  26101978.39640
  -4542984.32500  27585853.72800                  -3467555.97540  27585859.17840
   -173814.07000  30620527.76000                    -70516.81940  30620536.69340
  16253167.32900  26771710.71300                  12712187.24940  26771714.43940
 96  9  6  4 20  0.0180000  0  6  3 14 18 19 27 29
   -986109.60700  29749015.83800                   -724656.52240  29749022.43540
  25620987.67200  28442320.35300                  20010250.62240  28442325.70940
   -315454.09000  26104230.65000                   -234896.65440  26104234.82240
  -4550008.13200  27584517.36100                  -3473029.04340  27584522.49440
   -206001.69700  30614403.11100                    -95597.97940  30614409.87340
  16343641.41100  26788927.40800                  12782686.52640  26788931.18240
 96  9  6  4 20 30.0190000  0  6  3 14 18 19 27 29
   -998787.30600  29746603.29600                   -734535.18240  29746605.72240
  25775325.90000  28471690.46800                  20130514.17740  28471695.61240
   -303317.42000  26106540.24900                   -225439.50140  26106544.33940
  -4556857.03800  27583214.00700                  -3478365.82240  27583218.85840
   -238138.62100  30608287.14700                   -120639.61240  30608294.76840
  16434449.16800  26806207.59300                  12853445.81540  26806211.41340
 96  9  6  4 21  0.0190000  0  6  3 14 18 19 27 29
  -1011199.14800  29744241.39700                   -744206.75340  29744243.53040
  25929839.48600  28501093.15500                  20250914.36740  28501098.52240
   -290865.59300  26108909.53000                   -215736.77540  26108913.60840
  -4563506.53500  27581948.67900                  -3483547.22240  27581953.90540
   -270216.65500  30602183.95200                   -145635.41140  30602189.68240
  16525613.25300  26823555.67100                  12924482.75740  26823559.50340
 96  9  6  4 21 30.0190000  0  6  3 14 18 19 27 29
  -1023356.56300  29741927.28000                   -753680.05640  29741931.65140
  26084512.21500  28530526.46000                  20371438.56840  28530532.14340
   -278083.60700  26111341.87400                   -205776.78240  26111346.04640
  -4569944.98100  27580723.42100                  -3488564.16740  27580728.47240
   -302231.99700  30596091.28800                   -170582.34240  30596096.93640
  16617125.45800  26840969.74900                  12995790.96340  26840973.59340
 96  9  6  4 22  0.0190000  0  6  3 14 18 19 27 29
  -1035272.81100  29739660.53000                   -762965.39740  29739664.14040
  26239343.92700  28559989.87400                  20492086.65040  28559995.25340
   -264963.57600  26113838.48300                   -195553.37740  26113842.67940
  -4576174.97200  27579537.71800                  -3493418.67140  27579542.75740
   -334191.60100  30590009.35800                   -195485.85140  30590017.02640
  16708982.69800  26858449.76500                  13067368.03140  26858453.53840
 96  9  6  4 22 30.0190000  0  6  3 14 18 19 27 29
  -1046920.18200  29737443.49100                   -772041.28940  29737447.81540
  26394374.26100  28589491.46000                  20612889.50240  28589496.56940
   -251458.87700  26116408.48300                   -185030.22940  26116412.67940
  -4582167.11600  27578397.64000                  -3498087.84340  27578402.70240
   -366057.42700  30583945.29600                   -220316.28440  30583951.99940
  16801201.87700  26875998.30400                  13139227.12340  26876002.06540
 96  9  6  4 23  0.0190000  0  7  3 14 18 19 27 29 31
  -1058297.44600  29735277.83500                   -780906.65440  29735282.71040
  26549621.04600  28619033.40500                  20733861.02940  28619038.71440
   -237576.67300  26119050.20200                   -174212.92240  26119054.40940
  -4587918.93600  27577302.64000                  -3502569.74740  27577307.59740
   -397822.35800  30577900.79600                   -245068.05640  30577904.24140
  16893763.56000  26893612.24100                  13211353.10140  26893615.93240
                  30390336.37400
 96  9  6  4 23 30.0190000  0  7  3 14 18 19 27 29 31
  -1069383.26500  29733169.31100                   -789544.94040  29733173.91740
  26705102.08400  28648620.48300                  20855015.08140  28648626.22540
   -223322.06900  26121762.64000                   -163105.43340  26121766.80040
  -4593440.30900  27576252.14700                  -3506872.08440  27576257.57340
   -429496.55500  30571872.46800                   -269749.17340  30571877.91740
  16986656.19200  26911289.31100                  13283736.96340  26911293.00340
    -40209.61000  30382418.71800
 96  9  6  4 24  0.0190000  0  7  3 14 18 19 27 29 31
  -1080176.71300  29731114.92900                   -797955.40640  29731120.36640
  26860810.77300  28678251.28800                  20976346.52840  28678256.60840
   -208706.22800  26124544.03800                   -151716.46340  26124548.17540
  -4598757.37300  27575240.22500                  -3511015.21940  27575245.67540
   -461106.86000  30565858.29600                   -294380.50440  30565864.17940
  17079872.84400  26929027.66300                  13356373.30840  26929031.57740
    -81835.80000  30374497.77200
 96  9  6  4 24 30.0190000  0  7  3 14 18 19 27 29 31
  -1090676.39200  29729116.37400                   -806136.95840  29729121.70640
  27016727.15200  28707921.68600                  21097839.79740  28707927.04240
   -193741.95500  26127391.71800                   -140055.98240  26127395.87840
  -4603872.49900  27574266.94400                  -3515001.00040  27574271.93640
   -492666.31400  30559852.28000                   -318972.17340  30559857.01540
  17173418.29700  26946828.87400                  13429265.86240  26946832.33140
   -123502.16400  30366568.69400                    -12989.72950  30366573.61640
 96  9  6  4 25  0.0190000  0  7  3 14 18 19 27 29 31
  -1100884.38200  29727174.34300                   -814091.20540  29727179.81540
  27172825.85800  28737626.23300                  21219475.15140  28737631.77640
   -178446.81900  26130302.02200                   -128137.69440  26130306.31140
  -4608800.01100  27573329.33500                  -3518840.58940  27573334.76140
   -524205.31900  30553850.03000                   -343547.92640  30553855.05740
  17267299.56000  26964693.91300                  13502420.08740  26964697.46440
   -165211.11500  30358631.14000                    -45490.20440  30358636.64740
 96  9  6  4 25 30.0190000  0  7  3 14 18 19 27 29 31
  -1110799.74800  29725287.12400                   -821817.44340  29725292.02240
  27329082.65300  28767360.65500                  21341233.69040  28767366.01140
   -162819.65300  26133275.87400                   -115960.68040  26133280.11640
  -4613559.31000  27572423.82700                  -3522549.11540  27572428.86640
   -555724.31500  30547852.03800                   -368108.09640  30547858.39040
  17361524.34900  26982624.27200                  13575841.99340  26982627.99940
   -206955.14400  30350688.13200                    -78017.99040  30350694.56540
 96  9  6  4 26  0.0190000  0  7  3 14 18 19 27 29 31
  -1120444.39500  29723452.15500                   -829332.71440  29723457.85040
  27485476.56600  28797121.32700                  21463099.05940  28797127.04640
   -146863.24400  26136312.28000                   -103527.11040  26136316.39340
  -4618146.92200  27571550.56900                  -3526123.84940  27571555.49140
   -587215.18400  30541859.86600                   -392646.34040  30541865.11640
  17456088.82900  27000619.33500                  13649528.59340  27000623.01540
   -248734.83300  30342737.36600                   -110573.49040  30342739.89740
 96  9  6  4 26 30.0190000  0  7  3 14 18 19 27 29 31
  -1129796.29600  29721673.14700                   -836619.90440  29721677.87040
  27642025.42900  28826911.98300                  21585085.17340  28826917.11640
   -130554.41500  26139415.69400                    -90818.92540  26139419.84340
  -4622533.96000  27570715.80400                  -3529542.29540  27570720.99540
   -618650.15100  30535878.71800                   -417141.08940  30535886.55040
  17551006.89800  27018681.31100                  13723490.72040  27018685.03840
   -290530.46100  30334784.53800                   -143141.56640  30334788.24140
 96  9  6  4 27  0.0190000  0  7  3 14 18 19 27 29 31
  -1138852.10700  29719949.53800                   -843676.35240  29719955.05740
  27798742.94900  28856733.85800                  21707202.73640  28856739.26140
   -113889.84700  26142587.09300                    -77833.54240  26142591.06540
  -4626724.88600  27569918.20200                  -3532807.92540  27569923.54640
   -650012.82300  30529910.26500                   -441579.45540  30529917.45240
  17646263.25000  27036808.35800                  13797716.44140  27036812.15540
   -332332.96900  30326829.60000                   -175714.99340  30326835.82340
 96  9  6  4 27 30.0190000  0  7  3 14 18 19 27 29 31
  -1147611.40700  29718282.62400                   -850501.75740  29718286.24540
  27955637.38500  28886589.83500                  21829458.13440  28886594.88640
    -96867.28100  26145826.31100                    -64569.20240  26145830.48340
  -4630703.83400  27569160.76500                  -3535908.37940  27569165.73340
   -681280.14400  30523959.78800                   -465943.58240  30523960.49140
  17741854.93600  27054998.96000                  13872203.46240  27055002.65140
   -374143.81200  30318873.75700                   -208294.80640  30318877.29640
 96  9  6  4 28  0.0190000  0  7  3 14 18 19 27 29 31
  -1156076.04900  29716671.50700                   -857097.57140  29716677.64740
  28112707.37000  28916479.00700                  21951850.32540  28916483.96440
    -79497.07800  26149131.61600                    -51033.96940  26149135.75340
  -4634457.59300  27568446.68600                  -3538833.36640  27568451.74940
   -712466.23500  30518024.48300                   -490244.41840  30518027.89340
  17837777.28700  27073251.99100                  13946948.15040  27073255.80040
   -415984.87100  30310911.16300                   -240898.23840  30310912.42940
 96  9  6  4 28 30.0190000  0  7  3 14 18 19 27 29 31
  -1164223.05800  29715121.01500                   -863445.86940  29715126.17140
  28269971.00800  28946405.68600                  22074393.42740  28946410.52640
    -61760.47700  26152506.78000                    -37213.23440  26152510.94040
  -4637971.18700  27567778.01500                  -3541571.20840  27567783.04240
   -743562.36900  30512106.67100                   -514475.19540  30512113.85840
  17934051.30400  27091572.53800                  14021966.85840  27091576.25340
   -457837.20200  30302947.00700                   -273510.38640  30302951.30740
 96  9  6  4 29  0.0190000  0  7  3 14 18 19 27 29 31
  -1172060.82900  29713629.58500                   -869553.19840  29713634.76540
  28427420.05200  28976366.73300                  22197080.99740  28976372.17140
    -43654.45600  26155952.29600                    -23104.63840  26155956.62040
  -4641252.67100  27567153.57700                  -3544128.18340  27567158.48740
   -774581.30900  30506203.42900                   -538645.56340  30506210.35840
  18030672.70000  27109959.07700                  14097256.25040  27109962.80440
   -499698.87100  30294980.76500                   -306129.82840  30294985.06540
 96  9  6  4 29 30.0190000  0  7  3 14 18 19 27 29 31
  -1179587.41600  29712197.45200                   -875418.08440  29712203.26540
  28585048.49000  29006362.74900                  22319908.33640  29006368.04640
    -25164.25400  26159470.79600                     -8696.68640  26159475.05040
  -4644298.50000  27566574.33500                  -3546501.54440  27566579.50340
   -805535.49400  30500315.05400                   -562765.69440  30500322.05440
  18127649.38700  27128413.23300                  14172822.48940  27128417.15940
   -541563.11600  30287014.46800                   -338751.28840  30287020.90140
 96  9  6  4 30  0.0190000  0  7  3 14 18 19 27 29 31
  -1186811.42400  29710823.03000                   -881047.14440  29710828.36240
  28742835.05900  29036388.61600                  22442858.90140  29036394.01840
     -6296.25100  26163061.34300                      6005.66340  26163065.55040
  -4647139.18000  27566033.30400                  -3548715.04040  27566038.63640
   -836450.49600  30494432.24900                   -586855.24040  30494438.28440
  18224962.49000  27146930.91300                  14248650.88340  27146934.69840
   -583435.13100  30279046.06100                   -371378.81240  30279050.44440
 96  9  6  4 30 30.0190000  0  7  3 14 18 19 27 29 31
  -1193734.72800  29709505.69400                   -886441.90840  29709510.38240
  28900774.27800  29066443.60800                  22565928.42940  29066448.82340
     12958.90700  26166725.51500                     21009.68340  26166729.67540
  -4649791.42300  27565528.52200                  -3550781.70440  27565533.58540
   -867318.45500  30488557.97500                   -610908.14540  30488563.08540
  18322610.00100  27165512.88200                  14324739.84540  27165516.52640
   -625285.98200  30271081.67100                   -403989.86940  30271087.74140
 96  9  6  4 31  0.0190000  0  7  3 14 18 19 27 29 31
  -1200345.79100  29708247.72500                   -891593.38740  29708252.31940
  29058855.79800  29096525.53800                  22689108.82640  29096531.17540
     32593.31000  26170461.74900                     36309.22140  26170465.88640
  -4652268.15200  27565057.39700                  -3552711.59740  27565062.43640
   -898136.82100  30482693.52200                   -634922.41940  30482699.19440
  18420581.39400  27184156.20200                  14401081.18640  27184160.04640
   -667120.04300  30263121.61600                   -436587.81040  30263126.74940
 96  9  6  4 31 30.0190000  0  7  3 14 18 19 27 29 31
  -1206628.33200  29707051.67900                   -896488.85040  29707057.08140
  29217093.62600  29126636.81100                  22812411.00940  29126642.20240
     52602.40800  26174269.36600                     51900.73040  26174273.51540
  -4654565.92500  27564620.00700                  -3554502.04540  27564624.95240
   -928882.72800  30476842.28000                   -658880.20540  30476849.62040
  18518893.92600  27202864.46000                  14477688.34540  27202868.21040
   -708933.71200  30255164.01500                   -469169.87840  30255170.50740
 96  9  6  4 32  0.0190000  0  7  3 14 18 19 27 29 31
  -1212612.11200  29705912.69400                   -901151.56440  29705918.01540
  29375449.25000  29156770.72500                  22935804.99440  29156776.37440
     72953.43600  26178142.04600                     67758.67740  26178146.17140
  -4656704.51900  27564213.20200                  -3556168.45740  27564218.07740
   -959564.75700  30471004.05400                   -682788.29140  30471010.40540
  18617526.46200  27221633.54600                  14554544.86040  27221637.35440
   -750747.07800  30247207.86600                   -501751.70340  30247210.01140
 96  9  6  4 32 30.0190000  0  7  3 14 18 19 27 29 31
  -1218268.73100  29704837.02200                   -905559.27640  29704842.02640
  29533956.89200  29186933.26500                  23059317.44940  29186938.84340
     93684.68300  26182086.90500                     83912.89940  26182091.17140
  -4658646.92700  27563843.36600                  -3557682.00940  27563848.21840
   -990144.33000  30465184.38200                   -706616.47240  30465188.62440
  18716507.60800  27240469.21000                  14631673.01840  27240472.84340
   -792537.70400  30239255.24100                   -534315.81040  30239259.09740
 96  9  6  4 33  0.0190000  0  7  3 14 18 19 27 29 31
  -1223594.07500  29703823.24100                   -909708.92440  29703827.23740
  29692612.79400  29217125.36600                  23182945.40640  29217130.47540
    114789.38300  26186103.10800                    100358.12340  26186107.25740
  -4660381.60700  27563513.28800                  -3559033.68940  27563518.46840
  -1020633.64500  30459382.31100                   -730374.32640  30459387.45640
  18815830.17300  27259369.42100                  14709067.22540  27259373.13640
   -834331.79800  30231302.47500                   -566882.61740  30231305.71040
 96  9  6  4 33 30.0190000  0  7  3 14 18 19 27 29 31
  -1228573.85300  29702875.64000                   -913589.25440  29702879.64740
  29851431.30500  29247346.89000                  23306700.10140  29247352.09340
    136287.64200  26190194.19400                    117110.01740  26190198.33140
  -4661886.51100  27563227.03800                  -3560206.32340  27563232.17140
  -1051030.89100  30453598.25700                   -754060.42240  30453603.89340
  18915513.71100  27278338.59300                  14786742.70340  27278342.27240
   -876107.58900  30223351.84300                   -599435.19140  30223357.79640
 96  9  6  4 34  0.0190000  0  7  3 14 18 19 27 29 31
  -1233200.97500  29701995.09300                   -917194.78040  29701999.46440
  30010398.18000  29277598.71000                  23430570.36440  29277604.15940
    158194.07400  26194362.75700                    134179.96340  26194366.89340
  -4663146.21800  27562987.45200                  -3561187.89440  27562992.47940
  -1081363.03500  30447826.03000                   -777695.79140  30447830.28440
  19015553.70700  27297375.61600                  14864695.93740  27297379.34340
   -917848.80900  30215408.89000                   -631960.82040  30215414.29240
 96  9  6  4 34 30.0190000  0  7  3 14 18 19 27 29 31
  -1237466.83500  29701183.52200                   -920518.80440  29701187.26140
  30169506.92200  29307875.24900                  23554551.20640  29307880.85040
    180504.81900  26198608.31900                    151564.96440  26198612.51540
  -4664173.50400  27562791.84300                  -3561988.35840  27562796.89340
  -1111671.70700  30442058.45200                   -801312.88240  30442064.12440
  19115938.52700  27316478.37400                  14942917.86740  27316481.97240
   -959558.37400  30207472.54600                   -664461.73940  30207475.90940
 96  9  6  4 35  0.0190000  0  7  3 14 18 19 27 29 31
  -1241370.03200  29700440.28000                   -923560.23140  29700444.79240
  30328747.55800  29338177.21000                  23678634.81140  29338183.08140
    203206.02200  26202928.16300                    169254.21640  26202932.30040
  -4664961.69100  27562641.64700                  -3562602.51140  27562646.87440
  -1141964.08500  30436294.03000                   -824917.28940  30436299.63240
  19216678.10800  27335648.23300                  15021416.23740  27335652.17140
  -1001213.56700  30199544.89700                   -696920.30540  30199548.89340
 96  9  6  4 35 30.0190000  0  7  3 14 18 19 27 29 31
  -1244928.44000  29699763.68600                   -926332.98940  29699768.87840
  30488113.54000  29368504.53000                  23802816.10840  29368509.89740
    226301.25500  26207322.85000                    187250.50740  26207326.97540
  -4665519.90100  27562535.47500                  -3563037.46140  27562540.55040
  -1172228.46100  30430534.71000                   -848499.87440  30430540.68640
  19317779.00200  27354887.25700                  15100196.14440  27354890.71440
  -1042798.56000  30191632.22500                   -729324.25640  30191636.80740
 96  9  6  4 36  0.0190000  0  7  3 14 18 19 27 29 31
  -1248165.33700  29699147.73300                   -928855.23940  29699152.74940
  30647586.70900  29398851.16300                  23927080.89640  29398855.75740
    249786.59200  26211792.24100                    205550.77440  26211796.37840
  -4665853.77700  27562471.65500                  -3563297.60540  27562476.78840
  -1202455.30500  30424782.74900                   -872053.21140  30424787.46040
  19419236.46400  27374193.93600                  15179253.89540  27374197.68640
  -1084321.29200  30183730.60800                   -761679.52740  30183736.49140
 96  9  6  4 36 30.0200000  0  7  3 14 18 19 27 29 31
  -1251071.38400  29698594.94100                   -931119.69540  29698598.96140
  30807183.31400  29429221.19900                  24051441.90440  29429226.85940
    273658.83100  26216335.09000                    224152.52340  26216339.19140
  -4665973.55000  27562449.24600                  -3563390.91640  27562454.55540
  -1232594.42200  30419047.87100                   -895538.21340  30419054.82440
  19521055.89200  27393569.58200                  15258593.70840  27393573.28540
  -1125784.89700  30175840.07400                   -793988.82440  30175845.41840
 96  9  6  4 37  0.0200000  0  7  3 14 18 19 27 29 31
  -1253658.81500  29698102.47300                   -933135.85640  29698107.91040
  30966880.11200  29459610.35500                  24175880.94640  29459615.16040
    297893.41600  26220946.65200                    243036.61840  26220950.93040
  -4665906.07100  27562462.04300                  -3563338.32140  27562466.70740
  -1262614.50300  30413333.99600                   -918930.43540  30413338.00440
  19623209.91300  27413008.69900                  15338194.23340  27413012.37940
  -1167212.48600  30167956.84000                   -826270.09940  30167961.86740
 96  9  6  4 37 30.0200000  0  7  3 14 18 19 27 29 31
  -1255901.14100  29697675.17600                   -934883.11440  29697679.72340
  31126687.82200  29490019.72300                  24300406.44940  29490025.18340
    322507.45900  26225630.64400                    262216.39840  26225634.73440
  -4665654.64000  27562509.80100                  -3563142.38140  27562514.69940
  -1292513.54800  30407644.20700                   -942228.33740  30407650.40640
  19725689.39100  27432510.08200                  15418048.36240  27432513.71540
  -1208607.13000  30160079.29300                   -858525.62340  30160085.37540
 96  9  6  4 38  0.0200000  0  7  3 14 18 19 27 29 31
  -1257744.79900  29697324.14400                   -936319.71340  29697329.18340
  31286618.06900  29520454.48800                  24425027.39240  29520460.48840
    347520.48800  26230390.28500                    281707.07140  26230394.42240
  -4665203.89300  27562595.47300                  -3562791.12940  27562600.40640
  -1322276.94200  30401981.16000                   -965420.53540  30401987.78140
  19828502.76800  27452074.61300                  15498162.67440  27452078.44540
  -1249938.57900  30152214.23800                   -890731.92540  30152219.24240
 96  9  6  4 38 30.0200000  0  7  3 14 18 19 27 29 31
  -1259178.35000  29697052.24600                   -937436.74740  29697056.79340
  31446662.26800  29550909.43300                  24549737.18240  29550915.43340
    372917.17800  26235223.15200                    301496.70740  26235227.33640
  -4664571.21400  27562716.05800                  -3562298.11940  27562720.88740
  -1351921.94100  30396339.84800                   -988520.50440  30396345.18040
  19931635.18900  27471700.40200                  15578525.58940  27471704.08240
  -1291211.08500  30144360.47300                   -922892.31740  30144364.82040
 96  9  6  4 39  0.0200000  0  7  3 14 18 19 27 29 31
  -1260214.36300  29696854.66800                   -938244.01240  29696859.29740
  31606808.11800  29581384.44100                  24674526.15540  29581389.60940
    398705.38100  26240130.52700                    321591.41640  26240134.71140
  -4663750.60000  27562872.03500                  -3561658.66140  27562877.16840
  -1381492.44200  30390713.01200                  -1011562.40440  30390718.51940
  20035090.09300  27491386.90200                  15659139.79440  27491390.52340
  -1332422.20700  30136517.87100                   -955004.83440  30136527.42640
 96  9  6  4 39 30.0200000  0  7  3 14 18 19 27 29 31
  -1260862.95400  29696730.76900                   -938749.40540  29696735.62140
  31767046.19300  29611876.59800                  24799386.98040  29611881.51940
    424896.28000  26245114.44900                    341999.90640  26245118.66840
  -4662721.03700  27563067.94100                  -3560856.38640  27563073.12140
  -1411020.34200  30385094.44100                  -1034571.09140  30385100.92240
  20138882.69200  27511138.08200                  15740017.13540  27511141.53940
  -1373559.62400  30128690.55800                   -987059.92740  30128696.09040
 96  9  6  4 40  0.0200000  0  7  3 14 18 19 27 29 31
  -1261146.83400  29696677.25400                   -938970.59540  29696681.95340
  31927380.48500  29642387.34800                  24924322.77340  29642393.39440
    451476.25200  26250172.41000                    362711.57540  26250176.54740
  -4661487.29600  27563302.80800                  -3559895.01440  27563307.60140
  -1440505.54500  30379483.19900                  -1057546.56540  30379488.12140
  20243027.78400  27530956.41800                  15821169.14440  27530960.22640
  -1414625.04900  30120874.84000                  -1019058.90540  30120878.77740
 96  9  6  4 40 30.0200000  0  7  3 14 18 19 27 29 31
  -1261081.92000  29696689.68300                   -938919.97640  29696694.35940
  32087831.37400  29672921.73800                  25049349.44640  29672926.14440
    478447.38500  26255304.94900                    383728.04540  26255309.07440
  -4660032.20900  27563579.69900                  -3558761.16140  27563584.73840
  -1469951.64300  30373879.31600                  -1080491.52040  30373884.53140
  20347532.96400  27550843.09000                  15902601.73940  27550846.95740
  -1455625.16300  30113073.23000                  -1051007.11840  30113079.59440
 96  9  6  4 41  0.0200000  0  7  3 14 18 19 27 29 31
  -1260664.42500  29696768.95700                   -938594.66740  29696773.53940
  32248410.92400  29703477.34000                  25174476.35040  29703482.64840
    505823.89600  26260514.51900                    405060.39440  26260518.63340
  -4658341.33400  27563901.62900                  -3557443.58540  27563906.48040
  -1499352.81300  30368284.59000                  -1103401.50840  30368290.94140
  20452400.49900  27570798.49600                  15984316.69740  27570802.31640
  -1496548.90100  30105287.69100                  -1082895.61940  30105288.80540
 96  9  6  4 41 30.0200000  0  7  3 14 18 19 27 29 31
  -1259887.70900  29696916.36300                   -937989.38640  29696921.57840
  32409123.42500  29734059.73000                  25299706.86040  29734064.12540
    533604.36400  26265800.87900                    426707.51440  26265805.05140
  -4656412.87800  27564268.51200                  -3555940.87540  27564273.42240
  -1528686.77500  30362701.19900                  -1126259.06040  30362707.82040
  20557620.41500  27590821.34000                  16066306.22940  27590824.87940
  -1537390.66300  30097514.59800                  -1114720.36140  30097521.05540
 96  9  6  4 42  0.0200000  0  7  3 14 18 19 27 29 31
  -1258741.95300  29697134.19100                   -937096.56940  29697139.67640
  32569957.47700  29764666.04300                  25425032.11340  29764672.50040
    561796.36200  26271165.59000                    448675.30640  26271169.73840
  -4654261.77200  27564677.78500                  -3554264.66740  27564682.81240
  -1557943.56500  30357135.23000                  -1149056.49540  30357140.85540
  20663178.70800  27610908.34000                  16148559.44040  27610911.97340
  -1578154.24700  30089756.70700                  -1146484.20940  30089762.33240
 96  9  6  4 42 30.0200000  0  7  3 14 18 19 27 29 31
  -1257209.00200  29697426.01200                   -935902.04540  29697431.28540
  32730895.92400  29795292.09800                  25550438.66240  29795297.60540
    590421.56100  26276612.86300                    470980.65940  26276616.94140
  -4651878.22300  27565131.31600                  -3552407.34240  27565136.22640
  -1587108.80000  30351585.38700                  -1171782.60440  30351591.46940
  20769078.82400  27631060.79300                  16231078.99640  27631064.43740
  -1618835.71200  30082015.09000                  -1178183.98840  30082019.33240
 96  9  6  4 43  0.0200000  0  7  3 14 18 19 27 29 31
  -1255279.83000  29697793.26900                   -934398.76440  29697798.26240
  32891913.94300  29825932.09000                  25675907.24540  29825936.93040
    619488.89100  26282144.09800                    493630.53040  26282148.23440
  -4649277.40600  27565625.98800                  -3550380.71440  27565631.19140
  -1616181.87900  30346052.85500                  -1194436.89040  30346058.50440
  20875319.65900  27651277.48000                  16313864.05340  27651281.28940
  -1659432.48800  30074289.67600                  -1209817.81440  30074293.59040
 96  9  6  4 43 30.0200000  0  7  3 14 18 19 27 29 31
  -1252935.80100  29698240.21500                   -932572.21940  29698244.56240
  33053011.12900  29856587.51900                  25801437.52440  29856592.09040
    649015.37100  26287762.72300                    516638.17840  26287766.89440
  -4646461.07600  27566161.98800                  -3548186.15740  27566166.96940
  -1645153.03600  30340540.09800                  -1217011.78440  30340545.33640
  20981926.67200  27671564.22300                  16396934.44440  27671568.07840
  -1699932.59600  30066584.01200                  -1241376.37440  30066586.98840
 96  9  6  4 44  0.0200000  0  7  3 14 18 19 27 29 31
  -1250190.38900  29698761.98800                   -930432.92540  29698766.98040
  33214153.54700  29887252.17600                  25927003.02740  29887256.71140
    678968.55200  26293462.84000                    539978.32040  26293467.00040
  -4643460.21600  27566733.32400                  -3545847.80640  27566738.26940
  -1674055.87300  30335039.70700                  -1239533.43240  30335044.73440
  21088884.24300  27691917.37900                  16480278.00440  27691921.19940
  -1740362.29000  30058889.72300                  -1272879.92940  30058895.09040
 96  9  6  4 44 30.0200000  0  7  3 14 18 19 27 29 31
  -1247026.92200  29699363.37900
  33375366.44400  29917929.86300                  26052623.48640  29917936.03940
    709350.12700  26299244.19100                    563652.27640  26299248.30540
  -4640261.33800  27567341.88700                  -3543355.15940  27567346.76240
  -1702877.36400  30329554.96500                  -1261991.68640  30329560.89440
  21196203.02800  27712339.69900                  16563903.02140  27712343.47340
  -1780706.16600  30051211.78500                  -1304316.78940  30051217.58640
 96  9  6  4 45  0.0200000  0  7  3 14 18 19 27 29 31
  -1243449.13900  29700044.30100
  33536652.60900  29948622.01900                  26178300.95940  29948628.30140
    740151.89500  26305105.55800                    587653.65340  26305109.71940
  -4636870.47900  27567987.10500                  -3540712.91440  27567992.06240
  -1731628.94700  30324083.47300                  -1284395.49540  30324089.76540
  21303871.71300  27732828.07400                  16647800.68740  27732831.96540
  -1820961.73000  30043552.64400                  -1335684.66740  30043557.82440
 96  9  6  4 45 30.0200000  0  7  3 14 18 19 27 29 31
  -1239461.97900  29700803.41000
  33698012.87800  29979327.75400                  26304036.28940  29979332.92240
    771359.62300  26311044.19900                    611971.36640  26311048.37140
  -4633278.08300  27568670.93300                  -3537913.63040  27568675.73840
  -1760306.72300  30318626.40200                  -1306741.72140  30318631.87540
  21411888.82500  27753383.12100                  16731969.85740  27753387.12940
  -1861120.21500  30035910.08200                  -1366977.02740  30035914.71140
 96  9  6  4 46  0.0200000  0  7  3 14 18 19 27 29 31
  -1235082.16100  29701636.94900                      2082.81550  29701641.94140
  33859451.62900  30010047.96500                  26429832.65040  30010054.09440
    802964.32800  26317058.21500                    636598.41140  26317062.34040
  -4629475.23800  27569394.57400                  -3534950.35640  27569399.57840
  -1788919.94500  30313181.84000                  -1329037.69840  30313186.84440
  21520237.53500  27774001.15200                  16816397.41040  27774004.79740
  -1901193.83100  30028285.34800                  -1398203.20840  30028289.13340
 96  9  6  4 46 30.0200000  0  7  3 14 18 19 27 29 31
  -1230313.27000  29702545.06600                      5798.83340  29702549.14440
  34020973.85500  30040786.00400                  26555694.12840  30040789.20340
    834985.71700  26323152.05100                    661550.14540  26323156.24640
  -4625452.97200  27570159.87100                  -3531816.11340  27570164.58240
  -1817453.57400  30307751.62900                  -1351271.66440  30307756.77340
  21628918.99100  27794682.47300                  16901084.25040  27794686.45740
  -1941160.34000  30020680.50400                  -1429345.86340  30020684.34840
 96  9  6  4 47  0.0200000  0  7  3 14 18 19 27 29 31
  -1225146.27500  29703527.36300                      9825.11640  29703532.35540
  34182589.43900  30071539.69900                  26681628.35140  30071544.65640
    867447.34200  26329329.06600                    686844.91740  26329333.13340
  -4621191.91100  27570970.49600                  -3528495.79240  27570975.55840
  -1845898.05400  30302339.15200                  -1373436.11340  30302343.96940
  21737952.45400  27815431.24600                  16986045.37740  27815435.24240
  -1980987.44600  30013100.36300                  -1460379.91340  30013105.91840
 96  9  6  4 47 30.0200000  0  7  3 14 18 19 27 29 31
  -1219590.43200  29704585.41000                     14154.35540  29704590.93040
  34344287.71000  30102310.36300                  26807626.99740  30102316.50440
    900343.44800  26335588.81600                    712478.25040  26335593.02340
  -4616712.34900  27571823.07400                  -3525005.20440  27571827.91440
  -1874263.05100  30296941.81600                  -1395538.70640  30296945.64840
  21847326.30300  27836244.27700                  17071271.74940  27836248.00440
  -2020677.49900  30005546.95700                  -1491307.34140  30005552.84040
 96  9  6  4 48  0.0200000  0  7  3 14 18 19 27 29 31
  -1213648.78800  29705716.01200                     18784.24740  29705720.85140
  34506053.73100  30133092.61300                  26933678.42840  30133096.51540
    933668.57300  26341930.63700                    738445.88040  26341934.82040
  -4612032.99700  27572713.56600                  -3521358.94040  27572718.51240
  -1902552.42000  30291557.72300                  -1417582.31940  30291563.34840
  21957028.37200  27857119.85500                  17156753.86940  27857123.64040
  -2060237.27400  29998019.27700                  -1522133.05540  29998022.98040
 96  9  6  4 48 30.0200000  0  7  3 14 18 19 27 29 31
  -1207302.00800  29706923.09000                     23729.80040  29706927.62540
  34667874.61400  30163886.81600                  27059772.64340  30163891.99640
    967412.73300  26348351.98000                    764740.03140  26348356.02340
  -4607169.99100  27573638.91800                  -3517569.56740  27573644.08640
  -1930758.36300  30286190.25400                  -1439560.91540  30286195.90240
  22067051.28100  27878056.64400                  17242486.00240  27878060.34840
  -2099642.62800  29990520.37100                  -1552838.49540  29990526.52340
 96  9  6  4 49  0.0200000  0  7  3 14 18 19 27 29 31
  -1200551.02100  29708208.03500                     28990.33140  29708212.25440
  34829747.23600  30194689.16000                  27185907.08640  30194695.28940
   1001559.76400  26354849.74600                    791348.11140  26354853.90640
  -4602130.88600  27574597.72300                  -3513642.97840  27574602.72640
  -1958895.03200  30280835.72300                  -1461485.52040  30280840.76240
  22177398.71700  27899055.16800                  17328471.01040  27899058.96540
  -2138911.01700  29983048.76900                  -1583437.26940  29983053.96140
 96  9  6  4 49 30.0200000  0  7  3 14 18 19 27 29 31
  -1193364.87300  29709575.97300                     34589.92940  29709580.12140
  34991689.15200  30225505.97300                  27312095.63140  30225511.03540
   1036126.03400  26361427.50400                    818282.86740  26361431.64040
  -4596889.19200  27575595.37900                  -3509558.52640  27575600.30140
  -1986924.60800  30275502.85500                  -1483326.67840  30275508.08240
  22288102.44700  27920121.35500                  17414733.65240  27920124.89440
  -2178023.34000  29975606.34800                  -1613914.35240  29975608.83240
 96  9  6  4 50  0.0200000  0  7  3 14 18 19 27 29 31
  -1185762.39800  29711021.87100                     40513.98440  29711026.46540
  35153670.39000  30256330.20700                  27438314.74740  30256335.18740
   1071078.14100  26368078.68300                    845518.28040  26368082.77340
  -4591449.65700  27576630.22300                  -3505319.90940  27576635.23840
  -2014872.10100  30270183.88700                  -1505103.88340  30270188.58640
  22399138.35000  27941250.42600                  17501255.12940  27941254.29340
  -2217001.02000  29968190.41000                  -1644286.51940  29968192.77740
 96  9  6  4 50 30.0200000  0  7  3 14 18 19 27 29 31
  -1177748.90100  29712546.73000                     46758.28440  29712550.56240
  35315683.05200  30287160.23800                  27564558.37040  30287164.00040
   1106418.37400  26374803.63700                    873056.12540  26374807.72640
  -4585813.55800  27577702.46500                  -3500928.12740  27577707.59840
  -2042765.10700  30264876.34000                  -1526838.63940  30264881.75440
  22510500.62900  27962442.32400                  17588030.92040  27962446.05140
  -2255856.02200  29960795.54300                  -1674563.18140  29960802.26940
 96  9  6  4 51  0.0200000  0  7  3 14 18 19 27 29 31
  -1169313.63600  29714152.15200                     53331.24540  29714156.40640
  35477732.70300  30317996.76900                  27690830.88140  30318001.38740
   1142184.52900  26381609.78500                    900925.85740  26381613.91040
  -4579949.74200  27578819.06600                  -3496358.90240  27578823.98840
  -2070592.46800  30259580.63700                  -1548522.29040  30259586.98840
  22622209.48800  27983699.37900                  17675076.77340  27983703.29340
  -2294576.19400  29953427.89400                  -1704734.76640  29953428.34040
 96  9  6  4 51 30.0200000  0  7  3 14 18 19 27 29 31
  -1160444.56300  29715838.97300                     60242.22340  29715844.44540
  35639798.82100  30348836.85500                  27817116.10240  30348842.59840
   1178384.50000  26388498.59000                    929133.62440  26388502.64440
  -4573858.83200  27579977.68300                  -3491612.72940  27579982.40640
  -2098361.10200  30254296.28500                  -1570160.12540  30254301.64040
  22734242.93300  28005018.84000                  17762375.55140  28005022.37940
  -2333151.31200  29946086.05100                  -1734793.17640  29946089.95340
 96  9  6  4 52  0.0200000  0  7  3 14 18 19 27 29 31
  -1151123.83800  29717612.82400                     67505.15240  29717617.95740
  35801883.47500  30379681.47300                  27943415.83740  30379687.07440
   1215038.99000  26395473.59000                    957695.56440  26395477.69140
  -4567546.42500  27581178.92600                  -3486693.95140  27581184.01240
  -2126078.35200  30249021.91800                  -1591757.95340  30249027.87140
  22846593.46000  28026398.62100                  17849921.41040  28026402.19540
  -2371572.99100  29938773.80100                  -1764732.21140  29938779.50840
 96  9  6  4 52 30.0210000  0  7  3 14 18 19 27 29 31
  -1141346.38200  29719473.86800                     75123.97140  29719479.18840
  35963983.23800  30410527.39900                  28069727.29240  30410532.22740
   1252159.35000  26402537.47000                    986620.52040  26402541.65340
  -4561027.48700  27582419.35200                  -3481614.25140  27582424.13440
  -2153747.85800  30243756.26600                  -1613318.53440  30243761.39940
  22959264.84900  28047839.17300                  17937717.28540  28047843.05240
  -2409854.56700  29931487.61800                  -1794562.01640  29931493.61840
 96  9  6  4 53  0.0210000  0  7  3 14 18 19 27 29 31
  -1131133.23800  29721417.54800                     83082.28440  29721422.72740
  36126068.73700  30441371.97700                  28196027.69040  30441377.94240
   1289713.36400  26409683.49300                   1015883.38740  26409687.63040
  -4554328.94800  27583694.06300                  -3476394.59840  27583699.10240
  -2181370.43800  30238499.86800                  -1634842.58440  30238505.76340
  23072228.90900  28069335.75100                  18025741.22340  28069339.52440
  -2448015.97500  29924227.14100                  -1824298.16340  29924229.61440
 96  9  6  4 53 30.0210000  0  7  3 14 18 19 27 29 31
  -1120464.12900  29723447.64100                     91395.90440  29723452.18840
  36288179.50800  30472219.11000                  28322347.76240  30472224.13840
   1327706.31600  26416913.37600                   1045488.28540  26416917.52440
  -4547435.69200  27585005.80600                  -3471023.22540  27585010.61040
  -2208917.21200  30233258.52400                  -1656307.55440  30233264.81740
  23185516.62000  28090893.58700                  18114017.35040  28090897.20840
  -2486044.54100  29916990.62600                  -1853930.79440  29916995.73540
 96  9  6  4 54  0.0210000  0  7  3 14 18 19 27 29 31
  -1109357.85700  29725561.20400                    100050.16740  29725566.54840
  36450329.40700  30503076.62600                  28448698.33740  30503080.71640
   1366131.47200  26424225.35200                   1075429.97440  26424229.57140
  -4540348.86100  27586354.30600                  -3465501.00240  27586359.21640
  -2236389.39300  30228029.68100                  -1677714.37840  30228035.22340
  23299145.37200  28112516.40700                  18202559.22640  28112520.39140
  -2523939.81100  29909779.15700                  -1883459.58440  29909785.50940
 96  9  6  4 54 30.0210000  0  7  3 14 18 19 27 29 31
  -1097835.72800  29727753.92300                    109028.46240  29727758.50540
  36612511.13700  30533937.39900                  28575073.70840  30533942.02840
   1404982.64400  26431618.50900                   1105703.61140  26431622.72740
  -4533062.38200  27587740.78200                  -3459823.21540  27587745.62240
  -2263795.69100  30222814.95400                  -1699069.87740  30222820.01640
  23413110.89800  28134203.33700                  18291363.51140  28134207.36840
  -2561706.48400  29902592.39900                  -1912888.16040  29902596.82940
